Wetterdaten: Sonntag, 31.07.2016
Datum Zeit Temp. A. Feuchte A. Luftdruck Regen Wind Richtung Richtung Sonnenschein ET UV Solar Taupunkt Windchill Windben Empfang
31.07.2016 00:00 20,6 C 85 % 1011,1 hPa 0,0 l/m 0,0 km/h (0 Bft) S-SW 209 0 min 0,000 mm 0,0 UV-I 0 W/m 18,0 C 20,6 C 1,6 km/h (1 Bft) 100,00 %
31.07.2016 00:02 20,6 C 85 % 1011,1 hPa 0,0 l/m 1,2 km/h (1 Bft) S-SW 209 0 min 0,000 mm 0,0 UV-I 0 W/m 18,0 C 20,6 C 3,2 km/h (1 Bft) 97,56 %
31.07.2016 00:04 20,6 C 84 % 1011,1 hPa 0,0 l/m 1,5 km/h (1 Bft) S-SW 209 0 min 0,000 mm 0,0 UV-I 0 W/m 17,8 C 20,6 C 3,2 km/h (1 Bft) 98,00 %
31.07.2016 00:06 20,6 C 85 % 1011,1 hPa 0,0 l/m 0,1 km/h (0 Bft) S-SW 209 0 min 0,000 mm 0,0 UV-I 0 W/m 18,0 C 20,6 C 1,6 km/h (1 Bft) 100,00 %
31.07.2016 00:08 20,5 C 85 % 1011,0 hPa 0,0 l/m 2,0 km/h (1 Bft) S-SW 209 0 min 0,000 mm 0,0 UV-I 0 W/m 17,9 C 20,5 C 4,8 km/h (1 Bft) 100,00 %
31.07.2016 00:10 20,4 C 85 % 1011,0 hPa 0,0 l/m 4,9 km/h (1 Bft) NO 55 0 min 0,000 mm 0,0 UV-I 0 W/m 17,8 C 20,4 C 6,4 km/h (2 Bft) 100,00 %
31.07.2016 00:12 20,4 C 86 % 1011,0 hPa 0,0 l/m 4,9 km/h (1 Bft) NO 55 0 min 0,000 mm 0,0 UV-I 0 W/m 18,0 C 20,4 C 6,4 km/h (2 Bft) 98,11 %
31.07.2016 00:14 20,3 C 87 % 1011,1 hPa 0,0 l/m 2,1 km/h (1 Bft) NO 55 0 min 0,000 mm 0,0 UV-I 0 W/m 18,1 C 20,3 C 4,8 km/h (1 Bft) 100,00 %
31.07.2016 00:16 20,3 C 86 % 1011,0 hPa 0,0 l/m 0,5 km/h (0 Bft) NO 55 0 min 0,000 mm 0,0 UV-I 0 W/m 17,9 C 20,3 C 3,2 km/h (1 Bft) 100,00 %
31.07.2016 00:18 20,2 C 87 % 1011,1 hPa 0,0 l/m 0,3 km/h (0 Bft) NO 55 0 min 0,000 mm 0,0 UV-I 0 W/m 18,0 C 20,2 C 3,2 km/h (1 Bft) 100,00 %
31.07.2016 00:20 20,1 C 88 % 1011,1 hPa 0,0 l/m 0,0 km/h (0 Bft) NO 55 0 min 0,000 mm 0,0 UV-I 0 W/m 18,0 C 20,1 C 1,6 km/h (1 Bft) 100,00 %
31.07.2016 00:22 20,1 C 88 % 1011,1 hPa 0,0 l/m 0,1 km/h (0 Bft) NO 55 0 min 0,000 mm 0,0 UV-I 0 W/m 18,0 C 20,1 C 1,6 km/h (1 Bft) 100,00 %
31.07.2016 00:24 20,1 C 88 % 1011,1 hPa 0,0 l/m 0,4 km/h (0 Bft) NO 55 0 min 0,000 mm 0,0 UV-I 0 W/m 18,0 C 20,1 C 1,6 km/h (1 Bft) 100,00 %
31.07.2016 00:26 20,2 C 89 % 1011,1 hPa 0,0 l/m 1,3 km/h (1 Bft) NO 55 0 min 0,000 mm 0,0 UV-I 0 W/m 18,3 C 20,2 C 3,2 km/h (1 Bft) 97,92 %
31.07.2016 00:28 20,2 C 88 % 1011,2 hPa 0,0 l/m 1,5 km/h (1 Bft) N 10 0 min 0,000 mm 0,0 UV-I 0 W/m 18,1 C 20,2 C 3,2 km/h (1 Bft) 100,00 %
31.07.2016 00:30 20,2 C 87 % 1011,2 hPa 0,0 l/m 1,9 km/h (1 Bft) W 275 0 min 0,000 mm 0,0 UV-I 0 W/m 18,0 C 20,2 C 3,2 km/h (1 Bft) 98,11 %
31.07.2016 00:32 20,2 C 87 % 1011,2 hPa 0,0 l/m 1,2 km/h (1 Bft) NW 309 0 min 0,000 mm 0,0 UV-I 0 W/m 18,0 C 20,2 C 3,2 km/h (1 Bft) 100,00 %
31.07.2016 00:34 20,2 C 88 % 1011,2 hPa 0,0 l/m 0,7 km/h (0 Bft) NW 309 0 min 0,000 mm 0,0 UV-I 0 W/m 18,1 C 20,2 C 3,2 km/h (1 Bft) 100,00 %
31.07.2016 00:36 20,2 C 87 % 1011,1 hPa 0,0 l/m 0,5 km/h (0 Bft) NW 309 0 min 0,000 mm 0,0 UV-I 0 W/m 18,0 C 20,2 C 1,6 km/h (1 Bft) 100,00 %
31.07.2016 00:38 20,2 C 87 % 1011,1 hPa 0,0 l/m 1,7 km/h (1 Bft) NW 319 0 min 0,000 mm 0,0 UV-I 0 W/m 18,0 C 20,2 C 4,8 km/h (1 Bft) 100,00 %
31.07.2016 00:40 20,3 C 86 % 1011,0 hPa 0,0 l/m 0,6 km/h (0 Bft) NW 320 0 min 0,000 mm 0,0 UV-I 0 W/m 17,9 C 20,3 C 3,2 km/h (1 Bft) 100,00 %
31.07.2016 00:42 20,3 C 87 % 1011,0 hPa 0,0 l/m 2,4 km/h (1 Bft) NO 53 0 min 0,000 mm 0,0 UV-I 0 W/m 18,1 C 20,3 C 4,8 km/h (1 Bft) 100,00 %
31.07.2016 00:44 20,4 C 86 % 1011,0 hPa 0,0 l/m 3,6 km/h (1 Bft) O-NO 71 0 min 0,000 mm 0,0 UV-I 0 W/m 18,0 C 20,4 C 4,8 km/h (1 Bft) 100,00 %
31.07.2016 00:46 20,4 C 87 % 1011,0 hPa 0,0 l/m 4,4 km/h (1 Bft) O-NO 78 0 min 0,000 mm 0,0 UV-I 0 W/m 18,2 C 20,4 C 4,8 km/h (1 Bft) 95,74 %
31.07.2016 00:48 20,3 C 87 % 1010,9 hPa 0,0 l/m 3,5 km/h (1 Bft) O-NO 78 0 min 0,000 mm 0,0 UV-I 0 W/m 18,1 C 20,3 C 4,8 km/h (1 Bft) 97,37 %
31.07.2016 00:50 20,3 C 87 % 1010,9 hPa 0,0 l/m 3,0 km/h (1 Bft) O-NO 78 0 min 0,000 mm 0,0 UV-I 0 W/m 18,1 C 20,3 C 3,2 km/h (1 Bft) 96,43 %
31.07.2016 00:52 20,2 C 87 % 1010,9 hPa 0,0 l/m 2,6 km/h (1 Bft) O-NO 78 0 min 0,000 mm 0,0 UV-I 0 W/m 18,0 C 20,2 C 3,2 km/h (1 Bft) 95,74 %
31.07.2016 00:54 20,1 C 87 % 1010,9 hPa 0,0 l/m 2,3 km/h (1 Bft) O-NO 78 0 min 0,000 mm 0,0 UV-I 0 W/m 17,9 C 20,1 C 3,2 km/h (1 Bft) 97,87 %
31.07.2016 00:56 20,1 C 87 % 1010,9 hPa 0,0 l/m 2,3 km/h (1 Bft) O-NO 78 0 min 0,000 mm 0,0 UV-I 0 W/m 17,9 C 20,1 C 3,2 km/h (1 Bft) 97,14 %
31.07.2016 00:58 20,1 C 88 % 1010,9 hPa 0,0 l/m 2,5 km/h (1 Bft) O-NO 78 0 min 0,000 mm 0,0 UV-I 0 W/m 18,0 C 20,1 C 3,2 km/h (1 Bft) 98,00 %
31.07.2016 01:00 19,9 C 88 % 1010,9 hPa 0,0 l/m 0,8 km/h (0 Bft) O-NO 78 0 min 0,000 mm 0,0 UV-I 0 W/m 17,8 C 19,9 C 3,2 km/h (1 Bft) 98,00 %
31.07.2016 01:02 19,9 C 88 % 1010,9 hPa 0,0 l/m 1,8 km/h (1 Bft) N 355 0 min 0,000 mm 0,0 UV-I 0 W/m 17,8 C 19,9 C 4,8 km/h (1 Bft) 95,74 %
31.07.2016 01:04 19,9 C 88 % 1010,9 hPa 0,0 l/m 3,5 km/h (1 Bft) W-NW 301 0 min 0,000 mm 0,0 UV-I 0 W/m 17,8 C 19,9 C 4,8 km/h (1 Bft) 94,00 %
31.07.2016 01:06 19,9 C 89 % 1010,9 hPa 0,0 l/m 3,0 km/h (1 Bft) W-NW 301 0 min 0,000 mm 0,0 UV-I 0 W/m 18,0 C 19,9 C 4,8 km/h (1 Bft) 97,22 %
31.07.2016 01:08 19,8 C 89 % 1010,9 hPa 0,0 l/m 1,3 km/h (1 Bft) W-NW 302 0 min 0,000 mm 0,0 UV-I 0 W/m 17,9 C 19,8 C 3,2 km/h (1 Bft) 98,08 %
31.07.2016 01:10 19,8 C 89 % 1010,9 hPa 0,0 l/m 0,0 km/h (0 Bft) W-NW 302 0 min 0,000 mm 0,0 UV-I 0 W/m 17,9 C 19,8 C 1,6 km/h (1 Bft) 96,23 %
31.07.2016 01:12 19,7 C 89 % 1010,9 hPa 0,0 l/m 0,1 km/h (0 Bft) W-NW 301 0 min 0,000 mm 0,0 UV-I 0 W/m 17,8 C 19,7 C 1,6 km/h (1 Bft) 97,87 %
31.07.2016 01:14 19,7 C 89 % 1010,8 hPa 0,0 l/m 0,1 km/h (0 Bft) W-NW 301 0 min 0,000 mm 0,0 UV-I 0 W/m 17,8 C 19,7 C 1,6 km/h (1 Bft) 97,22 %
31.07.2016 01:16 19,7 C 89 % 1010,8 hPa 0,0 l/m 0,2 km/h (0 Bft) W-NW 301 0 min 0,000 mm 0,0 UV-I 0 W/m 17,8 C 19,7 C 1,6 km/h (1 Bft) 98,04 %
31.07.2016 01:18 19,7 C 89 % 1010,8 hPa 0,0 l/m 0,0 km/h (0 Bft) W-NW 301 0 min 0,000 mm 0,0 UV-I 0 W/m 17,8 C 19,7 C 0,0 km/h (0 Bft) 98,00 %
31.07.2016 01:20 19,6 C 90 % 1010,8 hPa 0,0 l/m 0,6 km/h (0 Bft) W-NW 301 0 min 0,000 mm 0,0 UV-I 0 W/m 17,9 C 19,6 C 1,6 km/h (1 Bft) 97,87 %
31.07.2016 01:22 19,6 C 90 % 1010,8 hPa 0,0 l/m 0,7 km/h (0 Bft) W-NW 301 0 min 0,000 mm 0,0 UV-I 0 W/m 17,9 C 19,6 C 1,6 km/h (1 Bft) 98,00 %
31.07.2016 01:24 19,6 C 90 % 1010,7 hPa 0,0 l/m 0,4 km/h (0 Bft) W-NW 301 0 min 0,000 mm 0,0 UV-I 0 W/m 17,9 C 19,6 C 1,6 km/h (1 Bft) 100,00 %
31.07.2016 01:26 19,7 C 89 % 1010,7 hPa 0,0 l/m 0,1 km/h (0 Bft) W-NW 301 0 min 0,000 mm 0,0 UV-I 0 W/m 17,8 C 19,7 C 1,6 km/h (1 Bft) 100,00 %
31.07.2016 01:28 19,6 C 89 % 1010,7 hPa 0,0 l/m 0,9 km/h (0 Bft) W-NW 301 0 min 0,000 mm 0,0 UV-I 0 W/m 17,7 C 19,6 C 1,6 km/h (1 Bft) 98,00 %
31.07.2016 01:30 19,6 C 89 % 1010,7 hPa 0,0 l/m 1,7 km/h (1 Bft) W-NW 301 0 min 0,000 mm 0,0 UV-I 0 W/m 17,7 C 19,6 C 3,2 km/h (1 Bft) 100,00 %
31.07.2016 01:32 19,6 C 90 % 1010,7 hPa 0,0 l/m 1,8 km/h (1 Bft) W-NW 301 0 min 0,000 mm 0,0 UV-I 0 W/m 17,9 C 19,6 C 3,2 km/h (1 Bft) 100,00 %
31.07.2016 01:34 19,5 C 90 % 1010,7 hPa 0,0 l/m 1,0 km/h (0 Bft) W-NW 301 0 min 0,000 mm 0,0 UV-I 0 W/m 17,8 C 19,5 C 1,6 km/h (1 Bft) 97,87 %
31.07.2016 01:36 19,4 C 90 % 1010,7 hPa 0,0 l/m 0,8 km/h (0 Bft) W-NW 301 0 min 0,000 mm 0,0 UV-I 0 W/m 17,7 C 19,4 C 1,6 km/h (1 Bft) 98,00 %
31.07.2016 01:38 19,5 C 90 % 1010,7 hPa 0,0 l/m 0,4 km/h (0 Bft) W-NW 301 0 min 0,000 mm 0,0 UV-I 0 W/m 17,8 C 19,5 C 1,6 km/h (1 Bft) 98,00 %
31.07.2016 01:40 19,5 C 90 % 1010,7 hPa 0,0 l/m 0,0 km/h (0 Bft) W-NW 301 0 min 0,000 mm 0,0 UV-I 0 W/m 17,8 C 19,5 C 0,0 km/h (0 Bft) 100,00 %
31.07.2016 01:42 19,5 C 90 % 1010,7 hPa 0,0 l/m 1,8 km/h (1 Bft) W-NW 301 0 min 0,000 mm 0,0 UV-I 0 W/m 17,8 C 19,5 C 3,2 km/h (1 Bft) 97,56 %
31.07.2016 01:44 19,5 C 90 % 1010,6 hPa 0,0 l/m 0,1 km/h (0 Bft) W-NW 301 0 min 0,000 mm 0,0 UV-I 0 W/m 17,8 C 19,5 C 1,6 km/h (1 Bft) 100,00 %
31.07.2016 01:46 19,4 C 90 % 1010,7 hPa 0,0 l/m 0,0 km/h (0 Bft) W-NW 301 0 min 0,000 mm 0,0 UV-I 0 W/m 17,7 C 19,4 C 1,6 km/h (1 Bft) 100,00 %
31.07.2016 01:48 19,4 C 90 % 1010,7 hPa 0,0 l/m 0,0 km/h (0 Bft) W-NW 301 0 min 0,000 mm 0,0 UV-I 0 W/m 17,7 C 19,4 C 0,0 km/h (0 Bft) 100,00 %
31.07.2016 01:50 19,4 C 90 % 1010,7 hPa 0,0 l/m 0,0 km/h (0 Bft) W-NW 301 0 min 0,000 mm 0,0 UV-I 0 W/m 17,7 C 19,4 C 0,0 km/h (0 Bft) 95,74 %
31.07.2016 01:52 19,4 C 91 % 1010,6 hPa 0,0 l/m 0,0 km/h (0 Bft) W-NW 301 0 min 0,000 mm 0,0 UV-I 0 W/m 17,9 C 19,4 C 0,0 km/h (0 Bft) 100,00 %
31.07.2016 01:54 19,4 C 91 % 1010,6 hPa 0,0 l/m 0,0 km/h (0 Bft) W-NW 301 0 min 0,000 mm 0,0 UV-I 0 W/m 17,9 C 19,4 C 0,0 km/h (0 Bft) 100,00 %
31.07.2016 01:56 19,4 C 90 % 1010,7 hPa 0,0 l/m 0,0 km/h (0 Bft) W-NW 301 0 min 0,000 mm 0,0 UV-I 0 W/m 17,7 C 19,4 C 0,0 km/h (0 Bft) 100,00 %
31.07.2016 01:58 19,3 C 90 % 1010,6 hPa 0,0 l/m 0,0 km/h (0 Bft) W-NW 301 0 min 0,000 mm 0,0 UV-I 0 W/m 17,6 C 19,3 C 0,0 km/h (0 Bft) 100,00 %
31.07.2016 02:00 19,3 C 91 % 1010,7 hPa 0,0 l/m 0,9 km/h (0 Bft) W-NW 301 0 min 0,000 mm 0,0 UV-I 0 W/m 17,8 C 19,3 C 3,2 km/h (1 Bft) 100,00 %
31.07.2016 02:02 19,2 C 91 % 1010,6 hPa 0,0 l/m 4,4 km/h (1 Bft) W-NW 301 0 min 0,000 mm 0,0 UV-I 0 W/m 17,7 C 19,2 C 6,4 km/h (2 Bft) 100,00 %
31.07.2016 02:04 19,2 C 90 % 1010,7 hPa 0,0 l/m 4,6 km/h (1 Bft) W-NW 301 0 min 0,000 mm 0,0 UV-I 0 W/m 17,5 C 19,2 C 4,8 km/h (1 Bft) 100,00 %
31.07.2016 02:06 19,2 C 90 % 1010,7 hPa 0,0 l/m 3,6 km/h (1 Bft) W-NW 294 0 min 0,000 mm 0,0 UV-I 0 W/m 17,5 C 19,2 C 4,8 km/h (1 Bft) 100,00 %
31.07.2016 02:08 19,2 C 90 % 1010,7 hPa 0,0 l/m 2,2 km/h (1 Bft) W-NW 294 0 min 0,000 mm 0,0 UV-I 0 W/m 17,5 C 19,2 C 3,2 km/h (1 Bft) 100,00 %
31.07.2016 02:10 19,2 C 90 % 1010,7 hPa 0,0 l/m 0,1 km/h (0 Bft) W-NW 294 0 min 0,000 mm 0,0 UV-I 0 W/m 17,5 C 19,2 C 1,6 km/h (1 Bft) 100,00 %
31.07.2016 02:12 19,2 C 91 % 1010,7 hPa 0,0 l/m 0,3 km/h (0 Bft) W-NW 294 0 min 0,000 mm 0,0 UV-I 0 W/m 17,7 C 19,2 C 1,6 km/h (1 Bft) 100,00 %
31.07.2016 02:14 19,3 C 91 % 1010,7 hPa 0,0 l/m 0,0 km/h (0 Bft) W-NW 294 0 min 0,000 mm 0,0 UV-I 0 W/m 17,8 C 19,3 C 0,0 km/h (0 Bft) 100,00 %
31.07.2016 02:16 19,2 C 91 % 1010,6 hPa 0,0 l/m 0,9 km/h (0 Bft) W-NW 294 0 min 0,000 mm 0,0 UV-I 0 W/m 17,7 C 19,2 C 3,2 km/h (1 Bft) 100,00 %
31.07.2016 02:18 19,3 C 90 % 1010,7 hPa 0,0 l/m 1,3 km/h (1 Bft) W-NW 294 0 min 0,000 mm 0,0 UV-I 0 W/m 17,6 C 19,3 C 3,2 km/h (1 Bft) 97,87 %
31.07.2016 02:20 19,3 C 90 % 1010,6 hPa 0,0 l/m 2,4 km/h (1 Bft) W-NW 294 0 min 0,000 mm 0,0 UV-I 0 W/m 17,6 C 19,3 C 3,2 km/h (1 Bft) 100,00 %
31.07.2016 02:22 19,3 C 90 % 1010,6 hPa 0,0 l/m 1,8 km/h (1 Bft) W-NW 294 0 min 0,000 mm 0,0 UV-I 0 W/m 17,6 C 19,3 C 3,2 km/h (1 Bft) 96,43 %
31.07.2016 02:24 19,3 C 90 % 1010,7 hPa 0,0 l/m 0,0 km/h (0 Bft) W-NW 294 0 min 0,000 mm 0,0 UV-I 0 W/m 17,6 C 19,3 C 1,6 km/h (1 Bft) 97,37 %
31.07.2016 02:26 19,3 C 89 % 1010,6 hPa 0,0 l/m 0,0 km/h (0 Bft) W-NW 294 0 min 0,000 mm 0,0 UV-I 0 W/m 17,4 C 19,3 C 0,0 km/h (0 Bft) 100,00 %
31.07.2016 02:28 19,4 C 89 % 1010,7 hPa 0,0 l/m 1,0 km/h (0 Bft) W-NW 294 0 min 0,000 mm 0,0 UV-I 0 W/m 17,5 C 19,4 C 3,2 km/h (1 Bft) 100,00 %
31.07.2016 02:30 19,4 C 90 % 1010,7 hPa 0,0 l/m 0,9 km/h (0 Bft) W-NW 294 0 min 0,000 mm 0,0 UV-I 0 W/m 17,7 C 19,4 C 1,6 km/h (1 Bft) 100,00 %
31.07.2016 02:32 19,4 C 90 % 1010,6 hPa 0,0 l/m 1,5 km/h (1 Bft) W-NW 294 0 min 0,000 mm 0,0 UV-I 0 W/m 17,7 C 19,4 C 3,2 km/h (1 Bft) 97,96 %
31.07.2016 02:34 19,3 C 90 % 1010,7 hPa 0,0 l/m 0,0 km/h (0 Bft) W-NW 294 0 min 0,000 mm 0,0 UV-I 0 W/m 17,6 C 19,3 C 0,0 km/h (0 Bft) 100,00 %
31.07.2016 02:36 19,3 C 89 % 1010,6 hPa 0,0 l/m 0,0 km/h (0 Bft) W-NW 294 0 min 0,000 mm 0,0 UV-I 0 W/m 17,4 C 19,3 C 0,0 km/h (0 Bft) 100,00 %
31.07.2016 02:38 19,3 C 89 % 1010,6 hPa 0,0 l/m 0,1 km/h (0 Bft) W-NW 294 0 min 0,000 mm 0,0 UV-I 0 W/m 17,4 C 19,3 C 1,6 km/h (1 Bft) 98,11 %
31.07.2016 02:40 19,3 C 89 % 1010,6 hPa 0,0 l/m 1,6 km/h (1 Bft) W-NW 294 0 min 0,000 mm 0,0 UV-I 0 W/m 17,4 C 19,3 C 3,2 km/h (1 Bft) 100,00 %
31.07.2016 02:42 19,4 C 88 % 1010,6 hPa 0,0 l/m 1,5 km/h (1 Bft) W-NW 294 0 min 0,000 mm 0,0 UV-I 0 W/m 17,4 C 19,4 C 3,2 km/h (1 Bft) 100,00 %
31.07.2016 02:44 19,4 C 88 % 1010,6 hPa 0,0 l/m 0,0 km/h (0 Bft) W-NW 294 0 min 0,000 mm 0,0 UV-I 0 W/m 17,4 C 19,4 C 0,0 km/h (0 Bft) 95,74 %
31.07.2016 02:46 19,4 C 88 % 1010,5 hPa 0,0 l/m 0,0 km/h (0 Bft) W-NW 294 0 min 0,000 mm 0,0 UV-I 0 W/m 17,4 C 19,4 C 0,0 km/h (0 Bft) 98,00 %
31.07.2016 02:48 19,4 C 89 % 1010,5 hPa 0,0 l/m 0,0 km/h (0 Bft) W-NW 294 0 min 0,000 mm 0,0 UV-I 0 W/m 17,5 C 19,4 C 0,0 km/h (0 Bft) 97,87 %
31.07.2016 02:50 19,3 C 89 % 1010,5 hPa 0,0 l/m 0,0 km/h (0 Bft) W-NW 294 0 min 0,000 mm 0,0 UV-I 0 W/m 17,4 C 19,3 C 0,0 km/h (0 Bft) 95,74 %
31.07.2016 02:52 19,2 C 90 % 1010,5 hPa 0,0 l/m 0,2 km/h (0 Bft) W-NW 294 0 min 0,000 mm 0,0 UV-I 0 W/m 17,5 C 19,2 C 1,6 km/h (1 Bft) 96,00 %
31.07.2016 02:54 19,2 C 91 % 1010,5 hPa 0,0 l/m 0,1 km/h (0 Bft) W-NW 294 0 min 0,000 mm 0,0 UV-I 0 W/m 17,7 C 19,2 C 1,6 km/h (1 Bft) 94,74 %
31.07.2016 02:56 19,1 C 91 % 1010,5 hPa 0,0 l/m 0,0 km/h (0 Bft) W-NW 294 0 min 0,000 mm 0,0 UV-I 0 W/m 17,6 C 19,1 C 0,0 km/h (0 Bft) 96,43 %
31.07.2016 02:58 19,0 C 91 % 1010,5 hPa 0,0 l/m 0,0 km/h (0 Bft) W-NW 294 0 min 0,000 mm 0,0 UV-I 0 W/m 17,5 C 19,0 C 1,6 km/h (1 Bft) 97,87 %
31.07.2016 03:00 18,9 C 91 % 1010,5 hPa 0,0 l/m 0,0 km/h (0 Bft) W-NW 294 0 min 0,000 mm 0,0 UV-I 0 W/m 17,4 C 18,9 C 0,0 km/h (0 Bft) 97,87 %
31.07.2016 03:02 18,9 C 91 % 1010,5 hPa 0,0 l/m 0,7 km/h (0 Bft) W-NW 294 0 min 0,000 mm 0,0 UV-I 0 W/m 17,4 C 18,9 C 1,6 km/h (1 Bft) 97,37 %
31.07.2016 03:04 18,9 C 91 % 1010,5 hPa 0,0 l/m 0,2 km/h (0 Bft) W-NW 294 0 min 0,000 mm 0,0 UV-I 0 W/m 17,4 C 18,9 C 1,6 km/h (1 Bft) 98,00 %
31.07.2016 03:06 18,9 C 92 % 1010,5 hPa 0,0 l/m 0,0 km/h (0 Bft) W-NW 294 0 min 0,000 mm 0,0 UV-I 0 W/m 17,6 C 18,9 C 0,0 km/h (0 Bft) 97,44 %
31.07.2016 03:08 19,0 C 91 % 1010,5 hPa 0,0 l/m 0,0 km/h (0 Bft) W-NW 294 0 min 0,000 mm 0,0 UV-I 0 W/m 17,5 C 19,0 C 0,0 km/h (0 Bft) 96,72 %
31.07.2016 03:10 19,0 C 91 % 1010,5 hPa 0,0 l/m 0,0 km/h (0 Bft) W-NW 294 0 min 0,000 mm 0,0 UV-I 0 W/m 17,5 C 19,0 C 0,0 km/h (0 Bft) 97,87 %
31.07.2016 03:12 19,1 C 91 % 1010,5 hPa 0,0 l/m 0,0 km/h (0 Bft) W-NW 294 0 min 0,000 mm 0,0 UV-I 0 W/m 17,6 C 19,1 C 0,0 km/h (0 Bft) 97,87 %
31.07.2016 03:14 19,1 C 91 % 1010,5 hPa 0,0 l/m 0,0 km/h (0 Bft) W-NW 294 0 min 0,000 mm 0,0 UV-I 0 W/m 17,6 C 19,1 C 0,0 km/h (0 Bft) 97,92 %
31.07.2016 03:16 19,1 C 91 % 1010,6 hPa 0,0 l/m 0,0 km/h (0 Bft) W-NW 294 0 min 0,000 mm 0,0 UV-I 0 W/m 17,6 C 19,1 C 0,0 km/h (0 Bft) 97,37 %
31.07.2016 03:18 19,1 C 90 % 1010,6 hPa 0,0 l/m 0,0 km/h (0 Bft) W-NW 294 0 min 0,000 mm 0,0 UV-I 0 W/m 17,4 C 19,1 C 0,0 km/h (0 Bft) 100,00 %
31.07.2016 03:20 19,1 C 90 % 1010,6 hPa 0,0 l/m 0,0 km/h (0 Bft) W-NW 294 0 min 0,000 mm 0,0 UV-I 0 W/m 17,4 C 19,1 C 0,0 km/h (0 Bft) 100,00 %
31.07.2016 03:22 19,1 C 91 % 1010,6 hPa 0,0 l/m 0,0 km/h (0 Bft) W-NW 294 0 min 0,000 mm 0,0 UV-I 0 W/m 17,6 C 19,1 C 0,0 km/h (0 Bft) 100,00 %
31.07.2016 03:24 19,0 C 91 % 1010,5 hPa 0,0 l/m 0,0 km/h (0 Bft) W-NW 294 0 min 0,000 mm 0,0 UV-I 0 W/m 17,5 C 19,0 C 0,0 km/h (0 Bft) 98,00 %
31.07.2016 03:26 19,0 C 91 % 1010,5 hPa 0,0 l/m 0,0 km/h (0 Bft) W-NW 294 0 min 0,000 mm 0,0 UV-I 0 W/m 17,5 C 19,0 C 0,0 km/h (0 Bft) 97,87 %
31.07.2016 03:28 19,1 C 91 % 1010,5 hPa 0,0 l/m 0,0 km/h (0 Bft) W-NW 294 0 min 0,000 mm 0,0 UV-I 0 W/m 17,6 C 19,1 C 0,0 km/h (0 Bft) 100,00 %
31.07.2016 03:30 19,1 C 91 % 1010,4 hPa 0,0 l/m 1,3 km/h (1 Bft) W-NW 294 0 min 0,000 mm 0,0 UV-I 0 W/m 17,6 C 19,1 C 3,2 km/h (1 Bft) 100,00 %
31.07.2016 03:32 19,1 C 91 % 1010,4 hPa 0,0 l/m 3,0 km/h (1 Bft) W-NW 294 0 min 0,000 mm 0,0 UV-I 0 W/m 17,6 C 19,1 C 3,2 km/h (1 Bft) 100,00 %
31.07.2016 03:34 19,0 C 91 % 1010,3 hPa 0,0 l/m 2,9 km/h (1 Bft) W-NW 294 0 min 0,000 mm 0,0 UV-I 0 W/m 17,5 C 19,0 C 4,8 km/h (1 Bft) 100,00 %
31.07.2016 03:36 19,0 C 91 % 1010,3 hPa 0,0 l/m 1,5 km/h (1 Bft) W-NW 294 0 min 0,000 mm 0,0 UV-I 0 W/m 17,5 C 19,0 C 3,2 km/h (1 Bft) 98,00 %
31.07.2016 03:38 18,9 C 91 % 1010,3 hPa 0,0 l/m 0,0 km/h (0 Bft) W-NW 294 0 min 0,000 mm 0,0 UV-I 0 W/m 17,4 C 18,9 C 0,0 km/h (0 Bft) 100,00 %
31.07.2016 03:40 18,9 C 91 % 1010,3 hPa 0,0 l/m 0,0 km/h (0 Bft) W-NW 294 0 min 0,000 mm 0,0 UV-I 0 W/m 17,4 C 18,9 C 0,0 km/h (0 Bft) 100,00 %
31.07.2016 03:42 18,9 C 91 % 1010,2 hPa 0,0 l/m 0,4 km/h (0 Bft) W-NW 294 0 min 0,000 mm 0,0 UV-I 0 W/m 17,4 C 18,9 C 1,6 km/h (1 Bft) 97,87 %
31.07.2016 03:44 18,9 C 91 % 1010,2 hPa 0,0 l/m 0,0 km/h (0 Bft) W-NW 294 0 min 0,000 mm 0,0 UV-I 0 W/m 17,4 C 18,9 C 0,0 km/h (0 Bft) 100,00 %
31.07.2016 03:46 18,9 C 91 % 1010,2 hPa 0,0 l/m 0,0 km/h (0 Bft) W-NW 294 0 min 0,000 mm 0,0 UV-I 0 W/m 17,4 C 18,9 C 0,0 km/h (0 Bft) 100,00 %
31.07.2016 03:48 18,9 C 91 % 1010,1 hPa 0,0 l/m 0,5 km/h (0 Bft) W-NW 294 0 min 0,000 mm 0,0 UV-I 0 W/m 17,4 C 18,9 C 3,2 km/h (1 Bft) 100,00 %
31.07.2016 03:50 18,9 C 91 % 1010,0 hPa 0,0 l/m 2,7 km/h (1 Bft) W-NW 294 0 min 0,000 mm 0,0 UV-I 0 W/m 17,4 C 18,9 C 3,2 km/h (1 Bft) 98,00 %
31.07.2016 03:52 18,8 C 91 % 1010,0 hPa 0,0 l/m 3,4 km/h (1 Bft) N 350 0 min 0,000 mm 0,0 UV-I 0 W/m 17,3 C 18,8 C 4,8 km/h (1 Bft) 100,00 %
31.07.2016 03:54 18,8 C 91 % 1010,1 hPa 0,0 l/m 2,5 km/h (1 Bft) N 350 0 min 0,000 mm 0,0 UV-I 0 W/m 17,3 C 18,8 C 4,8 km/h (1 Bft) 100,00 %
31.07.2016 03:56 18,8 C 91 % 1010,0 hPa 0,0 l/m 0,0 km/h (0 Bft) N 350 0 min 0,000 mm 0,0 UV-I 0 W/m 17,3 C 18,8 C 1,6 km/h (1 Bft) 100,00 %
31.07.2016 03:58 18,7 C 91 % 1010,1 hPa 0,0 l/m 1,1 km/h (1 Bft) N 350 0 min 0,000 mm 0,0 UV-I 0 W/m 17,2 C 18,7 C 3,2 km/h (1 Bft) 100,00 %
31.07.2016 04:00 18,7 C 91 % 1010,1 hPa 0,0 l/m 1,8 km/h (1 Bft) N 350 0 min 0,000 mm 0,0 UV-I 0 W/m 17,2 C 18,7 C 3,2 km/h (1 Bft) 98,00 %
31.07.2016 04:02 18,7 C 91 % 1010,1 hPa 0,0 l/m 1,0 km/h (0 Bft) N 350 0 min 0,000 mm 0,0 UV-I 0 W/m 17,2 C 18,7 C 3,2 km/h (1 Bft) 100,00 %
31.07.2016 04:04 18,7 C 91 % 1010,1 hPa 0,0 l/m 0,0 km/h (0 Bft) N 350 0 min 0,000 mm 0,0 UV-I 0 W/m 17,2 C 18,7 C 0,0 km/h (0 Bft) 97,87 %
31.07.2016 04:06 18,7 C 91 % 1010,1 hPa 0,0 l/m 0,0 km/h (0 Bft) N 350 0 min 0,000 mm 0,0 UV-I 0 W/m 17,2 C 18,7 C 1,6 km/h (1 Bft) 100,00 %
31.07.2016 04:08 18,7 C 91 % 1010,2 hPa 0,0 l/m 0,0 km/h (0 Bft) N 350 0 min 0,000 mm 0,0 UV-I 0 W/m 17,2 C 18,7 C 0,0 km/h (0 Bft) 100,00 %
31.07.2016 04:10 18,7 C 91 % 1010,2 hPa 0,0 l/m 0,2 km/h (0 Bft) N 350 0 min 0,000 mm 0,0 UV-I 0 W/m 17,2 C 18,7 C 1,6 km/h (1 Bft) 100,00 %
31.07.2016 04:12 18,7 C 91 % 1010,2 hPa 0,0 l/m 1,4 km/h (1 Bft) N 350 0 min 0,000 mm 0,0 UV-I 0 W/m 17,2 C 18,7 C 3,2 km/h (1 Bft) 97,87 %
31.07.2016 04:14 18,6 C 91 % 1010,2 hPa 0,0 l/m 1,9 km/h (1 Bft) N 350 0 min 0,000 mm 0,0 UV-I 0 W/m 17,1 C 18,6 C 3,2 km/h (1 Bft) 100,00 %
31.07.2016 04:16 18,6 C 91 % 1010,2 hPa 0,0 l/m 0,6 km/h (0 Bft) N 350 0 min 0,000 mm 0,0 UV-I 0 W/m 17,1 C 18,6 C 1,6 km/h (1 Bft) 100,00 %
31.07.2016 04:18 18,6 C 91 % 1010,3 hPa 0,0 l/m 0,0 km/h (0 Bft) N 350 0 min 0,000 mm 0,0 UV-I 0 W/m 17,1 C 18,6 C 0,0 km/h (0 Bft) 100,00 %
31.07.2016 04:20 18,6 C 91 % 1010,2 hPa 0,0 l/m 0,7 km/h (0 Bft) N 350 0 min 0,000 mm 0,0 UV-I 0 W/m 17,1 C 18,6 C 1,6 km/h (1 Bft) 100,00 %
31.07.2016 04:22 18,5 C 90 % 1010,2 hPa 0,0 l/m 1,1 km/h (1 Bft) N 350 0 min 0,000 mm 0,0 UV-I 0 W/m 16,8 C 18,5 C 1,6 km/h (1 Bft) 100,00 %
31.07.2016 04:24 18,4 C 91 % 1010,2 hPa 0,0 l/m 0,9 km/h (0 Bft) N 350 0 min 0,000 mm 0,0 UV-I 0 W/m 16,9 C 18,4 C 1,6 km/h (1 Bft) 100,00 %
31.07.2016 04:26 18,4 C 91 % 1010,2 hPa 0,0 l/m 0,3 km/h (0 Bft) N 350 0 min 0,000 mm 0,0 UV-I 0 W/m 16,9 C 18,4 C 1,6 km/h (1 Bft) 100,00 %
31.07.2016 04:28 18,4 C 90 % 1010,3 hPa 0,0 l/m 0,6 km/h (0 Bft) N 350 0 min 0,000 mm 0,0 UV-I 0 W/m 16,7 C 18,4 C 1,6 km/h (1 Bft) 100,00 %
31.07.2016 04:30 18,4 C 91 % 1010,3 hPa 0,0 l/m 0,0 km/h (0 Bft) N 350 0 min 0,000 mm 0,0 UV-I 0 W/m 16,9 C 18,4 C 0,0 km/h (0 Bft) 100,00 %
31.07.2016 04:32 18,3 C 91 % 1010,3 hPa 0,0 l/m 0,0 km/h (0 Bft) N 350 0 min 0,000 mm 0,0 UV-I 0 W/m 16,8 C 18,3 C 0,0 km/h (0 Bft) 100,00 %
31.07.2016 04:34 18,4 C 92 % 1010,3 hPa 0,0 l/m 0,0 km/h (0 Bft) N 350 0 min 0,000 mm 0,0 UV-I 0 W/m 17,1 C 18,4 C 0,0 km/h (0 Bft) 100,00 %
31.07.2016 04:36 18,3 C 92 % 1010,3 hPa 0,0 l/m 0,0 km/h (0 Bft) N 350 0 min 0,000 mm 0,0 UV-I 0 W/m 17,0 C 18,3 C 0,0 km/h (0 Bft) 100,00 %
31.07.2016 04:38 18,3 C 92 % 1010,3 hPa 0,0 l/m 0,5 km/h (0 Bft) N 350 0 min 0,000 mm 0,0 UV-I 0 W/m 17,0 C 18,3 C 1,6 km/h (1 Bft) 100,00 %
31.07.2016 04:40 18,2 C 91 % 1010,2 hPa 0,0 l/m 0,5 km/h (0 Bft) N 350 0 min 0,000 mm 0,0 UV-I 0 W/m 16,7 C 18,2 C 1,6 km/h (1 Bft) 96,30 %
31.07.2016 04:42 18,2 C 91 % 1010,2 hPa 0,0 l/m 0,1 km/h (0 Bft) N 350 0 min 0,000 mm 0,0 UV-I 0 W/m 16,7 C 18,2 C 1,6 km/h (1 Bft) 98,11 %
31.07.2016 04:44 18,2 C 92 % 1010,2 hPa 0,0 l/m 0,2 km/h (0 Bft) N 350 0 min 0,000 mm 0,0 UV-I 0 W/m 16,9 C 18,2 C 1,6 km/h (1 Bft) 97,87 %
31.07.2016 04:46 18,2 C 92 % 1010,2 hPa 0,0 l/m 0,0 km/h (0 Bft) N 350 0 min 0,000 mm 0,0 UV-I 0 W/m 16,9 C 18,2 C 0,0 km/h (0 Bft) 98,00 %
31.07.2016 04:48 18,1 C 92 % 1010,2 hPa 0,0 l/m 0,0 km/h (0 Bft) N 350 0 min 0,000 mm 0,0 UV-I 0 W/m 16,8 C 18,1 C 0,0 km/h (0 Bft) 95,12 %
31.07.2016 04:50 18,1 C 92 % 1010,2 hPa 0,0 l/m 0,4 km/h (0 Bft) N 350 0 min 0,000 mm 0,0 UV-I 0 W/m 16,8 C 18,1 C 1,6 km/h (1 Bft) 97,87 %
31.07.2016 04:52 18,1 C 92 % 1010,1 hPa 0,0 l/m 0,4 km/h (0 Bft) N 350 0 min 0,000 mm 0,0 UV-I 0 W/m 16,8 C 18,1 C 1,6 km/h (1 Bft) 96,00 %
31.07.2016 04:54 18,0 C 92 % 1010,2 hPa 0,0 l/m 0,0 km/h (0 Bft) N 350 0 min 0,000 mm 0,0 UV-I 0 W/m 16,7 C 18,0 C 0,0 km/h (0 Bft) 98,00 %
31.07.2016 04:56 18,0 C 92 % 1010,1 hPa 0,0 l/m 0,1 km/h (0 Bft) N 350 0 min 0,000 mm 0,0 UV-I 0 W/m 16,7 C 18,0 C 1,6 km/h (1 Bft) 97,14 %
31.07.2016 04:58 18,0 C 92 % 1010,2 hPa 0,0 l/m 0,0 km/h (0 Bft) N 350 0 min 0,000 mm 0,0 UV-I 0 W/m 16,7 C 18,0 C 0,0 km/h (0 Bft) 94,92 %
31.07.2016 05:00 17,9 C 92 % 1010,1 hPa 0,0 l/m 0,0 km/h (0 Bft) N 350 0 min 0,000 mm 0,0 UV-I 0 W/m 16,6 C 17,9 C 0,0 km/h (0 Bft) 97,37 %
31.07.2016 05:02 17,9 C 92 % 1010,1 hPa 0,0 l/m 0,0 km/h (0 Bft) N 350 0 min 0,000 mm 0,0 UV-I 0 W/m 16,6 C 17,9 C 0,0 km/h (0 Bft) 97,87 %
31.07.2016 05:04 17,8 C 92 % 1010,1 hPa 0,0 l/m 0,0 km/h (0 Bft) N 350 0 min 0,000 mm 0,0 UV-I 0 W/m 16,5 C 17,8 C 0,0 km/h (0 Bft) 97,87 %
31.07.2016 05:06 17,8 C 92 % 1010,0 hPa 0,0 l/m 0,0 km/h (0 Bft) N 350 0 min 0,000 mm 0,0 UV-I 0 W/m 16,5 C 17,8 C 0,0 km/h (0 Bft) 95,83 %
31.07.2016 05:08 17,8 C 92 % 1010,1 hPa 0,0 l/m 1,0 km/h (0 Bft) N 350 0 min 0,000 mm 0,0 UV-I 0 W/m 16,5 C 17,8 C 1,6 km/h (1 Bft) 98,08 %
31.07.2016 05:10 17,7 C 92 % 1010,0 hPa 0,0 l/m 0,0 km/h (0 Bft) N 350 0 min 0,000 mm 0,0 UV-I 0 W/m 16,4 C 17,7 C 0,0 km/h (0 Bft) 97,44 %
31.07.2016 05:12 17,7 C 92 % 1010,0 hPa 0,0 l/m 1,2 km/h (1 Bft) N 350 0 min 0,000 mm 0,0 UV-I 0 W/m 16,4 C 17,7 C 1,6 km/h (1 Bft) 94,34 %
31.07.2016 05:14 17,7 C 92 % 1010,0 hPa 0,0 l/m 0,0 km/h (0 Bft) N 350 0 min 0,000 mm 0,0 UV-I 0 W/m 16,4 C 17,7 C 1,6 km/h (1 Bft) 98,00 %
31.07.2016 05:16 17,7 C 92 % 1010,1 hPa 0,0 l/m 0,3 km/h (0 Bft) N 350 0 min 0,000 mm 0,0 UV-I 0 W/m 16,4 C 17,7 C 1,6 km/h (1 Bft) 100,00 %
31.07.2016 05:18 17,7 C 92 % 1010,0 hPa 0,0 l/m 0,9 km/h (0 Bft) N 350 0 min 0,000 mm 0,0 UV-I 0 W/m 16,4 C 17,7 C 3,2 km/h (1 Bft) 97,87 %
31.07.2016 05:20 17,7 C 92 % 1010,0 hPa 0,0 l/m 0,0 km/h (0 Bft) N 350 0 min 0,000 mm 0,0 UV-I 0 W/m 16,4 C 17,7 C 0,0 km/h (0 Bft) 100,00 %
31.07.2016 05:22 17,6 C 92 % 1009,9 hPa 0,0 l/m 0,6 km/h (0 Bft) N 350 0 min 0,000 mm 0,0 UV-I 0 W/m 16,3 C 17,6 C 1,6 km/h (1 Bft) 97,56 %
31.07.2016 05:24 17,6 C 92 % 1009,9 hPa 0,0 l/m 1,1 km/h (1 Bft) N 350 0 min 0,000 mm 0,0 UV-I 0 W/m 16,3 C 17,6 C 3,2 km/h (1 Bft) 97,87 %
31.07.2016 05:26 17,6 C 92 % 1009,9 hPa 0,0 l/m 1,4 km/h (1 Bft) N 350 0 min 0,000 mm 0,0 UV-I 0 W/m 16,3 C 17,6 C 3,2 km/h (1 Bft) 100,00 %
31.07.2016 05:28 17,6 C 92 % 1009,8 hPa 0,0 l/m 1,9 km/h (1 Bft) N 350 0 min 0,000 mm 0,0 UV-I 0 W/m 16,3 C 17,6 C 3,2 km/h (1 Bft) 98,18 %
31.07.2016 05:30 17,6 C 92 % 1009,8 hPa 0,0 l/m 1,5 km/h (1 Bft) N 350 0 min 0,000 mm 0,0 UV-I 0 W/m 16,3 C 17,6 C 3,2 km/h (1 Bft) 100,00 %
31.07.2016 05:32 17,6 C 92 % 1009,8 hPa 0,0 l/m 1,3 km/h (1 Bft) N 350 0 min 0,000 mm 0,0 UV-I 0 W/m 16,3 C 17,6 C 3,2 km/h (1 Bft) 97,14 %
31.07.2016 05:34 17,6 C 92 % 1009,8 hPa 0,0 l/m 0,2 km/h (0 Bft) N 350 0 min 0,000 mm 0,0 UV-I 0 W/m 16,3 C 17,6 C 3,2 km/h (1 Bft) 98,11 %
31.07.2016 05:36 17,6 C 92 % 1009,8 hPa 0,0 l/m 0,2 km/h (0 Bft) N 350 0 min 0,000 mm 0,0 UV-I 0 W/m 16,3 C 17,6 C 1,6 km/h (1 Bft) 100,00 %
31.07.2016 05:38 17,7 C 93 % 1009,8 hPa 0,0 l/m 0,0 km/h (0 Bft) N 350 0 min 0,000 mm 0,0 UV-I 0 W/m 16,6 C 17,7 C 0,0 km/h (0 Bft) 100,00 %
31.07.2016 05:40 17,7 C 93 % 1009,9 hPa 0,0 l/m 1,0 km/h (0 Bft) N 350 0 min 0,000 mm 0,0 UV-I 0 W/m 16,6 C 17,7 C 3,2 km/h (1 Bft) 100,00 %
31.07.2016 05:42 17,7 C 92 % 1009,9 hPa 0,0 l/m 1,9 km/h (1 Bft) N 350 0 min 0,000 mm 0,0 UV-I 3 W/m 16,4 C 17,7 C 3,2 km/h (1 Bft) 100,00 %
31.07.2016 05:44 17,7 C 92 % 1009,9 hPa 0,0 l/m 1,2 km/h (1 Bft) N 350 0 min 0,000 mm 0,0 UV-I 5 W/m 16,4 C 17,7 C 1,6 km/h (1 Bft) 97,87 %
31.07.2016 05:46 17,6 C 92 % 1009,9 hPa 0,0 l/m 0,1 km/h (0 Bft) N 350 0 min 0,000 mm 0,0 UV-I 5 W/m 16,3 C 17,6 C 1,6 km/h (1 Bft) 100,00 %
31.07.2016 05:48 17,4 C 91 % 1009,9 hPa 0,0 l/m 0,0 km/h (0 Bft) N 350 0 min 0,000 mm 0,0 UV-I 6 W/m 15,9 C 17,4 C 0,0 km/h (0 Bft) 100,00 %
31.07.2016 05:50 17,3 C 92 % 1009,9 hPa 0,0 l/m 0,0 km/h (0 Bft) N 350 0 min 0,000 mm 0,0 UV-I 7 W/m 16,0 C 17,3 C 0,0 km/h (0 Bft) 97,87 %
31.07.2016 05:52 17,3 C 93 % 1009,9 hPa 0,0 l/m 0,0 km/h (0 Bft) N 350 0 min 0,000 mm 0,0 UV-I 9 W/m 16,2 C 17,3 C 0,0 km/h (0 Bft) 100,00 %
31.07.2016 05:54 17,3 C 93 % 1009,9 hPa 0,0 l/m 0,0 km/h (0 Bft) N 350 0 min 0,000 mm 0,0 UV-I 9 W/m 16,2 C 17,3 C 0,0 km/h (0 Bft) 100,00 %
31.07.2016 05:56 17,3 C 93 % 1009,9 hPa 0,0 l/m 0,6 km/h (0 Bft) N 350 0 min 0,000 mm 0,0 UV-I 11 W/m 16,2 C 17,3 C 1,6 km/h (1 Bft) 100,00 %
31.07.2016 05:58 17,3 C 93 % 1009,9 hPa 0,0 l/m 1,1 km/h (1 Bft) N 350 0 min 0,000 mm 0,0 UV-I 12 W/m 16,2 C 17,3 C 1,6 km/h (1 Bft) 100,00 %
31.07.2016 06:00 17,4 C 93 % 1009,9 hPa 0,0 l/m 1,3 km/h (1 Bft) N 350 0 min 0,000 mm 0,0 UV-I 15 W/m 16,3 C 17,4 C 3,2 km/h (1 Bft) 100,00 %
31.07.2016 06:02 17,4 C 93 % 1009,9 hPa 0,0 l/m 0,3 km/h (0 Bft) N 350 0 min 0,000 mm 0,0 UV-I 18 W/m 16,3 C 17,4 C 3,2 km/h (1 Bft) 100,00 %
31.07.2016 06:04 17,5 C 93 % 1010,0 hPa 0,0 l/m 1,2 km/h (1 Bft) N 350 0 min 0,000 mm 0,0 UV-I 19 W/m 16,4 C 17,5 C 1,6 km/h (1 Bft) 100,00 %
31.07.2016 06:06 17,6 C 93 % 1009,8 hPa 0,0 l/m 0,1 km/h (0 Bft) N 350 0 min 0,000 mm 0,0 UV-I 20 W/m 16,5 C 17,6 C 1,6 km/h (1 Bft) 100,00 %
31.07.2016 06:08 17,6 C 93 % 1009,8 hPa 0,0 l/m 0,0 km/h (0 Bft) N 350 0 min 0,000 mm 0,0 UV-I 21 W/m 16,5 C 17,6 C 0,0 km/h (0 Bft) 100,00 %
31.07.2016 06:10 17,6 C 93 % 1009,8 hPa 0,0 l/m 3,0 km/h (1 Bft) N 360 0 min 0,000 mm 0,0 UV-I 22 W/m 16,5 C 17,6 C 4,8 km/h (1 Bft) 100,00 %
31.07.2016 06:12 17,6 C 93 % 1009,8 hPa 0,0 l/m 4,7 km/h (1 Bft) O-NO 65 0 min 0,000 mm 0,0 UV-I 23 W/m 16,5 C 17,6 C 8,0 km/h (2 Bft) 100,00 %
31.07.2016 06:14 17,8 C 94 % 1009,8 hPa 0,0 l/m 4,7 km/h (1 Bft) O-NO 73 0 min 0,000 mm 0,0 UV-I 24 W/m 16,8 C 17,8 C 6,4 km/h (2 Bft) 100,00 %
31.07.2016 06:16 17,9 C 93 % 1009,6 hPa 0,0 l/m 5,7 km/h (1 Bft) O 85 0 min 0,000 mm 0,0 UV-I 25 W/m 16,8 C 17,9 C 8,0 km/h (2 Bft) 100,00 %
31.07.2016 06:18 18,1 C 93 % 1009,6 hPa 0,0 l/m 5,9 km/h (2 Bft) O-NO 74 0 min 0,000 mm 0,0 UV-I 25 W/m 16,9 C 18,1 C 8,0 km/h (2 Bft) 100,00 %
31.07.2016 06:20 18,3 C 92 % 1009,5 hPa 0,0 l/m 7,6 km/h (2 Bft) O 97 0 min 0,000 mm 0,0 UV-I 26 W/m 17,0 C 17,7 C 11,3 km/h (2 Bft) 100,00 %
31.07.2016 06:22 18,4 C 92 % 1009,5 hPa 0,0 l/m 7,0 km/h (2 Bft) O-NO 76 0 min 0,000 mm 0,0 UV-I 26 W/m 17,1 C 18,1 C 11,3 km/h (2 Bft) 97,44 %
31.07.2016 06:24 18,6 C 91 % 1009,5 hPa 0,0 l/m 4,6 km/h (1 Bft) O 82 0 min 0,000 mm 0,0 UV-I 26 W/m 17,1 C 18,6 C 6,4 km/h (2 Bft) 100,00 %
31.07.2016 06:26 18,8 C 90 % 1009,6 hPa 0,0 l/m 6,7 km/h (2 Bft) O 94 0 min 0,000 mm 0,0 UV-I 26 W/m 17,1 C 18,7 C 11,3 km/h (2 Bft) 100,00 %
31.07.2016 06:28 19,0 C 89 % 1009,5 hPa 0,0 l/m 7,8 km/h (2 Bft) O-NO 78 0 min 0,000 mm 0,0 UV-I 26 W/m 17,1 C 18,4 C 11,3 km/h (2 Bft) 100,00 %
31.07.2016 06:30 19,1 C 89 % 1009,5 hPa 0,0 l/m 8,5 km/h (2 Bft) O 85 0 min 0,000 mm 0,0 UV-I 26 W/m 17,2 C 18,2 C 11,3 km/h (2 Bft) 97,56 %
31.07.2016 06:32 19,2 C 88 % 1009,5 hPa 0,0 l/m 7,0 km/h (2 Bft) O-SO 121 0 min 0,000 mm 0,0 UV-I 28 W/m 17,2 C 18,9 C 12,9 km/h (3 Bft) 100,00 %
31.07.2016 06:34 19,2 C 88 % 1009,5 hPa 0,0 l/m 8,0 km/h (2 Bft) O-SO 103 0 min 0,000 mm 0,0 UV-I 30 W/m 17,2 C 18,5 C 14,5 km/h (3 Bft) 100,00 %
31.07.2016 06:36 19,3 C 88 % 1009,4 hPa 0,0 l/m 8,2 km/h (2 Bft) O-NO 78 0 min 0,000 mm 0,0 UV-I 32 W/m 17,3 C 18,5 C 12,9 km/h (3 Bft) 100,00 %
31.07.2016 06:38 19,3 C 88 % 1009,5 hPa 0,0 l/m 8,3 km/h (2 Bft) O 93 0 min 0,000 mm 0,0 UV-I 33 W/m 17,3 C 18,5 C 12,9 km/h (3 Bft) 100,00 %
31.07.2016 06:40 19,3 C 88 % 1009,6 hPa 0,0 l/m 8,4 km/h (2 Bft) O 99 0 min 0,000 mm 0,0 UV-I 33 W/m 17,3 C 18,5 C 12,9 km/h (3 Bft) 98,00 %
31.07.2016 06:42 19,3 C 88 % 1009,5 hPa 0,0 l/m 5,7 km/h (1 Bft) O 94 0 min 0,000 mm 0,0 UV-I 36 W/m 17,3 C 19,3 C 9,7 km/h (2 Bft) 100,00 %
31.07.2016 06:44 19,4 C 87 % 1009,6 hPa 0,0 l/m 4,8 km/h (1 Bft) O 98 0 min 0,000 mm 0,0 UV-I 39 W/m 17,2 C 19,4 C 9,7 km/h (2 Bft) 98,00 %
31.07.2016 06:46 19,4 C 87 % 1009,6 hPa 0,0 l/m 3,2 km/h (1 Bft) O-NO 68 0 min 0,000 mm 0,0 UV-I 40 W/m 17,2 C 19,4 C 4,8 km/h (1 Bft) 94,74 %
31.07.2016 06:48 19,4 C 88 % 1009,6 hPa 0,0 l/m 0,3 km/h (0 Bft) O-NO 68 0 min 0,000 mm 0,0 UV-I 42 W/m 17,4 C 19,4 C 1,6 km/h (1 Bft) 98,00 %
31.07.2016 06:50 19,3 C 88 % 1009,7 hPa 0,0 l/m 0,4 km/h (0 Bft) O-NO 68 0 min 0,000 mm 0,0 UV-I 44 W/m 17,3 C 19,3 C 1,6 km/h (1 Bft) 96,00 %
31.07.2016 06:52 19,3 C 89 % 1009,8 hPa 0,0 l/m 0,0 km/h (0 Bft) O-NO 68 0 min 0,000 mm 0,0 UV-I 48 W/m 17,4 C 19,3 C 0,0 km/h (0 Bft) 93,75 %
31.07.2016 06:54 19,2 C 89 % 1009,8 hPa 0,0 l/m 0,0 km/h (0 Bft) O-NO 68 0 min 0,000 mm 0,0 UV-I 74 W/m 17,3 C 19,2 C 1,6 km/h (1 Bft) 95,74 %
31.07.2016 06:56 19,1 C 89 % 1009,8 hPa 0,0 l/m 0,0 km/h (0 Bft) O-NO 68 0 min 0,000 mm 0,0 UV-I 91 W/m 17,2 C 19,1 C 0,0 km/h (0 Bft) 95,74 %
31.07.2016 06:58 19,1 C 90 % 1009,8 hPa 0,0 l/m 0,0 km/h (0 Bft) O-NO 68 0 min 0,000 mm 0,0 UV-I 90 W/m 17,4 C 19,1 C 0,0 km/h (0 Bft) 97,87 %
31.07.2016 07:00 19,1 C 90 % 1009,8 hPa 0,0 l/m 0,0 km/h (0 Bft) O-NO 68 2 min 0,025 mm 0,0 UV-I 119 W/m 17,4 C 19,1 C 0,0 km/h (0 Bft) 97,73 %
31.07.2016 07:02 19,2 C 90 % 1009,7 hPa 0,0 l/m 0,1 km/h (0 Bft) O-NO 68 0 min 0,000 mm 0,0 UV-I 113 W/m 17,5 C 19,2 C 1,6 km/h (1 Bft) 97,50 %
31.07.2016 07:04 19,2 C 90 % 1009,7 hPa 0,0 l/m 0,0 km/h (0 Bft) O-NO 68 0 min 0,000 mm 0,0 UV-I 108 W/m 17,5 C 19,2 C 0,0 km/h (0 Bft) 97,87 %
31.07.2016 07:06 19,2 C 91 % 1009,7 hPa 0,0 l/m 0,0 km/h (0 Bft) O-NO 68 0 min 0,000 mm 0,0 UV-I 116 W/m 17,7 C 19,2 C 1,6 km/h (1 Bft) 96,00 %
31.07.2016 07:08 19,3 C 91 % 1009,7 hPa 0,0 l/m 0,7 km/h (0 Bft) O-NO 68 0 min 0,000 mm 0,0 UV-I 105 W/m 17,8 C 19,3 C 1,6 km/h (1 Bft) 98,11 %
31.07.2016 07:10 19,3 C 90 % 1009,6 hPa 0,0 l/m 1,8 km/h (1 Bft) O-NO 68 0 min 0,000 mm 0,0 UV-I 106 W/m 17,6 C 19,3 C 3,2 km/h (1 Bft) 95,74 %
31.07.2016 07:12 19,4 C 89 % 1009,6 hPa 0,0 l/m 3,5 km/h (1 Bft) O-NO 68 0 min 0,000 mm 0,0 UV-I 125 W/m 17,5 C 19,4 C 4,8 km/h (1 Bft) 100,00 %
31.07.2016 07:14 19,5 C 89 % 1009,6 hPa 0,0 l/m 2,6 km/h (1 Bft) O-NO 68 2 min 0,000 mm 0,0 UV-I 139 W/m 17,6 C 19,5 C 4,8 km/h (1 Bft) 95,45 %
31.07.2016 07:16 19,6 C 89 % 1009,6 hPa 0,0 l/m 1,6 km/h (1 Bft) O-NO 68 0 min 0,000 mm 0,0 UV-I 133 W/m 17,7 C 19,6 C 3,2 km/h (1 Bft) 96,00 %
31.07.2016 07:18 19,7 C 90 % 1009,6 hPa 0,0 l/m 1,9 km/h (1 Bft) O-NO 68 0 min 0,000 mm 0,0 UV-I 137 W/m 18,0 C 19,7 C 3,2 km/h (1 Bft) 96,00 %
31.07.2016 07:20 19,8 C 89 % 1009,6 hPa 0,0 l/m 2,1 km/h (1 Bft) O-NO 68 0 min 0,000 mm 0,0 UV-I 132 W/m 17,9 C 19,8 C 3,2 km/h (1 Bft) 100,00 %
31.07.2016 07:22 20,0 C 89 % 1009,6 hPa 0,0 l/m 3,0 km/h (1 Bft) O-NO 68 0 min 0,000 mm 0,0 UV-I 138 W/m 18,1 C 20,0 C 4,8 km/h (1 Bft) 95,74 %
31.07.2016 07:24 20,1 C 88 % 1009,6 hPa 0,0 l/m 3,3 km/h (1 Bft) O-NO 68 2 min 0,000 mm 0,0 UV-I 156 W/m 18,0 C 20,1 C 4,8 km/h (1 Bft) 100,00 %
31.07.2016 07:26 20,1 C 87 % 1009,6 hPa 0,0 l/m 3,8 km/h (1 Bft) O-NO 67 2 min 0,000 mm 0,0 UV-I 155 W/m 17,9 C 20,1 C 4,8 km/h (1 Bft) 100,00 %
31.07.2016 07:28 20,2 C 87 % 1009,5 hPa 0,0 l/m 4,3 km/h (1 Bft) O-NO 63 2 min 0,000 mm 0,0 UV-I 167 W/m 18,0 C 20,2 C 6,4 km/h (2 Bft) 98,00 %
31.07.2016 07:30 20,3 C 87 % 1009,5 hPa 0,0 l/m 3,9 km/h (1 Bft) O-NO 62 0 min 0,000 mm 0,0 UV-I 148 W/m 18,1 C 20,3 C 4,8 km/h (1 Bft) 100,00 %
31.07.2016 07:32 20,3 C 86 % 1009,5 hPa 0,0 l/m 3,3 km/h (1 Bft) O-NO 59 2 min 0,000 mm 0,2 UV-I 160 W/m 17,9 C 20,3 C 4,8 km/h (1 Bft) 97,87 %
31.07.2016 07:34 20,3 C 87 % 1009,5 hPa 0,0 l/m 3,4 km/h (1 Bft) O-NO 59 2 min 0,000 mm 0,5 UV-I 191 W/m 18,1 C 20,3 C 4,8 km/h (1 Bft) 100,00 %
31.07.2016 07:36 20,5 C 88 % 1009,5 hPa 0,0 l/m 3,4 km/h (1 Bft) O-NO 58 2 min 0,000 mm 0,5 UV-I 204 W/m 18,4 C 20,5 C 4,8 km/h (1 Bft) 95,74 %
31.07.2016 07:38 20,6 C 88 % 1009,5 hPa 0,0 l/m 2,2 km/h (1 Bft) NO 54 2 min 0,000 mm 0,5 UV-I 174 W/m 18,5 C 20,6 C 4,8 km/h (1 Bft) 95,74 %
31.07.2016 07:40 20,7 C 88 % 1009,6 hPa 0,0 l/m 2,0 km/h (1 Bft) NO 34 2 min 0,000 mm 0,5 UV-I 201 W/m 18,6 C 20,7 C 4,8 km/h (1 Bft) 100,00 %
31.07.2016 07:42 20,7 C 87 % 1009,5 hPa 0,0 l/m 1,2 km/h (1 Bft) N-NO 24 2 min 0,000 mm 0,6 UV-I 218 W/m 18,5 C 20,7 C 3,2 km/h (1 Bft) 100,00 %
31.07.2016 07:44 20,7 C 87 % 1009,5 hPa 0,0 l/m 2,5 km/h (1 Bft) N-NO 26 2 min 0,000 mm 0,6 UV-I 236 W/m 18,5 C 20,7 C 6,4 km/h (2 Bft) 100,00 %
31.07.2016 07:46 20,8 C 87 % 1009,5 hPa 0,0 l/m 4,1 km/h (1 Bft) N-NO 30 2 min 0,000 mm 0,6 UV-I 241 W/m 18,6 C 20,8 C 4,8 km/h (1 Bft) 100,00 %
31.07.2016 07:48 20,8 C 86 % 1009,5 hPa 0,0 l/m 4,2 km/h (1 Bft) NO 46 2 min 0,000 mm 0,6 UV-I 247 W/m 18,4 C 20,8 C 4,8 km/h (1 Bft) 100,00 %
31.07.2016 07:50 20,9 C 87 % 1009,5 hPa 0,0 l/m 4,2 km/h (1 Bft) NO 44 2 min 0,000 mm 0,7 UV-I 253 W/m 18,7 C 20,9 C 6,4 km/h (2 Bft) 100,00 %
31.07.2016 07:52 20,9 C 86 % 1009,5 hPa 0,0 l/m 3,3 km/h (1 Bft) NO 44 2 min 0,000 mm 0,7 UV-I 261 W/m 18,5 C 20,9 C 4,8 km/h (1 Bft) 100,00 %
31.07.2016 07:54 21,0 C 86 % 1009,5 hPa 0,0 l/m 3,6 km/h (1 Bft) NO 49 2 min 0,000 mm 0,7 UV-I 273 W/m 18,6 C 21,0 C 4,8 km/h (1 Bft) 100,00 %
31.07.2016 07:56 21,1 C 85 % 1009,6 hPa 0,0 l/m 4,1 km/h (1 Bft) O-NO 67 2 min 0,000 mm 0,8 UV-I 282 W/m 18,5 C 21,1 C 6,4 km/h (2 Bft) 100,00 %
31.07.2016 07:58 21,2 C 84 % 1009,5 hPa 0,0 l/m 5,1 km/h (1 Bft) O-NO 63 2 min 0,000 mm 0,8 UV-I 292 W/m 18,4 C 21,2 C 6,4 km/h (2 Bft) 100,00 %
31.07.2016 08:00 21,3 C 83 % 1009,5 hPa 0,0 l/m 5,2 km/h (1 Bft) O-NO 59 2 min 0,102 mm 0,8 UV-I 301 W/m 18,3 C 21,3 C 6,4 km/h (2 Bft) 97,73 %
31.07.2016 08:02 21,4 C 83 % 1009,5 hPa 0,0 l/m 6,7 km/h (2 Bft) NO 55 2 min 0,000 mm 0,9 UV-I 311 W/m 18,4 C 21,3 C 8,0 km/h (2 Bft) 96,00 %
31.07.2016 08:04 21,6 C 83 % 1009,5 hPa 0,0 l/m 6,0 km/h (2 Bft) NO 55 2 min 0,000 mm 0,9 UV-I 321 W/m 18,6 C 21,6 C 8,0 km/h (2 Bft) 100,00 %
31.07.2016 08:06 21,7 C 82 % 1009,5 hPa 0,0 l/m 6,3 km/h (2 Bft) O-NO 71 2 min 0,000 mm 0,9 UV-I 322 W/m 18,5 C 21,7 C 8,0 km/h (2 Bft) 100,00 %
31.07.2016 08:08 21,7 C 81 % 1009,5 hPa 0,0 l/m 5,6 km/h (1 Bft) O-NO 57 2 min 0,000 mm 0,9 UV-I 311 W/m 18,3 C 21,7 C 8,0 km/h (2 Bft) 100,00 %
31.07.2016 08:10 21,8 C 81 % 1009,5 hPa 0,0 l/m 5,4 km/h (1 Bft) O-NO 59 2 min 0,000 mm 0,9 UV-I 248 W/m 18,4 C 21,8 C 8,0 km/h (2 Bft) 97,87 %
31.07.2016 08:12 21,8 C 81 % 1009,5 hPa 0,0 l/m 4,2 km/h (1 Bft) NO 53 2 min 0,000 mm 1,0 UV-I 282 W/m 18,4 C 21,8 C 6,4 km/h (2 Bft) 100,00 %
31.07.2016 08:14 21,9 C 81 % 1009,5 hPa 0,0 l/m 5,5 km/h (1 Bft) O-NO 57 2 min 0,000 mm 1,1 UV-I 326 W/m 18,5 C 21,9 C 8,0 km/h (2 Bft) 100,00 %
31.07.2016 08:16 22,1 C 80 % 1009,4 hPa 0,0 l/m 5,0 km/h (1 Bft) O-NO 70 2 min 0,000 mm 1,1 UV-I 327 W/m 18,5 C 22,1 C 6,4 km/h (2 Bft) 97,73 %
31.07.2016 08:18 22,3 C 77 % 1009,4 hPa 0,0 l/m 2,8 km/h (1 Bft) O-NO 70 2 min 0,000 mm 1,1 UV-I 326 W/m 18,1 C 22,3 C 6,4 km/h (2 Bft) 97,87 %
31.07.2016 08:20 22,6 C 78 % 1009,3 hPa 0,0 l/m 5,6 km/h (1 Bft) O-NO 71 2 min 0,000 mm 1,1 UV-I 264 W/m 18,6 C 22,6 C 8,0 km/h (2 Bft) 100,00 %
31.07.2016 08:22 22,7 C 74 % 1009,3 hPa 0,0 l/m 8,5 km/h (2 Bft) O-NO 65 2 min 0,000 mm 1,1 UV-I 291 W/m 17,8 C 22,0 C 12,9 km/h (3 Bft) 100,00 %
31.07.2016 08:24 22,7 C 74 % 1009,3 hPa 0,0 l/m 7,4 km/h (2 Bft) O-NO 59 2 min 0,000 mm 1,2 UV-I 392 W/m 17,8 C 22,4 C 11,3 km/h (2 Bft) 100,00 %
31.07.2016 08:26 22,7 C 74 % 1009,3 hPa 0,0 l/m 8,6 km/h (2 Bft) O-NO 78 2 min 0,000 mm 1,2 UV-I 392 W/m 17,8 C 22,0 C 14,5 km/h (3 Bft) 98,11 %
31.07.2016 08:28 22,8 C 74 % 1009,3 hPa 0,0 l/m 7,4 km/h (2 Bft) O-NO 57 2 min 0,000 mm 1,3 UV-I 427 W/m 17,9 C 22,5 C 11,3 km/h (2 Bft) 100,00 %
31.07.2016 08:30 22,9 C 73 % 1009,3 hPa 0,0 l/m 5,8 km/h (2 Bft) O 90 2 min 0,000 mm 1,3 UV-I 384 W/m 17,8 C 22,9 C 11,3 km/h (2 Bft) 97,87 %
31.07.2016 08:32 22,9 C 72 % 1009,3 hPa 0,0 l/m 5,1 km/h (1 Bft) NO 52 2 min 0,000 mm 1,2 UV-I 323 W/m 17,6 C 22,9 C 8,0 km/h (2 Bft) 100,00 %
31.07.2016 08:34 22,9 C 73 % 1009,3 hPa 0,0 l/m 5,3 km/h (1 Bft) O-NO 63 2 min 0,000 mm 1,2 UV-I 265 W/m 17,8 C 22,9 C 9,7 km/h (2 Bft) 100,00 %
31.07.2016 08:36 22,9 C 72 % 1009,4 hPa 0,0 l/m 6,4 km/h (2 Bft) O-NO 60 2 min 0,000 mm 1,3 UV-I 333 W/m 17,6 C 22,9 C 8,0 km/h (2 Bft) 100,00 %
31.07.2016 08:38 23,1 C 72 % 1009,4 hPa 0,0 l/m 5,8 km/h (2 Bft) O-NO 57 2 min 0,000 mm 1,4 UV-I 396 W/m 17,8 C 23,1 C 8,0 km/h (2 Bft) 100,00 %
31.07.2016 08:40 23,1 C 72 % 1009,4 hPa 0,0 l/m 5,2 km/h (1 Bft) O-NO 62 2 min 0,000 mm 1,4 UV-I 423 W/m 17,8 C 23,1 C 6,4 km/h (2 Bft) 97,87 %
31.07.2016 08:42 23,3 C 74 % 1009,4 hPa 0,0 l/m 4,4 km/h (1 Bft) O-NO 69 2 min 0,000 mm 1,4 UV-I 404 W/m 18,4 C 23,3 C 8,0 km/h (2 Bft) 94,74 %
31.07.2016 08:44 23,3 C 69 % 1009,4 hPa 0,0 l/m 5,2 km/h (1 Bft) NO 51 0 min 0,000 mm 1,2 UV-I 240 W/m 17,3 C 23,3 C 8,0 km/h (2 Bft) 98,08 %
31.07.2016 08:46 23,2 C 70 % 1009,5 hPa 0,0 l/m 5,5 km/h (1 Bft) NO 56 0 min 0,000 mm 1,4 UV-I 236 W/m 17,4 C 23,2 C 8,0 km/h (2 Bft) 97,87 %
31.07.2016 08:48 23,3 C 71 % 1009,6 hPa 0,0 l/m 3,8 km/h (1 Bft) O-NO 74 2 min 0,000 mm 1,6 UV-I 419 W/m 17,7 C 23,3 C 6,4 km/h (2 Bft) 96,00 %
31.07.2016 08:50 23,4 C 72 % 1009,7 hPa 0,0 l/m 4,2 km/h (1 Bft) O-SO 104 2 min 0,000 mm 1,6 UV-I 379 W/m 18,1 C 23,4 C 9,7 km/h (2 Bft) 92,11 %
31.07.2016 08:52 23,5 C 67 % 1009,7 hPa 0,0 l/m 4,5 km/h (1 Bft) SO 132 2 min 0,000 mm 1,6 UV-I 341 W/m 17,0 C 23,5 C 6,4 km/h (2 Bft) 97,73 %
31.07.2016 08:54 23,6 C 66 % 1009,7 hPa 0,0 l/m 5,0 km/h (1 Bft) O 95 2 min 0,000 mm 1,7 UV-I 374 W/m 16,9 C 23,6 C 9,7 km/h (2 Bft) 96,00 %
31.07.2016 08:56 23,7 C 65 % 1009,8 hPa 0,0 l/m 4,7 km/h (1 Bft) O 98 2 min 0,000 mm 1,7 UV-I 360 W/m 16,7 C 23,7 C 9,7 km/h (2 Bft) 96,00 %
31.07.2016 08:58 23,7 C 66 % 1009,8 hPa 0,0 l/m 3,8 km/h (1 Bft) O 98 2 min 0,000 mm 1,8 UV-I 369 W/m 17,0 C 23,7 C 6,4 km/h (2 Bft) 97,44 %
31.07.2016 09:00 23,8 C 67 % 1009,8 hPa 0,0 l/m 3,1 km/h (1 Bft) O-SO 123 2 min 0,229 mm 1,7 UV-I 308 W/m 17,3 C 23,8 C 6,4 km/h (2 Bft) 96,23 %
31.07.2016 09:02 23,8 C 68 % 1009,8 hPa 0,0 l/m 4,0 km/h (1 Bft) SO 140 2 min 0,000 mm 1,8 UV-I 334 W/m 17,5 C 23,8 C 6,4 km/h (2 Bft) 96,00 %
31.07.2016 09:04 23,9 C 66 % 1009,7 hPa 0,0 l/m 5,7 km/h (1 Bft) SO 125 2 min 0,000 mm 1,9 UV-I 364 W/m 17,1 C 23,9 C 11,3 km/h (2 Bft) 97,87 %
31.07.2016 09:06 23,9 C 65 % 1009,7 hPa 0,0 l/m 6,2 km/h (2 Bft) O-SO 122 2 min 0,000 mm 2,0 UV-I 369 W/m 16,9 C 23,9 C 11,3 km/h (2 Bft) 97,87 %
31.07.2016 09:08 23,9 C 64 % 1009,6 hPa 0,0 l/m 6,2 km/h (2 Bft) O-SO 119 2 min 0,000 mm 2,0 UV-I 369 W/m 16,7 C 23,9 C 9,7 km/h (2 Bft) 97,87 %
31.07.2016 09:10 24,0 C 66 % 1009,6 hPa 0,0 l/m 4,8 km/h (1 Bft) O-SO 106 2 min 0,000 mm 2,1 UV-I 368 W/m 17,2 C 24,0 C 6,4 km/h (2 Bft) 97,87 %
31.07.2016 09:12 24,1 C 64 % 1009,7 hPa 0,0 l/m 3,9 km/h (1 Bft) O-NO 69 2 min 0,000 mm 2,1 UV-I 372 W/m 16,9 C 24,1 C 6,4 km/h (2 Bft) 97,56 %
31.07.2016 09:14 24,2 C 66 % 1009,7 hPa 0,0 l/m 3,2 km/h (1 Bft) O-NO 62 2 min 0,000 mm 2,2 UV-I 380 W/m 17,4 C 24,2 C 4,8 km/h (1 Bft) 96,00 %
31.07.2016 09:16 24,2 C 62 % 1009,8 hPa 0,0 l/m 2,5 km/h (1 Bft) O-NO 78 2 min 0,000 mm 2,2 UV-I 390 W/m 16,4 C 24,2 C 4,8 km/h (1 Bft) 100,00 %
31.07.2016 09:18 24,2 C 64 % 1009,7 hPa 0,0 l/m 4,0 km/h (1 Bft) O-NO 66 2 min 0,000 mm 2,2 UV-I 403 W/m 16,9 C 24,2 C 6,4 km/h (2 Bft) 100,00 %
31.07.2016 09:20 24,3 C 61 % 1009,7 hPa 0,0 l/m 4,6 km/h (1 Bft) O-NO 59 2 min 0,000 mm 2,3 UV-I 418 W/m 16,3 C 24,3 C 6,4 km/h (2 Bft) 100,00 %
31.07.2016 09:22 24,5 C 60 % 1009,7 hPa 0,0 l/m 5,8 km/h (2 Bft) O-NO 76 2 min 0,000 mm 2,3 UV-I 433 W/m 16,2 C 24,5 C 8,0 km/h (2 Bft) 100,00 %
31.07.2016 09:24 24,6 C 61 % 1009,7 hPa 0,0 l/m 4,4 km/h (1 Bft) O-NO 69 2 min 0,000 mm 2,4 UV-I 451 W/m 16,6 C 24,6 C 6,4 km/h (2 Bft) 98,21 %
31.07.2016 09:26 24,6 C 62 % 1009,7 hPa 0,0 l/m 3,5 km/h (1 Bft) O-NO 65 2 min 0,000 mm 2,4 UV-I 464 W/m 16,8 C 24,6 C 6,4 km/h (2 Bft) 100,00 %
31.07.2016 09:28 24,7 C 61 % 1009,7 hPa 0,0 l/m 4,5 km/h (1 Bft) O-NO 74 2 min 0,000 mm 2,5 UV-I 472 W/m 16,7 C 24,7 C 6,4 km/h (2 Bft) 100,00 %
31.07.2016 09:30 24,6 C 61 % 1009,6 hPa 0,0 l/m 2,7 km/h (1 Bft) O-NO 75 2 min 0,000 mm 2,5 UV-I 485 W/m 16,6 C 24,6 C 3,2 km/h (1 Bft) 100,00 %
31.07.2016 09:32 24,7 C 64 % 1009,7 hPa 0,0 l/m 3,2 km/h (1 Bft) O 81 2 min 0,000 mm 2,6 UV-I 499 W/m 17,4 C 24,7 C 4,8 km/h (1 Bft) 100,00 %
31.07.2016 09:34 24,7 C 62 % 1009,7 hPa 0,0 l/m 3,6 km/h (1 Bft) O-NO 68 2 min 0,000 mm 2,6 UV-I 513 W/m 16,9 C 24,7 C 6,4 km/h (2 Bft) 97,87 %
31.07.2016 09:36 24,9 C 63 % 1009,7 hPa 0,0 l/m 4,4 km/h (1 Bft) N-NO 25 2 min 0,000 mm 2,7 UV-I 525 W/m 17,4 C 24,9 C 8,0 km/h (2 Bft) 100,00 %
31.07.2016 09:38 25,0 C 61 % 1009,8 hPa 0,0 l/m 2,9 km/h (1 Bft) N-NO 28 2 min 0,000 mm 2,7 UV-I 537 W/m 16,9 C 25,0 C 6,4 km/h (2 Bft) 100,00 %
31.07.2016 09:40 25,2 C 62 % 1009,8 hPa 0,0 l/m 2,2 km/h (1 Bft) O-NO 57 2 min 0,000 mm 2,8 UV-I 548 W/m 17,4 C 25,2 C 6,4 km/h (2 Bft) 100,00 %
31.07.2016 09:42 25,1 C 60 % 1009,8 hPa 0,0 l/m 3,3 km/h (1 Bft) O-SO 105 2 min 0,000 mm 2,8 UV-I 553 W/m 16,8 C 25,1 C 6,4 km/h (2 Bft) 97,56 %
31.07.2016 09:44 24,8 C 63 % 1009,9 hPa 0,0 l/m 1,6 km/h (1 Bft) O-SO 105 2 min 0,000 mm 2,9 UV-I 563 W/m 17,3 C 24,8 C 3,2 km/h (1 Bft) 100,00 %
31.07.2016 09:46 24,8 C 63 % 1010,0 hPa 0,0 l/m 0,5 km/h (0 Bft) O-SO 105 2 min 0,000 mm 2,9 UV-I 565 W/m 17,3 C 24,8 C 3,2 km/h (1 Bft) 100,00 %
31.07.2016 09:48 24,9 C 62 % 1010,0 hPa 0,0 l/m 3,3 km/h (1 Bft) W-SW 246 2 min 0,000 mm 3,0 UV-I 567 W/m 17,1 C 24,9 C 4,8 km/h (1 Bft) 98,00 %
31.07.2016 09:50 24,9 C 61 % 1010,1 hPa 0,0 l/m 3,0 km/h (1 Bft) NW 316 2 min 0,000 mm 3,1 UV-I 581 W/m 16,8 C 24,9 C 4,8 km/h (1 Bft) 100,00 %
31.07.2016 09:52 25,1 C 61 % 1010,1 hPa 0,0 l/m 2,3 km/h (1 Bft) N-NW 329 2 min 0,000 mm 3,1 UV-I 572 W/m 17,0 C 25,1 C 4,8 km/h (1 Bft) 100,00 %
31.07.2016 09:54 25,2 C 63 % 1010,1 hPa 0,0 l/m 3,2 km/h (1 Bft) NW 309 2 min 0,000 mm 3,0 UV-I 560 W/m 17,6 C 25,2 C 6,4 km/h (2 Bft) 100,00 %
31.07.2016 09:56 25,2 C 62 % 1010,1 hPa 0,0 l/m 2,1 km/h (1 Bft) NW 308 2 min 0,000 mm 3,1 UV-I 573 W/m 17,4 C 25,2 C 4,8 km/h (1 Bft) 100,00 %
31.07.2016 09:58 25,2 C 62 % 1010,1 hPa 0,0 l/m 1,9 km/h (1 Bft) W 265 2 min 0,000 mm 3,2 UV-I 588 W/m 17,4 C 25,2 C 3,2 km/h (1 Bft) 100,00 %
31.07.2016 10:00 25,3 C 61 % 1010,1 hPa 0,0 l/m 2,0 km/h (1 Bft) W 259 2 min 0,330 mm 3,2 UV-I 586 W/m 17,2 C 25,3 C 3,2 km/h (1 Bft) 100,00 %
31.07.2016 10:02 25,4 C 63 % 1010,1 hPa 0,0 l/m 1,8 km/h (1 Bft) W-SW 246 2 min 0,000 mm 3,2 UV-I 588 W/m 17,8 C 25,4 C 4,8 km/h (1 Bft) 100,00 %
31.07.2016 10:04 25,3 C 61 % 1010,1 hPa 0,0 l/m 3,0 km/h (1 Bft) O-NO 67 2 min 0,000 mm 3,3 UV-I 587 W/m 17,2 C 25,3 C 6,4 km/h (2 Bft) 100,00 %
31.07.2016 10:06 25,3 C 63 % 1010,1 hPa 0,0 l/m 2,2 km/h (1 Bft) NW 322 2 min 0,000 mm 3,3 UV-I 587 W/m 17,7 C 25,3 C 4,8 km/h (1 Bft) 100,00 %
31.07.2016 10:08 25,4 C 61 % 1010,2 hPa 0,0 l/m 3,1 km/h (1 Bft) N-NW 335 2 min 0,000 mm 3,4 UV-I 602 W/m 17,3 C 25,4 C 6,4 km/h (2 Bft) 100,00 %
31.07.2016 10:10 25,5 C 66 % 1010,2 hPa 0,0 l/m 3,0 km/h (1 Bft) W-NW 291 2 min 0,000 mm 3,5 UV-I 612 W/m 18,7 C 25,5 C 4,8 km/h (1 Bft) 100,00 %
31.07.2016 10:12 25,4 C 64 % 1010,2 hPa 0,0 l/m 4,7 km/h (1 Bft) W-SW 255 2 min 0,000 mm 3,5 UV-I 616 W/m 18,1 C 25,4 C 8,0 km/h (2 Bft) 100,00 %
31.07.2016 10:14 25,5 C 64 % 1010,2 hPa 0,0 l/m 2,2 km/h (1 Bft) W-NW 300 2 min 0,000 mm 3,6 UV-I 627 W/m 18,2 C 25,5 C 4,8 km/h (1 Bft) 100,00 %
31.07.2016 10:16 25,7 C 61 % 1010,1 hPa 0,0 l/m 4,6 km/h (1 Bft) W 270 2 min 0,000 mm 3,6 UV-I 634 W/m 17,6 C 25,7 C 12,9 km/h (3 Bft) 97,44 %
31.07.2016 10:18 25,8 C 62 % 1010,1 hPa 0,0 l/m 3,0 km/h (1 Bft) W 273 2 min 0,000 mm 3,7 UV-I 638 W/m 18,0 C 25,8 C 6,4 km/h (2 Bft) 100,00 %
31.07.2016 10:20 25,8 C 63 % 1010,0 hPa 0,0 l/m 4,1 km/h (1 Bft) N-NO 31 2 min 0,000 mm 3,8 UV-I 646 W/m 18,2 C 25,8 C 9,7 km/h (2 Bft) 100,00 %
31.07.2016 10:22 25,9 C 62 % 1010,0 hPa 0,0 l/m 3,7 km/h (1 Bft) NW 326 2 min 0,000 mm 3,8 UV-I 651 W/m 18,0 C 25,9 C 8,0 km/h (2 Bft) 95,74 %
31.07.2016 10:24 25,8 C 61 % 1010,0 hPa 0,0 l/m 6,0 km/h (2 Bft) W-NW 290 2 min 0,000 mm 3,9 UV-I 655 W/m 17,7 C 25,8 C 11,3 km/h (2 Bft) 100,00 %
31.07.2016 10:26 25,8 C 62 % 1010,0 hPa 0,0 l/m 3,9 km/h (1 Bft) W-NW 298 2 min 0,000 mm 3,9 UV-I 659 W/m 18,0 C 25,8 C 12,9 km/h (3 Bft) 98,11 %
31.07.2016 10:28 25,9 C 63 % 1010,0 hPa 0,0 l/m 2,4 km/h (1 Bft) N 355 2 min 0,000 mm 3,9 UV-I 655 W/m 18,3 C 25,9 C 8,0 km/h (2 Bft) 98,00 %
31.07.2016 10:30 26,1 C 63 % 1010,0 hPa 0,0 l/m 4,5 km/h (1 Bft) NW 317 2 min 0,000 mm 4,0 UV-I 664 W/m 18,5 C 26,1 C 12,9 km/h (3 Bft) 100,00 %
31.07.2016 10:32 26,1 C 59 % 1010,0 hPa 0,0 l/m 3,4 km/h (1 Bft) N 350 2 min 0,000 mm 4,1 UV-I 698 W/m 17,4 C 26,1 C 8,0 km/h (2 Bft) 100,00 %
31.07.2016 10:34 26,2 C 59 % 1010,0 hPa 0,0 l/m 3,9 km/h (1 Bft) NW 304 2 min 0,000 mm 4,0 UV-I 643 W/m 17,5 C 26,2 C 9,7 km/h (2 Bft) 100,00 %
31.07.2016 10:36 25,9 C 61 % 1009,9 hPa 0,0 l/m 2,5 km/h (1 Bft) N-NW 327 2 min 0,000 mm 3,9 UV-I 593 W/m 17,8 C 25,9 C 6,4 km/h (2 Bft) 97,56 %
31.07.2016 10:38 26,0 C 58 % 1010,0 hPa 0,0 l/m 1,8 km/h (1 Bft) N 355 2 min 0,000 mm 3,9 UV-I 532 W/m 17,1 C 26,0 C 3,2 km/h (1 Bft) 96,23 %
31.07.2016 10:40 26,1 C 61 % 1010,0 hPa 0,0 l/m 2,1 km/h (1 Bft) N 351 2 min 0,000 mm 4,1 UV-I 648 W/m 18,0 C 26,1 C 6,4 km/h (2 Bft) 97,56 %
31.07.2016 10:42 26,1 C 58 % 1010,0 hPa 0,0 l/m 1,6 km/h (1 Bft) W-NW 298 2 min 0,000 mm 4,4 UV-I 718 W/m 17,2 C 26,1 C 3,2 km/h (1 Bft) 97,87 %
31.07.2016 10:44 26,1 C 60 % 1010,0 hPa 0,0 l/m 3,1 km/h (1 Bft) N-NO 28 2 min 0,000 mm 4,4 UV-I 700 W/m 17,7 C 26,1 C 6,4 km/h (2 Bft) 98,00 %
31.07.2016 10:46 26,3 C 63 % 1010,0 hPa 0,0 l/m 2,0 km/h (1 Bft) NW 325 2 min 0,000 mm 4,4 UV-I 730 W/m 18,7 C 26,3 C 6,4 km/h (2 Bft) 97,87 %
31.07.2016 10:48 26,3 C 59 % 1010,1 hPa 0,0 l/m 3,8 km/h (1 Bft) N 11 2 min 0,000 mm 4,3 UV-I 696 W/m 17,6 C 26,3 C 11,3 km/h (2 Bft) 97,87 %
31.07.2016 10:50 26,3 C 60 % 1010,0 hPa 0,0 l/m 1,5 km/h (1 Bft) N-NO 22 2 min 0,000 mm 4,1 UV-I 587 W/m 17,9 C 26,3 C 4,8 km/h (1 Bft) 97,87 %
31.07.2016 10:52 26,4 C 59 % 1010,0 hPa 0,0 l/m 2,7 km/h (1 Bft) N-NW 335 2 min 0,000 mm 3,8 UV-I 563 W/m 17,7 C 26,4 C 6,4 km/h (2 Bft) 97,56 %
31.07.2016 10:54 26,3 C 61 % 1010,0 hPa 0,0 l/m 2,7 km/h (1 Bft) S-SW 207 2 min 0,000 mm 3,6 UV-I 511 W/m 18,2 C 26,3 C 6,4 km/h (2 Bft) 98,11 %
31.07.2016 10:56 26,2 C 60 % 1010,1 hPa 0,0 l/m 3,8 km/h (1 Bft) W-SW 242 2 min 0,000 mm 3,6 UV-I 495 W/m 17,8 C 26,2 C 8,0 km/h (2 Bft) 97,22 %
31.07.2016 10:58 26,1 C 65 % 1010,1 hPa 0,0 l/m 1,3 km/h (1 Bft) SW 229 2 min 0,000 mm 4,3 UV-I 585 W/m 19,0 C 26,1 C 3,2 km/h (1 Bft) 96,23 %
31.07.2016 11:00 26,1 C 63 % 1010,1 hPa 0,0 l/m 3,0 km/h (1 Bft) SW 235 2 min 0,406 mm 4,6 UV-I 722 W/m 18,5 C 26,1 C 9,7 km/h (2 Bft) 97,87 %
31.07.2016 11:02 26,1 C 64 % 1010,1 hPa 0,0 l/m 6,2 km/h (2 Bft) N-NW 346 2 min 0,000 mm 4,5 UV-I 708 W/m 18,7 C 26,1 C 11,3 km/h (2 Bft) 97,87 %
31.07.2016 11:04 26,2 C 63 % 1010,1 hPa 0,0 l/m 4,1 km/h (1 Bft) W-SW 255 2 min 0,000 mm 4,1 UV-I 685 W/m 18,6 C 26,2 C 12,9 km/h (3 Bft) 98,11 %
31.07.2016 11:06 26,3 C 65 % 1010,1 hPa 0,0 l/m 5,6 km/h (1 Bft) W-SW 254 2 min 0,000 mm 4,6 UV-I 691 W/m 19,2 C 26,3 C 11,3 km/h (2 Bft) 97,56 %
31.07.2016 11:08 26,3 C 63 % 1010,1 hPa 0,0 l/m 8,9 km/h (2 Bft) W 274 2 min 0,000 mm 4,8 UV-I 711 W/m 18,7 C 25,8 C 12,9 km/h (3 Bft) 100,00 %
31.07.2016 11:10 26,2 C 63 % 1010,0 hPa 0,0 l/m 4,9 km/h (1 Bft) W-NW 301 2 min 0,000 mm 4,9 UV-I 740 W/m 18,6 C 26,2 C 9,7 km/h (2 Bft) 97,56 %
31.07.2016 11:12 26,3 C 64 % 1010,0 hPa 0,0 l/m 6,0 km/h (2 Bft) W-NW 296 2 min 0,000 mm 5,0 UV-I 771 W/m 18,9 C 26,3 C 11,3 km/h (2 Bft) 96,00 %
31.07.2016 11:14 26,5 C 63 % 1010,0 hPa 0,0 l/m 3,8 km/h (1 Bft) SW 223 2 min 0,000 mm 5,2 UV-I 788 W/m 18,9 C 26,5 C 6,4 km/h (2 Bft) 98,00 %
31.07.2016 11:16 26,6 C 63 % 1009,9 hPa 0,0 l/m 2,8 km/h (1 Bft) W-SW 252 2 min 0,000 mm 5,1 UV-I 780 W/m 19,0 C 26,6 C 4,8 km/h (1 Bft) 100,00 %
31.07.2016 11:18 26,7 C 59 % 1009,9 hPa 0,0 l/m 7,7 km/h (2 Bft) W-SW 255 2 min 0,000 mm 5,2 UV-I 776 W/m 18,0 C 26,4 C 14,5 km/h (3 Bft) 100,00 %
31.07.2016 11:20 26,8 C 61 % 1009,9 hPa 0,0 l/m 8,8 km/h (2 Bft) W 267 2 min 0,000 mm 5,4 UV-I 807 W/m 18,6 C 26,3 C 14,5 km/h (3 Bft) 100,00 %
31.07.2016 11:22 26,9 C 58 % 1009,9 hPa 0,0 l/m 6,6 km/h (2 Bft) W 259 2 min 0,000 mm 5,4 UV-I 807 W/m 17,9 C 26,9 C 14,5 km/h (3 Bft) 100,00 %
31.07.2016 11:24 26,9 C 56 % 1010,1 hPa 0,0 l/m 7,8 km/h (2 Bft) W-NW 289 2 min 0,000 mm 5,1 UV-I 744 W/m 17,4 C 26,6 C 12,9 km/h (3 Bft) 100,00 %
31.07.2016 11:26 26,8 C 56 % 1010,0 hPa 0,0 l/m 7,2 km/h (2 Bft) NW 321 2 min 0,000 mm 4,7 UV-I 663 W/m 17,3 C 26,6 C 12,9 km/h (3 Bft) 100,00 %
31.07.2016 11:28 26,8 C 56 % 1010,0 hPa 0,0 l/m 4,6 km/h (1 Bft) W-NW 298 2 min 0,000 mm 4,7 UV-I 652 W/m 17,3 C 26,8 C 11,3 km/h (2 Bft) 98,21 %
31.07.2016 11:30 26,8 C 59 % 1010,0 hPa 0,0 l/m 8,2 km/h (2 Bft) W 259 2 min 0,000 mm 4,4 UV-I 577 W/m 18,1 C 26,5 C 14,5 km/h (3 Bft) 100,00 %
31.07.2016 11:32 26,8 C 60 % 1010,0 hPa 0,0 l/m 3,3 km/h (1 Bft) W 278 2 min 0,000 mm 4,2 UV-I 529 W/m 18,4 C 26,8 C 6,4 km/h (2 Bft) 97,87 %
31.07.2016 11:34 26,8 C 57 % 1010,0 hPa 0,0 l/m 4,1 km/h (1 Bft) SW 228 2 min 0,000 mm 4,3 UV-I 555 W/m 17,6 C 26,8 C 6,4 km/h (2 Bft) 100,00 %
31.07.2016 11:36 26,8 C 59 % 1010,0 hPa 0,0 l/m 5,0 km/h (1 Bft) W 263 2 min 0,000 mm 4,7 UV-I 627 W/m 18,1 C 26,8 C 11,3 km/h (2 Bft) 100,00 %
31.07.2016 11:38 26,8 C 60 % 1010,0 hPa 0,0 l/m 4,0 km/h (1 Bft) W-SW 257 2 min 0,000 mm 5,1 UV-I 687 W/m 18,4 C 26,8 C 11,3 km/h (2 Bft) 100,00 %
31.07.2016 11:40 26,9 C 61 % 1009,9 hPa 0,0 l/m 5,0 km/h (1 Bft) W-SW 248 2 min 0,000 mm 5,2 UV-I 740 W/m 18,7 C 26,9 C 9,7 km/h (2 Bft) 100,00 %
31.07.2016 11:42 27,1 C 61 % 1010,0 hPa 0,0 l/m 5,1 km/h (1 Bft) NW 307 2 min 0,000 mm 5,5 UV-I 782 W/m 18,9 C 27,1 C 11,3 km/h (2 Bft) 100,00 %
31.07.2016 11:44 27,2 C 56 % 1010,0 hPa 0,0 l/m 3,5 km/h (1 Bft) W-NW 302 2 min 0,000 mm 5,6 UV-I 793 W/m 17,6 C 27,2 C 6,4 km/h (2 Bft) 100,00 %
31.07.2016 11:46 27,3 C 57 % 1010,1 hPa 0,0 l/m 8,0 km/h (2 Bft) N-NW 330 2 min 0,000 mm 5,8 UV-I 811 W/m 18,0 C 27,0 C 19,3 km/h (3 Bft) 100,00 %
31.07.2016 11:48 27,4 C 54 % 1010,0 hPa 0,0 l/m 10,7 km/h (2 Bft) SW 229 2 min 0,000 mm 5,8 UV-I 823 W/m 17,3 C 26,7 C 17,7 km/h (3 Bft) 100,00 %
31.07.2016 11:50 27,4 C 53 % 1010,0 hPa 0,0 l/m 13,7 km/h (3 Bft) W 264 2 min 0,000 mm 5,9 UV-I 818 W/m 17,0 C 26,4 C 22,5 km/h (4 Bft) 97,73 %
31.07.2016 11:52 27,3 C 52 % 1010,0 hPa 0,0 l/m 9,5 km/h (2 Bft) N-NW 339 2 min 0,000 mm 5,9 UV-I 840 W/m 16,6 C 26,8 C 14,5 km/h (3 Bft) 98,11 %
31.07.2016 11:54 27,4 C 55 % 1009,9 hPa 0,0 l/m 6,8 km/h (2 Bft) W-SW 243 2 min 0,000 mm 5,9 UV-I 820 W/m 17,5 C 27,3 C 11,3 km/h (2 Bft) 100,00 %
31.07.2016 11:56 27,5 C 52 % 1010,0 hPa 0,0 l/m 15,7 km/h (3 Bft) W 277 2 min 0,000 mm 5,8 UV-I 785 W/m 16,7 C 26,3 C 27,4 km/h (4 Bft) 96,00 %
31.07.2016 11:58 27,5 C 54 % 1010,0 hPa 0,0 l/m 13,0 km/h (3 Bft) W 275 2 min 0,000 mm 5,9 UV-I 816 W/m 17,3 C 26,5 C 27,4 km/h (4 Bft) 100,00 %
31.07.2016 12:00 27,5 C 54 % 1009,9 hPa 0,0 l/m 11,5 km/h (2 Bft) W-SW 252 2 min 0,508 mm 5,9 UV-I 835 W/m 17,3 C 26,7 C 25,7 km/h (4 Bft) 100,00 %
31.07.2016 12:02 27,6 C 54 % 1009,9 hPa 0,0 l/m 13,8 km/h (3 Bft) S-SW 205 2 min 0,000 mm 5,9 UV-I 822 W/m 17,4 C 26,6 C 27,4 km/h (4 Bft) 100,00 %
31.07.2016 12:04 27,7 C 53 % 1009,9 hPa 0,0 l/m 11,6 km/h (2 Bft) SW 236 2 min 0,000 mm 5,9 UV-I 801 W/m 17,2 C 26,9 C 29,0 km/h (5 Bft) 100,00 %
31.07.2016 12:06 27,7 C 56 % 1009,9 hPa 0,0 l/m 7,1 km/h (2 Bft) W-SW 237 2 min 0,000 mm 5,5 UV-I 830 W/m 18,1 C 27,6 C 16,1 km/h (3 Bft) 100,00 %
31.07.2016 12:08 27,8 C 55 % 1009,7 hPa 0,0 l/m 7,5 km/h (2 Bft) NW 308 2 min 0,000 mm 6,0 UV-I 833 W/m 17,9 C 27,6 C 16,1 km/h (3 Bft) 98,48 %
31.07.2016 12:10 27,9 C 53 % 1009,8 hPa 0,0 l/m 7,9 km/h (2 Bft) NO 40 2 min 0,000 mm 6,1 UV-I 834 W/m 17,4 C 27,7 C 16,1 km/h (3 Bft) 100,00 %
31.07.2016 12:12 28,1 C 53 % 1009,7 hPa 0,0 l/m 8,6 km/h (2 Bft) N-NW 347 2 min 0,000 mm 6,1 UV-I 816 W/m 17,6 C 27,8 C 20,9 km/h (4 Bft) 100,00 %
31.07.2016 12:14 28,1 C 54 % 1009,7 hPa 0,0 l/m 7,7 km/h (2 Bft) W 275 2 min 0,000 mm 6,1 UV-I 824 W/m 17,9 C 27,9 C 14,5 km/h (3 Bft) 100,00 %
31.07.2016 12:16 28,2 C 55 % 1009,7 hPa 0,0 l/m 5,2 km/h (1 Bft) SW 227 2 min 0,000 mm 6,1 UV-I 812 W/m 18,3 C 28,2 C 14,5 km/h (3 Bft) 100,00 %
31.07.2016 12:18 28,1 C 51 % 1009,8 hPa 0,0 l/m 8,7 km/h (2 Bft) S-SW 198 2 min 0,000 mm 6,1 UV-I 814 W/m 17,0 C 27,8 C 19,3 km/h (3 Bft) 100,00 %
31.07.2016 12:20 27,9 C 51 % 1009,8 hPa 0,0 l/m 10,6 km/h (2 Bft) N-NW 330 2 min 0,000 mm 6,2 UV-I 814 W/m 16,8 C 27,3 C 20,9 km/h (4 Bft) 100,00 %
31.07.2016 12:22 27,7 C 52 % 1009,9 hPa 0,0 l/m 17,2 km/h (3 Bft) W 265 2 min 0,000 mm 6,2 UV-I 816 W/m 16,9 C 26,4 C 24,1 km/h (4 Bft) 100,00 %
31.07.2016 12:24 27,7 C 51 % 1009,9 hPa 0,0 l/m 15,2 km/h (3 Bft) W-SW 244 2 min 0,000 mm 6,2 UV-I 815 W/m 16,6 C 26,6 C 29,0 km/h (5 Bft) 97,37 %
31.07.2016 12:26 27,6 C 54 % 1009,8 hPa 0,0 l/m 14,3 km/h (3 Bft) W 269 2 min 0,000 mm 6,3 UV-I 819 W/m 17,4 C 26,5 C 27,4 km/h (4 Bft) 100,00 %
31.07.2016 12:28 27,6 C 50 % 1009,7 hPa 0,0 l/m 15,0 km/h (3 Bft) S-SW 210 2 min 0,000 mm 6,3 UV-I 819 W/m 16,2 C 26,5 C 32,2 km/h (5 Bft) 100,00 %
31.07.2016 12:30 27,6 C 51 % 1009,7 hPa 0,0 l/m 13,8 km/h (3 Bft) W-SW 237 2 min 0,000 mm 6,3 UV-I 818 W/m 16,5 C 26,6 C 22,5 km/h (4 Bft) 100,00 %
31.07.2016 12:32 27,5 C 52 % 1009,7 hPa 0,0 l/m 9,4 km/h (2 Bft) N-NW 334 2 min 0,000 mm 6,3 UV-I 816 W/m 16,7 C 27,0 C 19,3 km/h (3 Bft) 98,04 %
31.07.2016 12:34 27,6 C 52 % 1009,8 hPa 0,0 l/m 8,9 km/h (2 Bft) W-NW 291 2 min 0,000 mm 6,3 UV-I 818 W/m 16,8 C 27,2 C 20,9 km/h (4 Bft) 97,37 %
31.07.2016 12:36 27,6 C 52 % 1009,7 hPa 0,0 l/m 14,9 km/h (3 Bft) W-SW 254 2 min 0,000 mm 6,4 UV-I 822 W/m 16,8 C 26,5 C 30,6 km/h (5 Bft) 94,34 %
31.07.2016 12:38 27,6 C 54 % 1009,8 hPa 0,0 l/m 13,5 km/h (3 Bft) W-SW 248 2 min 0,000 mm 6,4 UV-I 823 W/m 17,4 C 26,6 C 27,4 km/h (4 Bft) 95,45 %
31.07.2016 12:40 27,4 C 51 % 1009,8 hPa 0,0 l/m 10,6 km/h (2 Bft) W-SW 238 2 min 0,000 mm 6,4 UV-I 828 W/m 16,3 C 26,7 C 22,5 km/h (4 Bft) 96,30 %
31.07.2016 12:42 27,4 C 53 % 1009,8 hPa 0,0 l/m 8,3 km/h (2 Bft) W-SW 255 2 min 0,000 mm 6,4 UV-I 828 W/m 17,0 C 27,1 C 16,1 km/h (3 Bft) 96,92 %
31.07.2016 12:44 27,5 C 51 % 1009,9 hPa 0,0 l/m 13,5 km/h (3 Bft) W-SW 241 2 min 0,000 mm 6,4 UV-I 823 W/m 16,4 C 26,5 C 24,1 km/h (4 Bft) 97,87 %
31.07.2016 12:46 27,4 C 53 % 1009,9 hPa 0,0 l/m 12,4 km/h (3 Bft) W-NW 298 2 min 0,000 mm 6,4 UV-I 822 W/m 17,0 C 26,5 C 22,5 km/h (4 Bft) 97,87 %
31.07.2016 12:48 27,4 C 51 % 1010,0 hPa 0,0 l/m 16,6 km/h (3 Bft) W-NW 291 2 min 0,000 mm 6,3 UV-I 817 W/m 16,3 C 26,1 C 27,4 km/h (4 Bft) 98,00 %
31.07.2016 12:50 27,3 C 52 % 1009,9 hPa 0,0 l/m 12,3 km/h (3 Bft) W-SW 248 2 min 0,000 mm 6,4 UV-I 822 W/m 16,6 C 26,4 C 25,7 km/h (4 Bft) 97,56 %
31.07.2016 12:52 27,3 C 52 % 1009,9 hPa 0,0 l/m 13,7 km/h (3 Bft) W-SW 238 2 min 0,000 mm 6,5 UV-I 833 W/m 16,6 C 26,2 C 22,5 km/h (4 Bft) 98,11 %
31.07.2016 12:54 27,4 C 53 % 1009,8 hPa 0,0 l/m 12,6 km/h (3 Bft) SW 219 2 min 0,000 mm 6,5 UV-I 835 W/m 17,0 C 26,5 C 22,5 km/h (4 Bft) 97,62 %
31.07.2016 12:56 27,4 C 51 % 1009,9 hPa 0,0 l/m 15,9 km/h (3 Bft) W-NW 291 2 min 0,000 mm 6,5 UV-I 836 W/m 16,3 C 26,1 C 25,7 km/h (4 Bft) 98,11 %
31.07.2016 12:58 27,3 C 55 % 1009,8 hPa 0,0 l/m 7,1 km/h (2 Bft) W-SW 247 2 min 0,000 mm 6,5 UV-I 837 W/m 17,4 C 27,2 C 17,7 km/h (3 Bft) 93,62 %
31.07.2016 13:00 27,4 C 53 % 1009,8 hPa 0,0 l/m 7,2 km/h (2 Bft) W-SW 253 2 min 0,000 mm 6,5 UV-I 841 W/m 17,0 C 27,3 C 17,7 km/h (3 Bft) 94,29 %
31.07.2016 13:02 27,5 C 53 % 1009,8 hPa 0,0 l/m 10,4 km/h (2 Bft) W 261 2 min 0,610 mm 6,5 UV-I 833 W/m 17,0 C 26,9 C 22,5 km/h (4 Bft) 94,92 %
31.07.2016 13:04 27,6 C 55 % 1009,8 hPa 0,0 l/m 7,9 km/h (2 Bft) W-SW 257 2 min 0,000 mm 6,5 UV-I 842 W/m 17,7 C 27,3 C 16,1 km/h (3 Bft) 94,74 %
31.07.2016 13:06 27,7 C 55 % 1009,8 hPa 0,0 l/m 10,3 km/h (2 Bft) S-SW 206 2 min 0,000 mm 6,5 UV-I 843 W/m 17,8 C 27,1 C 17,7 km/h (3 Bft) 98,21 %
31.07.2016 13:08 27,7 C 53 % 1009,8 hPa 0,0 l/m 13,4 km/h (3 Bft) W 261 2 min 0,000 mm 6,5 UV-I 851 W/m 17,2 C 26,7 C 22,5 km/h (4 Bft) 97,73 %
31.07.2016 13:10 27,7 C 53 % 1010,0 hPa 0,0 l/m 21,0 km/h (4 Bft) W-SW 258 2 min 0,000 mm 6,6 UV-I 869 W/m 17,2 C 26,1 C 35,4 km/h (5 Bft) 100,00 %
31.07.2016 13:12 27,4 C 53 % 1010,0 hPa 0,0 l/m 19,1 km/h (3 Bft) W-SW 252 2 min 0,000 mm 6,5 UV-I 879 W/m 17,0 C 25,8 C 32,2 km/h (5 Bft) 100,00 %
31.07.2016 13:14 27,2 C 52 % 1010,0 hPa 0,0 l/m 15,1 km/h (3 Bft) W 267 2 min 0,000 mm 5,4 UV-I 724 W/m 16,5 C 26,0 C 25,7 km/h (4 Bft) 98,11 %
31.07.2016 13:16 26,9 C 54 % 1010,0 hPa 0,0 l/m 14,1 km/h (3 Bft) W 265 0 min 0,000 mm 4,1 UV-I 340 W/m 16,8 C 25,7 C 17,7 km/h (3 Bft) 97,56 %
31.07.2016 13:18 26,7 C 54 % 1010,0 hPa 0,0 l/m 16,3 km/h (3 Bft) W 271 0 min 0,000 mm 4,0 UV-I 322 W/m 16,6 C 25,2 C 25,7 km/h (4 Bft) 98,21 %
31.07.2016 13:20 26,6 C 55 % 1009,9 hPa 0,0 l/m 9,2 km/h (2 Bft) W-SW 240 0 min 0,000 mm 4,7 UV-I 374 W/m 16,8 C 26,1 C 20,9 km/h (4 Bft) 100,00 %
31.07.2016 13:22 26,6 C 56 % 1009,9 hPa 0,0 l/m 14,6 km/h (3 Bft) W-SW 247 2 min 0,000 mm 6,4 UV-I 627 W/m 17,1 C 25,3 C 22,5 km/h (4 Bft) 100,00 %
31.07.2016 13:24 26,8 C 57 % 1010,0 hPa 0,0 l/m 14,6 km/h (3 Bft) W-SW 245 2 min 0,000 mm 6,4 UV-I 933 W/m 17,6 C 25,5 C 25,7 km/h (4 Bft) 100,00 %
31.07.2016 13:26 26,9 C 54 % 1010,0 hPa 0,0 l/m 15,4 km/h (3 Bft) W-SW 242 2 min 0,000 mm 5,8 UV-I 855 W/m 16,8 C 25,6 C 27,4 km/h (4 Bft) 100,00 %
31.07.2016 13:28 26,7 C 55 % 1010,0 hPa 0,0 l/m 12,2 km/h (2 Bft) W-SW 244 0 min 0,000 mm 3,7 UV-I 373 W/m 16,9 C 25,7 C 24,1 km/h (4 Bft) 100,00 %
31.07.2016 13:30 26,4 C 56 % 1010,0 hPa 0,0 l/m 11,1 km/h (2 Bft) N 355 0 min 0,000 mm 3,3 UV-I 275 W/m 16,9 C 25,5 C 20,9 km/h (4 Bft) 98,00 %
31.07.2016 13:32 26,2 C 58 % 1009,8 hPa 0,0 l/m 9,5 km/h (2 Bft) W 278 0 min 0,000 mm 4,0 UV-I 309 W/m 17,3 C 25,6 C 22,5 km/h (4 Bft) 97,87 %
31.07.2016 13:34 26,2 C 58 % 1009,9 hPa 0,0 l/m 6,9 km/h (2 Bft) W 279 2 min 0,000 mm 5,1 UV-I 730 W/m 17,3 C 26,1 C 12,9 km/h (3 Bft) 100,00 %
31.07.2016 13:36 26,4 C 58 % 1009,8 hPa 0,0 l/m 14,0 km/h (3 Bft) SW 226 2 min 0,000 mm 6,2 UV-I 928 W/m 17,5 C 25,1 C 24,1 km/h (4 Bft) 98,18 %
31.07.2016 13:38 26,6 C 57 % 1009,9 hPa 0,0 l/m 10,8 km/h (2 Bft) W-SW 257 2 min 0,000 mm 5,4 UV-I 990 W/m 17,4 C 25,8 C 20,9 km/h (4 Bft) 100,00 %
31.07.2016 13:40 26,7 C 57 % 1009,9 hPa 0,0 l/m 16,6 km/h (3 Bft) W-NW 284 2 min 0,000 mm 5,7 UV-I 923 W/m 17,5 C 25,2 C 24,1 km/h (4 Bft) 100,00 %
31.07.2016 13:42 26,7 C 57 % 1010,0 hPa 0,0 l/m 17,6 km/h (3 Bft) W-SW 254 2 min 0,000 mm 3,6 UV-I 568 W/m 17,5 C 25,1 C 29,0 km/h (5 Bft) 97,37 %
31.07.2016 13:44 26,5 C 58 % 1009,9 hPa 0,0 l/m 10,4 km/h (2 Bft) S-SW 207 0 min 0,000 mm 2,7 UV-I 388 W/m 17,5 C 25,8 C 19,3 km/h (3 Bft) 98,00 %
31.07.2016 13:46 26,3 C 59 % 1010,0 hPa 0,0 l/m 12,7 km/h (3 Bft) W 261 0 min 0,000 mm 3,6 UV-I 425 W/m 17,6 C 25,2 C 22,5 km/h (4 Bft) 100,00 %
31.07.2016 13:48 26,3 C 58 % 1009,9 hPa 0,0 l/m 16,6 km/h (3 Bft) W 264 0 min 0,000 mm 4,9 UV-I 448 W/m 17,4 C 24,7 C 25,7 km/h (4 Bft) 100,00 %
31.07.2016 13:50 26,3 C 58 % 1009,9 hPa 0,0 l/m 14,2 km/h (3 Bft) SW 234 2 min 0,000 mm 5,5 UV-I 709 W/m 17,4 C 25,0 C 19,3 km/h (3 Bft) 100,00 %
31.07.2016 13:52 26,3 C 58 % 1009,9 hPa 0,0 l/m 15,7 km/h (3 Bft) W-NW 284 2 min 0,000 mm 4,9 UV-I 770 W/m 17,4 C 24,8 C 27,4 km/h (4 Bft) 98,11 %
31.07.2016 13:54 26,2 C 58 % 1009,9 hPa 0,0 l/m 13,3 km/h (3 Bft) SW 225 2 min 0,000 mm 4,1 UV-I 467 W/m 17,3 C 25,0 C 22,5 km/h (4 Bft) 100,00 %
31.07.2016 13:56 26,1 C 59 % 1010,0 hPa 0,0 l/m 14,8 km/h (3 Bft) SW 217 0 min 0,000 mm 3,6 UV-I 391 W/m 17,4 C 24,7 C 27,4 km/h (4 Bft) 100,00 %
31.07.2016 13:58 25,8 C 59 % 1010,0 hPa 0,0 l/m 20,3 km/h (4 Bft) W 269 0 min 0,000 mm 3,4 UV-I 369 W/m 17,2 C 23,7 C 30,6 km/h (5 Bft) 100,00 %
31.07.2016 14:00 25,7 C 60 % 1009,9 hPa 0,0 l/m 15,0 km/h (3 Bft) W-SW 244 0 min 0,000 mm 3,3 UV-I 343 W/m 17,3 C 24,2 C 22,5 km/h (4 Bft) 100,00 %
31.07.2016 14:02 25,4 C 61 % 1010,0 hPa 0,0 l/m 15,9 km/h (3 Bft) SW 219 0 min 0,508 mm 3,3 UV-I 358 W/m 17,3 C 23,7 C 29,0 km/h (5 Bft) 97,73 %
31.07.2016 14:04 25,3 C 62 % 1010,0 hPa 0,0 l/m 15,8 km/h (3 Bft) W 263 0 min 0,000 mm 3,5 UV-I 405 W/m 17,5 C 23,6 C 24,1 km/h (4 Bft) 97,56 %
31.07.2016 14:06 25,3 C 63 % 1009,9 hPa 0,0 l/m 13,3 km/h (3 Bft) W-NW 291 0 min 0,000 mm 3,7 UV-I 449 W/m 17,7 C 23,9 C 20,9 km/h (4 Bft) 100,00 %
31.07.2016 14:08 25,2 C 63 % 1009,9 hPa 0,0 l/m 14,9 km/h (3 Bft) W 259 0 min 0,000 mm 3,6 UV-I 451 W/m 17,6 C 23,6 C 24,1 km/h (4 Bft) 100,00 %
31.07.2016 14:10 25,2 C 64 % 1010,0 hPa 0,0 l/m 17,2 km/h (3 Bft) W-SW 248 0 min 0,000 mm 3,6 UV-I 451 W/m 17,9 C 23,3 C 27,4 km/h (4 Bft) 100,00 %
31.07.2016 14:12 25,2 C 63 % 1010,0 hPa 0,0 l/m 19,6 km/h (3 Bft) W 275 2 min 0,000 mm 3,7 UV-I 476 W/m 17,6 C 23,0 C 25,7 km/h (4 Bft) 100,00 %
31.07.2016 14:14 25,1 C 64 % 1010,0 hPa 0,0 l/m 17,0 km/h (3 Bft) SW 217 2 min 0,000 mm 3,6 UV-I 466 W/m 17,8 C 23,2 C 22,5 km/h (4 Bft) 100,00 %
31.07.2016 14:16 25,0 C 64 % 1010,1 hPa 0,0 l/m 19,8 km/h (3 Bft) SW 232 0 min 0,000 mm 3,5 UV-I 445 W/m 17,7 C 22,7 C 32,2 km/h (5 Bft) 100,00 %
31.07.2016 14:18 24,9 C 65 % 1010,1 hPa 0,0 l/m 15,9 km/h (3 Bft) SW 226 0 min 0,000 mm 3,4 UV-I 441 W/m 17,9 C 23,1 C 25,7 km/h (4 Bft) 100,00 %
31.07.2016 14:20 24,8 C 65 % 1010,0 hPa 0,0 l/m 15,0 km/h (3 Bft) W-SW 250 2 min 0,000 mm 3,7 UV-I 482 W/m 17,8 C 23,1 C 19,3 km/h (3 Bft) 100,00 %
31.07.2016 14:22 24,8 C 66 % 1010,1 hPa 0,0 l/m 10,8 km/h (2 Bft) NW 319 2 min 0,000 mm 4,5 UV-I 533 W/m 18,0 C 23,8 C 19,3 km/h (3 Bft) 100,00 %
31.07.2016 14:24 24,8 C 64 % 1010,0 hPa 0,0 l/m 12,5 km/h (3 Bft) N-NW 331 2 min 0,000 mm 5,1 UV-I 752 W/m 17,5 C 23,5 C 22,5 km/h (4 Bft) 100,00 %
31.07.2016 14:26 24,9 C 65 % 1010,0 hPa 0,0 l/m 9,8 km/h (2 Bft) N-NW 331 2 min 0,000 mm 5,0 UV-I 833 W/m 17,9 C 24,1 C 20,9 km/h (4 Bft) 100,00 %
31.07.2016 14:28 25,0 C 65 % 1010,1 hPa 0,0 l/m 11,1 km/h (2 Bft) W 269 2 min 0,000 mm 4,9 UV-I 824 W/m 17,9 C 24,0 C 20,9 km/h (4 Bft) 100,00 %
31.07.2016 14:30 25,0 C 66 % 1010,1 hPa 0,0 l/m 12,2 km/h (2 Bft) W 279 2 min 0,000 mm 4,5 UV-I 617 W/m 18,2 C 23,8 C 20,9 km/h (4 Bft) 97,56 %
31.07.2016 14:32 24,9 C 65 % 1010,1 hPa 0,0 l/m 14,7 km/h (3 Bft) SW 219 2 min 0,000 mm 3,4 UV-I 465 W/m 17,9 C 23,2 C 22,5 km/h (4 Bft) 97,73 %
31.07.2016 14:34 24,7 C 67 % 1010,1 hPa 0,0 l/m 14,2 km/h (3 Bft) S-SW 207 0 min 0,000 mm 3,2 UV-I 419 W/m 18,1 C 23,1 C 19,3 km/h (3 Bft) 98,11 %
31.07.2016 14:36 24,7 C 67 % 1010,0 hPa 0,0 l/m 7,7 km/h (2 Bft) NW 316 2 min 0,000 mm 3,4 UV-I 455 W/m 18,1 C 24,4 C 17,7 km/h (3 Bft) 97,56 %
31.07.2016 14:38 24,6 C 65 % 1010,0 hPa 0,0 l/m 10,5 km/h (2 Bft) NW 313 2 min 0,000 mm 3,8 UV-I 504 W/m 17,6 C 23,6 C 19,3 km/h (3 Bft) 98,00 %
31.07.2016 14:40 24,5 C 65 % 1010,1 hPa 0,0 l/m 10,3 km/h (2 Bft) W-SW 244 2 min 0,000 mm 3,9 UV-I 542 W/m 17,5 C 23,5 C 19,3 km/h (3 Bft) 98,00 %
31.07.2016 14:42 24,6 C 66 % 1010,1 hPa 0,0 l/m 11,7 km/h (2 Bft) W-SW 257 2 min 0,000 mm 4,2 UV-I 527 W/m 17,8 C 23,4 C 27,4 km/h (4 Bft) 95,74 %
31.07.2016 14:44 24,6 C 66 % 1010,1 hPa 0,0 l/m 12,6 km/h (3 Bft) W 263 2 min 0,000 mm 4,2 UV-I 684 W/m 17,8 C 23,2 C 24,1 km/h (4 Bft) 98,00 %
31.07.2016 14:46 24,5 C 66 % 1010,1 hPa 0,0 l/m 8,2 km/h (2 Bft) SW 215 2 min 0,000 mm 3,9 UV-I 542 W/m 17,7 C 24,0 C 22,5 km/h (4 Bft) 95,83 %
31.07.2016 14:48 24,4 C 66 % 1010,1 hPa 0,0 l/m 11,1 km/h (2 Bft) SW 229 2 min 0,000 mm 3,6 UV-I 546 W/m 17,6 C 23,3 C 22,5 km/h (4 Bft) 96,88 %
31.07.2016 14:50 24,4 C 67 % 1010,0 hPa 0,0 l/m 9,3 km/h (2 Bft) W-SW 252 2 min 0,000 mm 3,6 UV-I 448 W/m 17,9 C 23,7 C 17,7 km/h (3 Bft) 98,11 %
31.07.2016 14:52 24,5 C 67 % 1010,0 hPa 0,0 l/m 9,2 km/h (2 Bft) W 267 2 min 0,000 mm 3,4 UV-I 500 W/m 18,0 C 23,8 C 16,1 km/h (3 Bft) 97,62 %
31.07.2016 14:54 24,4 C 67 % 1010,0 hPa 0,0 l/m 8,8 km/h (2 Bft) W-NW 282 0 min 0,000 mm 3,1 UV-I 407 W/m 17,9 C 23,8 C 14,5 km/h (3 Bft) 97,87 %
31.07.2016 14:56 24,4 C 67 % 1009,9 hPa 0,0 l/m 12,2 km/h (2 Bft) N-NW 341 0 min 0,000 mm 3,2 UV-I 408 W/m 17,9 C 23,1 C 20,9 km/h (4 Bft) 95,74 %
31.07.2016 14:58 24,3 C 66 % 1009,9 hPa 0,0 l/m 14,4 km/h (3 Bft) S-SW 212 0 min 0,000 mm 2,9 UV-I 369 W/m 17,5 C 22,6 C 22,5 km/h (4 Bft) 96,00 %
31.07.2016 15:00 24,3 C 68 % 1009,9 hPa 0,0 l/m 9,8 km/h (2 Bft) W-SW 237 0 min 0,000 mm 2,8 UV-I 347 W/m 18,0 C 23,4 C 19,3 km/h (3 Bft) 97,37 %
31.07.2016 15:02 24,2 C 68 % 1010,0 hPa 0,0 l/m 14,0 km/h (3 Bft) W-NW 282 0 min 0,381 mm 2,5 UV-I 326 W/m 17,9 C 22,5 C 19,3 km/h (3 Bft) 96,23 %
31.07.2016 15:04 24,1 C 66 % 1010,0 hPa 0,0 l/m 17,1 km/h (3 Bft) W-SW 254 0 min 0,000 mm 2,4 UV-I 298 W/m 17,3 C 21,9 C 25,7 km/h (4 Bft) 97,56 %
31.07.2016 15:06 23,9 C 67 % 1010,0 hPa 0,0 l/m 15,3 km/h (3 Bft) W-SW 254 0 min 0,000 mm 2,4 UV-I 284 W/m 17,4 C 21,9 C 22,5 km/h (4 Bft) 100,00 %
31.07.2016 15:08 23,8 C 68 % 1010,0 hPa 0,0 l/m 12,6 km/h (3 Bft) W 276 0 min 0,000 mm 2,3 UV-I 273 W/m 17,5 C 22,3 C 17,7 km/h (3 Bft) 100,00 %
31.07.2016 15:10 23,8 C 67 % 1010,0 hPa 0,0 l/m 13,1 km/h (3 Bft) SW 229 0 min 0,000 mm 2,1 UV-I 264 W/m 17,3 C 22,2 C 19,3 km/h (3 Bft) 97,87 %
31.07.2016 15:12 23,7 C 69 % 1010,1 hPa 0,0 l/m 10,8 km/h (2 Bft) W-SW 247 0 min 0,000 mm 1,9 UV-I 234 W/m 17,7 C 22,5 C 16,1 km/h (3 Bft) 100,00 %
31.07.2016 15:14 23,6 C 69 % 1010,2 hPa 0,0 l/m 12,4 km/h (3 Bft) W 280 0 min 0,000 mm 1,6 UV-I 206 W/m 17,6 C 22,1 C 19,3 km/h (3 Bft) 97,73 %
31.07.2016 15:16 23,5 C 67 % 1010,1 hPa 0,0 l/m 11,0 km/h (2 Bft) W-SW 240 0 min 0,000 mm 1,4 UV-I 189 W/m 17,0 C 22,3 C 16,1 km/h (3 Bft) 98,21 %
31.07.2016 15:18 23,4 C 68 % 1010,1 hPa 0,0 l/m 14,4 km/h (3 Bft) W 261 0 min 0,000 mm 1,4 UV-I 197 W/m 17,1 C 21,5 C 22,5 km/h (4 Bft) 100,00 %
31.07.2016 15:20 23,3 C 67 % 1010,0 hPa 0,0 l/m 13,6 km/h (3 Bft) W-SW 257 0 min 0,000 mm 1,5 UV-I 213 W/m 16,8 C 21,5 C 22,5 km/h (4 Bft) 100,00 %
31.07.2016 15:22 23,3 C 66 % 1010,0 hPa 0,0 l/m 8,8 km/h (2 Bft) NW 319 0 min 0,000 mm 1,4 UV-I 195 W/m 16,6 C 22,6 C 14,5 km/h (3 Bft) 100,00 %
31.07.2016 15:24 23,2 C 68 % 1010,0 hPa 0,0 l/m 8,6 km/h (2 Bft) W-SW 250 0 min 0,000 mm 1,1 UV-I 159 W/m 17,0 C 22,5 C 19,3 km/h (3 Bft) 100,00 %
31.07.2016 15:26 23,2 C 68 % 1010,1 hPa 0,0 l/m 16,0 km/h (3 Bft) S-SW 211 0 min 0,000 mm 0,9 UV-I 126 W/m 17,0 C 21,0 C 27,4 km/h (4 Bft) 100,00 %
31.07.2016 15:28 23,1 C 68 % 1010,1 hPa 0,0 l/m 10,2 km/h (2 Bft) W 273 0 min 0,000 mm 0,7 UV-I 99 W/m 16,9 C 22,0 C 17,7 km/h (3 Bft) 100,00 %
31.07.2016 15:30 23,0 C 67 % 1010,2 hPa 0,0 l/m 16,2 km/h (3 Bft) W-SW 258 0 min 0,000 mm 0,6 UV-I 83 W/m 16,5 C 20,7 C 25,7 km/h (4 Bft) 100,00 %
31.07.2016 15:32 23,0 C 68 % 1010,3 hPa 0,0 l/m 12,5 km/h (3 Bft) W-SW 238 0 min 0,000 mm 0,5 UV-I 73 W/m 16,8 C 21,4 C 17,7 km/h (3 Bft) 100,00 %
31.07.2016 15:34 22,9 C 68 % 1010,3 hPa 0,0 l/m 15,3 km/h (3 Bft) W-SW 256 0 min 0,000 mm 0,5 UV-I 66 W/m 16,7 C 20,7 C 22,5 km/h (4 Bft) 98,21 %
31.07.2016 15:36 22,8 C 68 % 1010,3 hPa 0,0 l/m 16,0 km/h (3 Bft) W-SW 246 0 min 0,000 mm 0,5 UV-I 69 W/m 16,6 C 20,5 C 24,1 km/h (4 Bft) 98,00 %
31.07.2016 15:38 22,8 C 67 % 1010,4 hPa 0,0 l/m 15,4 km/h (3 Bft) W-SW 238 0 min 0,000 mm 0,6 UV-I 77 W/m 16,3 C 20,6 C 24,1 km/h (4 Bft) 100,00 %
31.07.2016 15:40 22,7 C 68 % 1010,3 hPa 0,0 l/m 11,2 km/h (2 Bft) W-SW 246 0 min 0,000 mm 0,6 UV-I 80 W/m 16,5 C 21,3 C 17,7 km/h (3 Bft) 98,00 %
31.07.2016 15:42 22,7 C 68 % 1010,3 hPa 0,0 l/m 12,4 km/h (3 Bft) W 265 0 min 0,000 mm 0,6 UV-I 77 W/m 16,5 C 21,0 C 19,3 km/h (3 Bft) 97,87 %
31.07.2016 15:44 22,6 C 68 % 1010,3 hPa 0,0 l/m 12,1 km/h (2 Bft) W 273 0 min 0,000 mm 0,6 UV-I 77 W/m 16,4 C 21,0 C 19,3 km/h (3 Bft) 100,00 %
31.07.2016 15:46 22,6 C 69 % 1010,2 hPa 0,0 l/m 11,9 km/h (2 Bft) W 273 0 min 0,000 mm 0,6 UV-I 80 W/m 16,6 C 21,0 C 19,3 km/h (3 Bft) 100,00 %
31.07.2016 15:48 22,5 C 69 % 1010,3 hPa 0,0 l/m 14,1 km/h (3 Bft) W-SW 240 0 min 0,000 mm 0,6 UV-I 81 W/m 16,5 C 20,5 C 22,5 km/h (4 Bft) 100,00 %
31.07.2016 15:50 22,4 C 70 % 1010,3 hPa 0,0 l/m 13,6 km/h (3 Bft) W 270 0 min 0,000 mm 0,6 UV-I 81 W/m 16,7 C 20,4 C 19,3 km/h (3 Bft) 100,00 %
31.07.2016 15:52 22,4 C 71 % 1010,3 hPa 0,0 l/m 11,2 km/h (2 Bft) W 273 0 min 0,000 mm 0,6 UV-I 86 W/m 16,9 C 21,0 C 19,3 km/h (3 Bft) 100,00 %
31.07.2016 15:54 22,3 C 73 % 1010,4 hPa 0,0 l/m 15,3 km/h (3 Bft) W-SW 242 0 min 0,000 mm 0,6 UV-I 93 W/m 17,2 C 20,0 C 20,9 km/h (4 Bft) 100,00 %
31.07.2016 15:56 22,2 C 75 % 1010,5 hPa 0,0 l/m 12,7 km/h (3 Bft) W 259 0 min 0,000 mm 0,7 UV-I 99 W/m 17,5 C 20,4 C 17,7 km/h (3 Bft) 100,00 %
31.07.2016 15:58 22,0 C 74 % 1010,6 hPa 0,0 l/m 12,5 km/h (3 Bft) W-SW 254 0 min 0,000 mm 0,7 UV-I 98 W/m 17,1 C 20,2 C 20,9 km/h (4 Bft) 100,00 %
31.07.2016 16:00 21,8 C 77 % 1010,6 hPa 0,0 l/m 11,8 km/h (2 Bft) W-SW 254 0 min 0,152 mm 0,6 UV-I 88 W/m 17,6 C 20,2 C 14,5 km/h (3 Bft) 98,11 %
31.07.2016 16:02 21,7 C 77 % 1010,7 hPa 0,0 l/m 10,8 km/h (2 Bft) SW 233 0 min 0,000 mm 0,3 UV-I 71 W/m 17,5 C 20,3 C 17,7 km/h (3 Bft) 100,00 %
31.07.2016 16:04 21,6 C 77 % 1010,8 hPa 0,0 l/m 14,3 km/h (3 Bft) SW 235 0 min 0,000 mm 0,0 UV-I 53 W/m 17,4 C 19,3 C 22,5 km/h (4 Bft) 100,00 %
31.07.2016 16:06 21,4 C 78 % 1010,8 hPa 0,0 l/m 10,5 km/h (2 Bft) W-SW 240 0 min 0,000 mm 0,0 UV-I 44 W/m 17,4 C 20,0 C 16,1 km/h (3 Bft) 100,00 %
31.07.2016 16:08 21,3 C 78 % 1010,9 hPa 0,0 l/m 12,1 km/h (2 Bft) W 263 0 min 0,000 mm 0,0 UV-I 41 W/m 17,3 C 19,5 C 19,3 km/h (3 Bft) 100,00 %
31.07.2016 16:10 21,3 C 78 % 1010,8 hPa 0,0 l/m 12,5 km/h (3 Bft) W-SW 255 0 min 0,000 mm 0,0 UV-I 44 W/m 17,3 C 19,4 C 17,7 km/h (3 Bft) 100,00 %
31.07.2016 16:12 21,3 C 79 % 1010,9 hPa 0,0 l/m 12,5 km/h (3 Bft) W 264 0 min 0,000 mm 0,0 UV-I 50 W/m 17,5 C 19,4 C 16,1 km/h (3 Bft) 100,00 %
31.07.2016 16:14 21,2 C 78 % 1010,8 hPa 0,0 l/m 11,3 km/h (2 Bft) W-SW 247 0 min 0,000 mm 0,0 UV-I 54 W/m 17,2 C 19,6 C 16,1 km/h (3 Bft) 96,15 %
31.07.2016 16:16 21,1 C 79 % 1010,9 hPa 0,2 l/m 12,8 km/h (3 Bft) W-SW 252 0 min 0,000 mm 0,0 UV-I 54 W/m 17,3 C 19,1 C 20,9 km/h (4 Bft) 100,00 %
31.07.2016 16:18 20,9 C 80 % 1011,0 hPa 0,0 l/m 15,9 km/h (3 Bft) W-SW 248 0 min 0,000 mm 0,0 UV-I 53 W/m 17,3 C 18,1 C 24,1 km/h (4 Bft) 100,00 %
31.07.2016 16:20 20,8 C 81 % 1011,0 hPa 0,2 l/m 12,4 km/h (3 Bft) S 176 0 min 0,000 mm 0,0 UV-I 49 W/m 17,4 C 18,8 C 20,9 km/h (4 Bft) 97,87 %
31.07.2016 16:22 20,7 C 82 % 1011,2 hPa 0,0 l/m 11,1 km/h (2 Bft) SW 232 0 min 0,000 mm 0,0 UV-I 42 W/m 17,5 C 19,1 C 20,9 km/h (4 Bft) 97,87 %
31.07.2016 16:24 20,4 C 82 % 1011,3 hPa 0,0 l/m 11,1 km/h (2 Bft) SW 227 0 min 0,000 mm 0,0 UV-I 36 W/m 17,2 C 18,7 C 16,1 km/h (3 Bft) 97,56 %
31.07.2016 16:26 20,3 C 83 % 1011,3 hPa 0,0 l/m 12,6 km/h (3 Bft) SW 232 0 min 0,000 mm 0,0 UV-I 39 W/m 17,3 C 18,2 C 19,3 km/h (3 Bft) 98,11 %
31.07.2016 16:28 20,2 C 84 % 1011,1 hPa 0,0 l/m 15,1 km/h (3 Bft) W-SW 253 0 min 0,000 mm 0,0 UV-I 50 W/m 17,4 C 17,5 C 20,9 km/h (4 Bft) 97,56 %
31.07.2016 16:30 20,1 C 84 % 1011,1 hPa 0,0 l/m 11,7 km/h (2 Bft) W 262 0 min 0,000 mm 0,0 UV-I 64 W/m 17,3 C 18,2 C 17,7 km/h (3 Bft) 98,00 %
31.07.2016 16:32 20,0 C 85 % 1011,1 hPa 0,0 l/m 13,6 km/h (3 Bft) W-SW 238 0 min 0,000 mm 0,3 UV-I 81 W/m 17,4 C 17,6 C 17,7 km/h (3 Bft) 95,00 %
31.07.2016 16:34 19,9 C 85 % 1011,2 hPa 0,2 l/m 15,5 km/h (3 Bft) W-SW 239 0 min 0,000 mm 0,5 UV-I 92 W/m 17,3 C 17,0 C 24,1 km/h (4 Bft) 96,00 %
31.07.2016 16:36 19,8 C 85 % 1011,1 hPa 0,0 l/m 13,6 km/h (3 Bft) W-NW 300 0 min 0,000 mm 0,5 UV-I 101 W/m 17,2 C 17,4 C 20,9 km/h (4 Bft) 97,87 %
31.07.2016 16:38 19,7 C 85 % 1011,1 hPa 0,2 l/m 12,5 km/h (3 Bft) W 263 0 min 0,000 mm 0,6 UV-I 114 W/m 17,1 C 17,5 C 17,7 km/h (3 Bft) 96,00 %
31.07.2016 16:40 19,5 C 87 % 1011,2 hPa 0,2 l/m 13,3 km/h (3 Bft) SW 218 0 min 0,000 mm 0,7 UV-I 136 W/m 17,3 C 17,1 C 20,9 km/h (4 Bft) 97,56 %
31.07.2016 16:42 19,3 C 87 % 1011,2 hPa 0,2 l/m 15,7 km/h (3 Bft) W-SW 238 0 min 0,000 mm 0,8 UV-I 166 W/m 17,1 C 16,2 C 20,9 km/h (4 Bft) 96,43 %
31.07.2016 16:44 19,2 C 88 % 1011,2 hPa 0,0 l/m 12,6 km/h (3 Bft) W-SW 238 0 min 0,000 mm 1,0 UV-I 204 W/m 17,2 C 16,9 C 20,9 km/h (4 Bft) 100,00 %
31.07.2016 16:46 19,1 C 88 % 1011,1 hPa 0,0 l/m 9,0 km/h (2 Bft) W-SW 246 0 min 0,000 mm 1,2 UV-I 238 W/m 17,1 C 18,0 C 14,5 km/h (3 Bft) 96,15 %
31.07.2016 16:48 19,1 C 88 % 1011,0 hPa 0,0 l/m 7,0 km/h (2 Bft) W-NW 288 0 min 0,000 mm 1,3 UV-I 277 W/m 17,1 C 18,8 C 11,3 km/h (2 Bft) 97,44 %
31.07.2016 16:50 19,1 C 89 % 1011,0 hPa 0,2 l/m 4,1 km/h (1 Bft) W 265 0 min 0,000 mm 1,4 UV-I 316 W/m 17,2 C 19,1 C 12,9 km/h (3 Bft) 96,00 %
31.07.2016 16:52 19,1 C 90 % 1011,0 hPa 0,0 l/m 8,9 km/h (2 Bft) W-SW 251 2 min 0,000 mm 1,5 UV-I 340 W/m 17,4 C 18,0 C 14,5 km/h (3 Bft) 95,74 %
31.07.2016 16:54 19,2 C 91 % 1010,9 hPa 0,0 l/m 7,6 km/h (2 Bft) W 265 2 min 0,000 mm 1,7 UV-I 412 W/m 17,7 C 18,7 C 11,3 km/h (2 Bft) 97,87 %
31.07.2016 16:56 19,3 C 90 % 1011,0 hPa 0,0 l/m 7,7 km/h (2 Bft) W 277 2 min 0,000 mm 1,7 UV-I 371 W/m 17,6 C 18,7 C 11,3 km/h (2 Bft) 97,87 %
31.07.2016 16:58 19,4 C 90 % 1011,0 hPa 0,0 l/m 7,1 km/h (2 Bft) W-SW 255 2 min 0,000 mm 1,6 UV-I 331 W/m 17,7 C 19,1 C 14,5 km/h (3 Bft) 96,23 %
31.07.2016 17:00 19,4 C 89 % 1011,0 hPa 0,0 l/m 12,6 km/h (3 Bft) W 275 0 min 0,000 mm 1,5 UV-I 282 W/m 17,5 C 17,2 C 19,3 km/h (3 Bft) 97,73 %
31.07.2016 17:02 19,4 C 89 % 1011,1 hPa 0,0 l/m 8,6 km/h (2 Bft) W-SW 250 0 min 0,102 mm 1,3 UV-I 247 W/m 17,5 C 18,5 C 14,5 km/h (3 Bft) 98,11 %
31.07.2016 17:04 19,4 C 87 % 1011,1 hPa 0,0 l/m 5,5 km/h (1 Bft) W 262 0 min 0,000 mm 1,2 UV-I 224 W/m 17,2 C 19,4 C 16,1 km/h (3 Bft) 100,00 %
31.07.2016 17:06 19,3 C 87 % 1011,1 hPa 0,0 l/m 7,3 km/h (2 Bft) W 263 0 min 0,000 mm 1,1 UV-I 197 W/m 17,1 C 18,9 C 11,3 km/h (2 Bft) 100,00 %
31.07.2016 17:08 19,3 C 87 % 1011,2 hPa 0,0 l/m 7,9 km/h (2 Bft) W-SW 249 0 min 0,000 mm 0,8 UV-I 160 W/m 17,1 C 18,7 C 17,7 km/h (3 Bft) 100,00 %
31.07.2016 17:10 19,3 C 86 % 1011,2 hPa 0,0 l/m 7,8 km/h (2 Bft) W-SW 244 0 min 0,000 mm 0,6 UV-I 123 W/m 16,9 C 18,7 C 14,5 km/h (3 Bft) 97,37 %
31.07.2016 17:12 19,2 C 86 % 1011,2 hPa 0,0 l/m 6,7 km/h (2 Bft) W-SW 242 0 min 0,000 mm 0,3 UV-I 90 W/m 16,8 C 19,1 C 11,3 km/h (2 Bft) 100,00 %
31.07.2016 17:14 19,2 C 87 % 1011,3 hPa 0,0 l/m 5,8 km/h (2 Bft) W-SW 237 0 min 0,000 mm 0,0 UV-I 72 W/m 17,0 C 19,2 C 9,7 km/h (2 Bft) 100,00 %
31.07.2016 17:16 19,2 C 87 % 1011,3 hPa 0,0 l/m 4,4 km/h (1 Bft) W 277 0 min 0,000 mm 0,0 UV-I 62 W/m 17,0 C 19,2 C 6,4 km/h (2 Bft) 100,00 %
31.07.2016 17:18 19,2 C 87 % 1011,3 hPa 0,0 l/m 4,7 km/h (1 Bft) W 269 0 min 0,000 mm 0,0 UV-I 57 W/m 17,0 C 19,2 C 9,7 km/h (2 Bft) 100,00 %
31.07.2016 17:20 19,1 C 87 % 1011,3 hPa 0,0 l/m 4,7 km/h (1 Bft) W 266 0 min 0,000 mm 0,0 UV-I 53 W/m 16,9 C 19,1 C 6,4 km/h (2 Bft) 100,00 %
31.07.2016 17:22 19,1 C 88 % 1011,3 hPa 0,0 l/m 4,4 km/h (1 Bft) W-SW 252 0 min 0,000 mm 0,0 UV-I 48 W/m 17,1 C 19,1 C 4,8 km/h (1 Bft) 100,00 %
31.07.2016 17:24 19,1 C 87 % 1011,3 hPa 0,0 l/m 4,2 km/h (1 Bft) W 266 0 min 0,000 mm 0,0 UV-I 44 W/m 16,9 C 19,1 C 6,4 km/h (2 Bft) 100,00 %
31.07.2016 17:26 19,1 C 89 % 1011,2 hPa 0,0 l/m 4,8 km/h (1 Bft) W 261 0 min 0,000 mm 0,0 UV-I 41 W/m 17,2 C 19,1 C 6,4 km/h (2 Bft) 100,00 %
31.07.2016 17:28 19,1 C 88 % 1011,2 hPa 0,0 l/m 5,2 km/h (1 Bft) W 260 0 min 0,000 mm 0,0 UV-I 46 W/m 17,1 C 19,1 C 8,0 km/h (2 Bft) 100,00 %
31.07.2016 17:30 19,0 C 88 % 1011,3 hPa 0,0 l/m 3,8 km/h (1 Bft) W 260 0 min 0,000 mm 0,0 UV-I 48 W/m 17,0 C 19,0 C 4,8 km/h (1 Bft) 100,00 %
31.07.2016 17:32 19,0 C 89 % 1011,3 hPa 0,0 l/m 5,8 km/h (2 Bft) W-SW 250 0 min 0,000 mm 0,0 UV-I 45 W/m 17,1 C 19,0 C 8,0 km/h (2 Bft) 100,00 %
31.07.2016 17:34 19,0 C 89 % 1011,3 hPa 0,0 l/m 5,1 km/h (1 Bft) W 263 0 min 0,000 mm 0,0 UV-I 49 W/m 17,1 C 19,0 C 9,7 km/h (2 Bft) 97,87 %
31.07.2016 17:36 18,9 C 89 % 1011,3 hPa 0,0 l/m 4,5 km/h (1 Bft) W-SW 257 0 min 0,000 mm 0,0 UV-I 48 W/m 17,0 C 18,9 C 6,4 km/h (2 Bft) 100,00 %
31.07.2016 17:38 18,9 C 89 % 1011,2 hPa 0,0 l/m 4,5 km/h (1 Bft) W-SW 256 0 min 0,000 mm 0,0 UV-I 45 W/m 17,0 C 18,9 C 6,4 km/h (2 Bft) 100,00 %
31.07.2016 17:40 18,9 C 89 % 1011,2 hPa 0,0 l/m 5,0 km/h (1 Bft) W 261 0 min 0,000 mm 0,0 UV-I 51 W/m 17,0 C 18,9 C 9,7 km/h (2 Bft) 100,00 %
31.07.2016 17:42 19,0 C 90 % 1011,2 hPa 0,0 l/m 5,4 km/h (1 Bft) W 275 0 min 0,000 mm 0,0 UV-I 59 W/m 17,3 C 19,0 C 11,3 km/h (2 Bft) 100,00 %
31.07.2016 17:44 19,0 C 89 % 1011,1 hPa 0,0 l/m 3,8 km/h (1 Bft) W 259 0 min 0,000 mm 0,0 UV-I 64 W/m 17,1 C 19,0 C 6,4 km/h (2 Bft) 98,11 %
31.07.2016 17:46 18,9 C 89 % 1011,1 hPa 0,0 l/m 2,5 km/h (1 Bft) W-SW 243 0 min 0,000 mm 0,0 UV-I 71 W/m 17,0 C 18,9 C 4,8 km/h (1 Bft) 100,00 %
31.07.2016 17:48 18,9 C 90 % 1011,0 hPa 0,0 l/m 2,2 km/h (1 Bft) W-SW 245 0 min 0,000 mm 0,0 UV-I 80 W/m 17,2 C 18,9 C 3,2 km/h (1 Bft) 97,87 %
31.07.2016 17:50 19,0 C 90 % 1011,0 hPa 0,0 l/m 2,4 km/h (1 Bft) W 273 0 min 0,000 mm 0,0 UV-I 93 W/m 17,3 C 19,0 C 4,8 km/h (1 Bft) 97,87 %
31.07.2016 17:52 19,0 C 90 % 1011,0 hPa 0,0 l/m 2,7 km/h (1 Bft) W 273 0 min 0,000 mm 0,2 UV-I 109 W/m 17,3 C 19,0 C 4,8 km/h (1 Bft) 100,00 %
31.07.2016 17:54 19,1 C 89 % 1010,9 hPa 0,0 l/m 2,5 km/h (1 Bft) W 273 0 min 0,000 mm 0,5 UV-I 124 W/m 17,2 C 19,1 C 4,8 km/h (1 Bft) 100,00 %
31.07.2016 17:56 19,2 C 91 % 1010,9 hPa 0,0 l/m 2,7 km/h (1 Bft) W 273 0 min 0,000 mm 0,5 UV-I 134 W/m 17,7 C 19,2 C 4,8 km/h (1 Bft) 100,00 %
31.07.2016 17:58 19,2 C 89 % 1010,9 hPa 0,0 l/m 3,4 km/h (1 Bft) W 273 0 min 0,000 mm 0,5 UV-I 144 W/m 17,3 C 19,2 C 4,8 km/h (1 Bft) 100,00 %
31.07.2016 18:00 19,3 C 89 % 1010,9 hPa 0,0 l/m 3,0 km/h (1 Bft) W 273 0 min 0,051 mm 0,6 UV-I 166 W/m 17,4 C 19,3 C 6,4 km/h (2 Bft) 96,23 %
31.07.2016 18:02 19,4 C 90 % 1010,9 hPa 0,0 l/m 3,6 km/h (1 Bft) W-SW 252 0 min 0,000 mm 0,6 UV-I 178 W/m 17,7 C 19,4 C 6,4 km/h (2 Bft) 97,44 %
31.07.2016 18:04 19,5 C 87 % 1010,9 hPa 0,0 l/m 4,0 km/h (1 Bft) W 271 0 min 0,000 mm 0,6 UV-I 173 W/m 17,3 C 19,5 C 6,4 km/h (2 Bft) 100,00 %
31.07.2016 18:06 19,6 C 88 % 1010,9 hPa 0,0 l/m 1,6 km/h (1 Bft) W 271 0 min 0,000 mm 0,6 UV-I 158 W/m 17,6 C 19,6 C 3,2 km/h (1 Bft) 98,11 %
31.07.2016 18:08 19,6 C 89 % 1010,8 hPa 0,0 l/m 1,0 km/h (0 Bft) W 271 0 min 0,000 mm 0,6 UV-I 151 W/m 17,7 C 19,6 C 1,6 km/h (1 Bft) 100,00 %
31.07.2016 18:10 19,6 C 88 % 1010,9 hPa 0,0 l/m 0,0 km/h (0 Bft) W 271 0 min 0,000 mm 0,6 UV-I 135 W/m 17,6 C 19,6 C 0,0 km/h (0 Bft) 100,00 %
31.07.2016 18:12 19,6 C 86 % 1010,9 hPa 0,0 l/m 1,9 km/h (1 Bft) W-SW 251 0 min 0,000 mm 0,5 UV-I 115 W/m 17,2 C 19,6 C 4,8 km/h (1 Bft) 100,00 %
31.07.2016 18:14 19,6 C 86 % 1010,9 hPa 0,0 l/m 0,8 km/h (0 Bft) W-SW 251 0 min 0,000 mm 0,5 UV-I 104 W/m 17,2 C 19,6 C 3,2 km/h (1 Bft) 98,00 %
31.07.2016 18:16 19,6 C 86 % 1010,9 hPa 0,0 l/m 0,8 km/h (0 Bft) W-SW 251 0 min 0,000 mm 0,3 UV-I 95 W/m 17,2 C 19,6 C 1,6 km/h (1 Bft) 100,00 %
31.07.2016 18:18 19,6 C 87 % 1011,0 hPa 0,0 l/m 0,2 km/h (0 Bft) W-SW 251 0 min 0,000 mm 0,0 UV-I 89 W/m 17,4 C 19,6 C 1,6 km/h (1 Bft) 97,87 %
31.07.2016 18:20 19,6 C 87 % 1011,0 hPa 0,0 l/m 0,6 km/h (0 Bft) W-SW 251 0 min 0,000 mm 0,0 UV-I 89 W/m 17,4 C 19,6 C 3,2 km/h (1 Bft) 100,00 %
31.07.2016 18:22 19,6 C 87 % 1011,0 hPa 0,0 l/m 0,8 km/h (0 Bft) W-SW 251 0 min 0,000 mm 0,0 UV-I 85 W/m 17,4 C 19,6 C 3,2 km/h (1 Bft) 100,00 %
31.07.2016 18:24 19,6 C 87 % 1011,0 hPa 0,0 l/m 1,0 km/h (0 Bft) W-SW 251 0 min 0,000 mm 0,0 UV-I 81 W/m 17,4 C 19,6 C 3,2 km/h (1 Bft) 98,11 %
31.07.2016 18:26 19,6 C 88 % 1011,0 hPa 0,0 l/m 1,0 km/h (0 Bft) W-SW 251 0 min 0,000 mm 0,0 UV-I 75 W/m 17,6 C 19,6 C 3,2 km/h (1 Bft) 100,00 %
31.07.2016 18:28 19,7 C 88 % 1011,0 hPa 0,0 l/m 1,4 km/h (1 Bft) W-SW 251 0 min 0,000 mm 0,0 UV-I 66 W/m 17,7 C 19,7 C 3,2 km/h (1 Bft) 97,87 %
31.07.2016 18:30 19,6 C 86 % 1011,0 hPa 0,0 l/m 2,5 km/h (1 Bft) W-SW 251 0 min 0,000 mm 0,0 UV-I 64 W/m 17,2 C 19,6 C 4,8 km/h (1 Bft) 96,00 %
31.07.2016 18:32 19,6 C 87 % 1011,0 hPa 0,0 l/m 1,7 km/h (1 Bft) W-SW 251 0 min 0,000 mm 0,0 UV-I 68 W/m 17,4 C 19,6 C 3,2 km/h (1 Bft) 97,87 %
31.07.2016 18:34 19,6 C 86 % 1011,0 hPa 0,0 l/m 1,8 km/h (1 Bft) W-SW 251 0 min 0,000 mm 0,0 UV-I 74 W/m 17,2 C 19,6 C 4,8 km/h (1 Bft) 97,87 %
31.07.2016 18:36 19,6 C 85 % 1010,9 hPa 0,0 l/m 1,4 km/h (1 Bft) W-SW 251 0 min 0,000 mm 0,0 UV-I 76 W/m 17,0 C 19,6 C 3,2 km/h (1 Bft) 98,11 %
31.07.2016 18:38 19,7 C 86 % 1010,9 hPa 0,0 l/m 1,2 km/h (1 Bft) W-SW 251 0 min 0,000 mm 0,0 UV-I 74 W/m 17,3 C 19,7 C 3,2 km/h (1 Bft) 94,74 %
31.07.2016 18:40 19,7 C 87 % 1010,9 hPa 0,0 l/m 1,6 km/h (1 Bft) W-SW 251 0 min 0,000 mm 0,0 UV-I 71 W/m 17,5 C 19,7 C 3,2 km/h (1 Bft) 98,00 %
31.07.2016 18:42 19,7 C 86 % 1010,8 hPa 0,0 l/m 0,9 km/h (0 Bft) W-SW 251 0 min 0,000 mm 0,0 UV-I 67 W/m 17,3 C 19,7 C 3,2 km/h (1 Bft) 98,11 %
31.07.2016 18:44 19,7 C 87 % 1010,9 hPa 0,0 l/m 0,8 km/h (0 Bft) W-SW 251 0 min 0,000 mm 0,0 UV-I 59 W/m 17,5 C 19,7 C 3,2 km/h (1 Bft) 97,44 %
31.07.2016 18:46 19,7 C 86 % 1010,8 hPa 0,0 l/m 0,9 km/h (0 Bft) W-SW 251 0 min 0,000 mm 0,0 UV-I 52 W/m 17,3 C 19,7 C 3,2 km/h (1 Bft) 96,00 %
31.07.2016 18:48 19,7 C 85 % 1010,9 hPa 0,0 l/m 2,3 km/h (1 Bft) W-SW 251 0 min 0,000 mm 0,0 UV-I 48 W/m 17,1 C 19,7 C 4,8 km/h (1 Bft) 94,00 %
31.07.2016 18:50 19,7 C 87 % 1010,9 hPa 0,0 l/m 1,3 km/h (1 Bft) W-SW 250 0 min 0,000 mm 0,0 UV-I 47 W/m 17,5 C 19,7 C 3,2 km/h (1 Bft) 97,56 %
31.07.2016 18:52 19,7 C 86 % 1010,8 hPa 0,0 l/m 2,4 km/h (1 Bft) W-SW 250 0 min 0,000 mm 0,0 UV-I 44 W/m 17,3 C 19,7 C 4,8 km/h (1 Bft) 97,87 %
31.07.2016 18:54 19,7 C 87 % 1010,8 hPa 0,0 l/m 3,2 km/h (1 Bft) W-SW 250 0 min 0,000 mm 0,0 UV-I 44 W/m 17,5 C 19,7 C 4,8 km/h (1 Bft) 97,87 %
31.07.2016 18:56 19,7 C 87 % 1010,7 hPa 0,0 l/m 2,6 km/h (1 Bft) S-SW 199 0 min 0,000 mm 0,0 UV-I 46 W/m 17,5 C 19,7 C 4,8 km/h (1 Bft) 97,87 %
31.07.2016 18:58 19,7 C 87 % 1010,7 hPa 0,0 l/m 3,5 km/h (1 Bft) S-SW 199 0 min 0,000 mm 0,0 UV-I 50 W/m 17,5 C 19,7 C 4,8 km/h (1 Bft) 98,00 %
31.07.2016 19:00 19,7 C 86 % 1010,6 hPa 0,0 l/m 2,3 km/h (1 Bft) S-SW 199 0 min 0,000 mm 0,0 UV-I 52 W/m 17,3 C 19,7 C 4,8 km/h (1 Bft) 98,00 %
31.07.2016 19:02 19,7 C 86 % 1010,5 hPa 0,0 l/m 2,4 km/h (1 Bft) S-SW 199 0 min 0,050 mm 0,0 UV-I 52 W/m 17,3 C 19,7 C 4,8 km/h (1 Bft) 100,00 %
31.07.2016 19:04 19,7 C 87 % 1010,5 hPa 0,0 l/m 3,0 km/h (1 Bft) S-SW 199 0 min 0,000 mm 0,0 UV-I 48 W/m 17,5 C 19,7 C 4,8 km/h (1 Bft) 100,00 %
31.07.2016 19:06 19,7 C 87 % 1010,5 hPa 0,0 l/m 3,0 km/h (1 Bft) S-SW 199 0 min 0,000 mm 0,0 UV-I 42 W/m 17,5 C 19,7 C 4,8 km/h (1 Bft) 97,87 %
31.07.2016 19:08 19,7 C 87 % 1010,5 hPa 0,0 l/m 3,2 km/h (1 Bft) S-SW 199 0 min 0,000 mm 0,0 UV-I 35 W/m 17,5 C 19,7 C 6,4 km/h (2 Bft) 100,00 %
31.07.2016 19:10 19,7 C 88 % 1010,4 hPa 0,0 l/m 2,3 km/h (1 Bft) S-SW 199 0 min 0,000 mm 0,0 UV-I 32 W/m 17,7 C 19,7 C 4,8 km/h (1 Bft) 97,56 %
31.07.2016 19:12 19,7 C 88 % 1010,4 hPa 0,0 l/m 2,3 km/h (1 Bft) S-SW 199 0 min 0,000 mm 0,0 UV-I 32 W/m 17,7 C 19,7 C 3,2 km/h (1 Bft) 100,00 %
31.07.2016 19:14 19,7 C 88 % 1010,4 hPa 0,0 l/m 1,3 km/h (1 Bft) S-SW 198 0 min 0,000 mm 0,0 UV-I 32 W/m 17,7 C 19,7 C 3,2 km/h (1 Bft) 100,00 %
31.07.2016 19:16 19,7 C 88 % 1010,4 hPa 0,0 l/m 1,2 km/h (1 Bft) S-SW 198 0 min 0,000 mm 0,0 UV-I 35 W/m 17,7 C 19,7 C 1,6 km/h (1 Bft) 100,00 %
31.07.2016 19:18 19,6 C 88 % 1010,4 hPa 0,0 l/m 0,6 km/h (0 Bft) S-SW 198 0 min 0,000 mm 0,0 UV-I 40 W/m 17,6 C 19,6 C 1,6 km/h (1 Bft) 100,00 %
31.07.2016 19:20 19,6 C 88 % 1010,5 hPa 0,0 l/m 1,5 km/h (1 Bft) S-SW 198 0 min 0,000 mm 0,0 UV-I 45 W/m 17,6 C 19,6 C 3,2 km/h (1 Bft) 100,00 %
31.07.2016 19:22 19,7 C 88 % 1010,5 hPa 0,0 l/m 4,1 km/h (1 Bft) S-SW 198 0 min 0,000 mm 0,0 UV-I 47 W/m 17,7 C 19,7 C 6,4 km/h (2 Bft) 100,00 %
31.07.2016 19:24 19,7 C 88 % 1010,5 hPa 0,0 l/m 2,5 km/h (1 Bft) S-SW 198 0 min 0,000 mm 0,0 UV-I 49 W/m 17,7 C 19,7 C 4,8 km/h (1 Bft) 100,00 %
31.07.2016 19:26 19,6 C 87 % 1010,6 hPa 0,0 l/m 2,1 km/h (1 Bft) S-SW 196 0 min 0,000 mm 0,0 UV-I 49 W/m 17,4 C 19,6 C 3,2 km/h (1 Bft) 100,00 %
31.07.2016 19:28 19,6 C 87 % 1010,6 hPa 0,0 l/m 2,9 km/h (1 Bft) S-SW 196 0 min 0,000 mm 0,0 UV-I 49 W/m 17,4 C 19,6 C 4,8 km/h (1 Bft) 100,00 %
31.07.2016 19:30 19,6 C 88 % 1010,6 hPa 0,0 l/m 0,6 km/h (0 Bft) S-SW 196 0 min 0,000 mm 0,0 UV-I 48 W/m 17,6 C 19,6 C 3,2 km/h (1 Bft) 96,00 %
31.07.2016 19:32 19,6 C 87 % 1010,6 hPa 0,0 l/m 0,7 km/h (0 Bft) S-SW 196 0 min 0,000 mm 0,0 UV-I 46 W/m 17,4 C 19,6 C 1,6 km/h (1 Bft) 100,00 %
31.07.2016 19:34 19,6 C 87 % 1010,6 hPa 0,0 l/m 0,8 km/h (0 Bft) S-SW 196 0 min 0,000 mm 0,0 UV-I 42 W/m 17,4 C 19,6 C 3,2 km/h (1 Bft) 97,87 %
31.07.2016 19:36 19,6 C 88 % 1010,5 hPa 0,0 l/m 3,8 km/h (1 Bft) S-SO 165 0 min 0,000 mm 0,0 UV-I 40 W/m 17,6 C 19,6 C 6,4 km/h (2 Bft) 100,00 %
31.07.2016 19:38 19,6 C 88 % 1010,6 hPa 0,0 l/m 0,7 km/h (0 Bft) S-SO 165 0 min 0,000 mm 0,0 UV-I 36 W/m 17,6 C 19,6 C 3,2 km/h (1 Bft) 100,00 %
31.07.2016 19:40 19,7 C 88 % 1010,6 hPa 0,0 l/m 0,5 km/h (0 Bft) S-SO 165 0 min 0,000 mm 0,0 UV-I 33 W/m 17,7 C 19,7 C 1,6 km/h (1 Bft) 97,87 %
31.07.2016 19:42 19,7 C 88 % 1010,7 hPa 0,0 l/m 0,2 km/h (0 Bft) S-SO 165 0 min 0,000 mm 0,0 UV-I 30 W/m 17,7 C 19,7 C 1,6 km/h (1 Bft) 96,23 %
31.07.2016 19:44 19,7 C 88 % 1010,7 hPa 0,0 l/m 1,8 km/h (1 Bft) S-SO 165 0 min 0,000 mm 0,0 UV-I 27 W/m 17,7 C 19,7 C 3,2 km/h (1 Bft) 100,00 %
31.07.2016 19:46 19,7 C 89 % 1010,7 hPa 0,0 l/m 2,3 km/h (1 Bft) S-SO 165 0 min 0,000 mm 0,0 UV-I 25 W/m 17,8 C 19,7 C 3,2 km/h (1 Bft) 100,00 %
31.07.2016 19:48 19,7 C 89 % 1010,8 hPa 0,0 l/m 3,3 km/h (1 Bft) S 182 0 min 0,000 mm 0,0 UV-I 24 W/m 17,8 C 19,7 C 6,4 km/h (2 Bft) 100,00 %
31.07.2016 19:50 19,7 C 89 % 1010,8 hPa 0,0 l/m 3,3 km/h (1 Bft) S 182 0 min 0,000 mm 0,0 UV-I 25 W/m 17,8 C 19,7 C 4,8 km/h (1 Bft) 100,00 %
31.07.2016 19:52 19,7 C 89 % 1010,9 hPa 0,0 l/m 2,2 km/h (1 Bft) S 182 0 min 0,000 mm 0,0 UV-I 26 W/m 17,8 C 19,7 C 4,8 km/h (1 Bft) 100,00 %
31.07.2016 19:54 19,7 C 90 % 1010,9 hPa 0,0 l/m 2,1 km/h (1 Bft) S 182 0 min 0,000 mm 0,0 UV-I 26 W/m 18,0 C 19,7 C 3,2 km/h (1 Bft) 97,87 %
31.07.2016 19:56 19,7 C 90 % 1011,0 hPa 0,0 l/m 1,9 km/h (1 Bft) S 182 0 min 0,000 mm 0,0 UV-I 26 W/m 18,0 C 19,7 C 3,2 km/h (1 Bft) 100,00 %
31.07.2016 19:58 19,7 C 90 % 1011,0 hPa 0,0 l/m 2,0 km/h (1 Bft) S 182 0 min 0,000 mm 0,0 UV-I 26 W/m 18,0 C 19,7 C 3,2 km/h (1 Bft) 100,00 %
31.07.2016 20:00 19,6 C 90 % 1011,1 hPa 0,0 l/m 1,8 km/h (1 Bft) S 182 0 min 0,000 mm 0,0 UV-I 25 W/m 17,9 C 19,6 C 3,2 km/h (1 Bft) 100,00 %
31.07.2016 20:02 19,7 C 90 % 1011,2 hPa 0,0 l/m 1,3 km/h (1 Bft) S 182 0 min 0,026 mm 0,0 UV-I 23 W/m 18,0 C 19,7 C 3,2 km/h (1 Bft) 100,00 %
31.07.2016 20:04 19,7 C 90 % 1011,2 hPa 0,0 l/m 2,9 km/h (1 Bft) SW 221 0 min 0,000 mm 0,0 UV-I 22 W/m 18,0 C 19,7 C 4,8 km/h (1 Bft) 97,87 %
31.07.2016 20:06 19,6 C 90 % 1011,2 hPa 0,0 l/m 5,5 km/h (1 Bft) SW 217 0 min 0,000 mm 0,0 UV-I 21 W/m 17,9 C 19,6 C 11,3 km/h (2 Bft) 100,00 %
31.07.2016 20:08 19,7 C 91 % 1011,3 hPa 0,0 l/m 4,1 km/h (1 Bft) S-SW 208 0 min 0,000 mm 0,0 UV-I 21 W/m 18,2 C 19,7 C 6,4 km/h (2 Bft) 98,00 %
31.07.2016 20:10 19,7 C 91 % 1011,3 hPa 0,0 l/m 6,4 km/h (2 Bft) W-SW 247 0 min 0,000 mm 0,0 UV-I 20 W/m 18,2 C 19,7 C 11,3 km/h (2 Bft) 100,00 %
31.07.2016 20:12 19,6 C 91 % 1011,3 hPa 0,0 l/m 8,3 km/h (2 Bft) W-SW 252 0 min 0,000 mm 0,0 UV-I 19 W/m 18,1 C 18,8 C 12,9 km/h (3 Bft) 100,00 %
31.07.2016 20:14 19,6 C 91 % 1011,3 hPa 0,0 l/m 8,9 km/h (2 Bft) W-SW 252 0 min 0,000 mm 0,0 UV-I 16 W/m 18,1 C 18,6 C 12,9 km/h (3 Bft) 100,00 %
31.07.2016 20:16 19,7 C 91 % 1011,3 hPa 0,0 l/m 10,5 km/h (2 Bft) SW 229 0 min 0,000 mm 0,0 UV-I 13 W/m 18,2 C 18,1 C 17,7 km/h (3 Bft) 97,87 %
31.07.2016 20:18 19,6 C 91 % 1011,3 hPa 0,0 l/m 7,5 km/h (2 Bft) SW 236 0 min 0,000 mm 0,0 UV-I 10 W/m 18,1 C 19,1 C 12,9 km/h (3 Bft) 98,00 %
31.07.2016 20:20 19,7 C 91 % 1011,4 hPa 0,0 l/m 9,9 km/h (2 Bft) SW 234 0 min 0,000 mm 0,0 UV-I 8 W/m 18,2 C 18,3 C 14,5 km/h (3 Bft) 97,87 %
31.07.2016 20:22 19,7 C 91 % 1011,4 hPa 0,0 l/m 10,0 km/h (2 Bft) SW 221 0 min 0,000 mm 0,0 UV-I 7 W/m 18,2 C 18,3 C 14,5 km/h (3 Bft) 100,00 %
31.07.2016 20:24 19,7 C 91 % 1011,5 hPa 0,0 l/m 10,3 km/h (2 Bft) SW 223 0 min 0,000 mm 0,0 UV-I 5 W/m 18,2 C 18,2 C 16,1 km/h (3 Bft) 96,61 %
31.07.2016 20:26 19,6 C 91 % 1011,4 hPa 0,0 l/m 9,5 km/h (2 Bft) SW 219 0 min 0,000 mm 0,0 UV-I 6 W/m 18,1 C 18,4 C 16,1 km/h (3 Bft) 97,67 %
31.07.2016 20:28 19,6 C 91 % 1011,4 hPa 0,0 l/m 12,3 km/h (3 Bft) W-SW 238 0 min 0,000 mm 0,0 UV-I 7 W/m 18,1 C 17,5 C 17,7 km/h (3 Bft) 93,62 %
31.07.2016 20:30 19,6 C 91 % 1011,5 hPa 0,0 l/m 10,4 km/h (2 Bft) SW 221 0 min 0,000 mm 0,0 UV-I 7 W/m 18,1 C 18,1 C 17,7 km/h (3 Bft) 97,87 %
31.07.2016 20:32 19,6 C 91 % 1011,5 hPa 0,0 l/m 10,0 km/h (2 Bft) SW 217 0 min 0,000 mm 0,0 UV-I 6 W/m 18,1 C 18,2 C 16,1 km/h (3 Bft) 97,87 %
31.07.2016 20:34 19,5 C 91 % 1011,4 hPa 0,0 l/m 12,8 km/h (3 Bft) SW 234 0 min 0,000 mm 0,0 UV-I 5 W/m 18,0 C 17,2 C 22,5 km/h (4 Bft) 96,00 %
31.07.2016 20:36 19,5 C 90 % 1011,4 hPa 0,0 l/m 11,6 km/h (2 Bft) S-SW 212 0 min 0,000 mm 0,0 UV-I 5 W/m 17,8 C 17,6 C 17,7 km/h (3 Bft) 95,12 %
31.07.2016 20:38 19,5 C 90 % 1011,4 hPa 0,0 l/m 11,7 km/h (2 Bft) SW 220 0 min 0,000 mm 0,0 UV-I 5 W/m 17,8 C 17,5 C 17,7 km/h (3 Bft) 97,62 %
31.07.2016 20:40 19,4 C 90 % 1011,5 hPa 0,0 l/m 10,1 km/h (2 Bft) W-SW 244 0 min 0,000 mm 0,0 UV-I 7 W/m 17,7 C 17,9 C 19,3 km/h (3 Bft) 97,37 %
31.07.2016 20:42 19,4 C 90 % 1011,5 hPa 0,0 l/m 11,4 km/h (2 Bft) W-SW 238 0 min 0,000 mm 0,0 UV-I 5 W/m 17,7 C 17,5 C 17,7 km/h (3 Bft) 98,39 %
31.07.2016 20:44 19,4 C 90 % 1011,5 hPa 0,0 l/m 13,2 km/h (3 Bft) SW 232 0 min 0,000 mm 0,0 UV-I 4 W/m 17,7 C 17,0 C 20,9 km/h (4 Bft) 97,87 %
31.07.2016 20:46 19,3 C 90 % 1011,5 hPa 0,0 l/m 11,8 km/h (2 Bft) W-SW 257 0 min 0,000 mm 0,0 UV-I 0 W/m 17,6 C 17,3 C 20,9 km/h (4 Bft) 95,74 %
31.07.2016 20:48 19,3 C 90 % 1011,5 hPa 0,0 l/m 10,7 km/h (2 Bft) W-SW 243 0 min 0,000 mm 0,0 UV-I 0 W/m 17,6 C 17,6 C 17,7 km/h (3 Bft) 97,56 %
31.07.2016 20:50 19,3 C 89 % 1011,6 hPa 0,0 l/m 15,1 km/h (3 Bft) SW 233 0 min 0,000 mm 0,0 UV-I 0 W/m 17,4 C 16,4 C 25,7 km/h (4 Bft) 96,43 %
31.07.2016 20:52 19,3 C 89 % 1011,6 hPa 0,0 l/m 13,1 km/h (3 Bft) W-SW 240 0 min 0,000 mm 0,0 UV-I 0 W/m 17,4 C 16,9 C 20,9 km/h (4 Bft) 97,37 %
31.07.2016 20:54 19,3 C 89 % 1011,6 hPa 0,0 l/m 16,2 km/h (3 Bft) SW 234 0 min 0,000 mm 0,0 UV-I 0 W/m 17,4 C 16,1 C 22,5 km/h (4 Bft) 96,23 %
31.07.2016 20:56 19,3 C 89 % 1011,8 hPa 0,0 l/m 13,7 km/h (3 Bft) W 267 0 min 0,000 mm 0,0 UV-I 0 W/m 17,4 C 16,7 C 22,5 km/h (4 Bft) 95,74 %
31.07.2016 20:58 19,2 C 89 % 1011,7 hPa 0,0 l/m 11,9 km/h (2 Bft) W-SW 244 0 min 0,000 mm 0,0 UV-I 0 W/m 17,3 C 17,1 C 16,1 km/h (3 Bft) 97,87 %
31.07.2016 21:00 19,2 C 89 % 1011,8 hPa 0,0 l/m 15,3 km/h (3 Bft) W-SW 240 0 min 0,000 mm 0,0 UV-I 0 W/m 17,3 C 16,2 C 22,5 km/h (4 Bft) 100,00 %
31.07.2016 21:02 19,2 C 88 % 1011,9 hPa 0,0 l/m 12,0 km/h (2 Bft) W-SW 253 0 min 0,025 mm 0,0 UV-I 0 W/m 17,2 C 17,1 C 17,7 km/h (3 Bft) 100,00 %
31.07.2016 21:04 19,2 C 88 % 1011,9 hPa 0,0 l/m 12,2 km/h (2 Bft) SW 236 0 min 0,000 mm 0,0 UV-I 0 W/m 17,2 C 17,0 C 17,7 km/h (3 Bft) 97,73 %
31.07.2016 21:06 19,2 C 88 % 1011,9 hPa 0,0 l/m 10,1 km/h (2 Bft) SW 223 0 min 0,000 mm 0,0 UV-I 0 W/m 17,2 C 17,7 C 16,1 km/h (3 Bft) 100,00 %
31.07.2016 21:08 19,2 C 88 % 1012,0 hPa 0,0 l/m 14,3 km/h (3 Bft) W-SW 238 0 min 0,000 mm 0,0 UV-I 0 W/m 17,2 C 16,5 C 19,3 km/h (3 Bft) 94,74 %
31.07.2016 21:10 19,2 C 88 % 1012,0 hPa 0,0 l/m 11,9 km/h (2 Bft) W-SW 239 0 min 0,000 mm 0,0 UV-I 0 W/m 17,2 C 17,1 C 16,1 km/h (3 Bft) 100,00 %
31.07.2016 21:12 19,2 C 88 % 1012,1 hPa 0,0 l/m 11,3 km/h (2 Bft) SW 234 0 min 0,000 mm 0,0 UV-I 0 W/m 17,2 C 17,3 C 19,3 km/h (3 Bft) 97,92 %
31.07.2016 21:14 19,1 C 88 % 1012,1 hPa 0,0 l/m 13,4 km/h (3 Bft) S-SW 209 0 min 0,000 mm 0,0 UV-I 0 W/m 17,1 C 16,6 C 20,9 km/h (4 Bft) 100,00 %
31.07.2016 21:16 19,1 C 88 % 1012,2 hPa 0,0 l/m 10,8 km/h (2 Bft) W 262 0 min 0,000 mm 0,0 UV-I 0 W/m 17,1 C 17,4 C 16,1 km/h (3 Bft) 100,00 %
31.07.2016 21:18 19,1 C 88 % 1012,2 hPa 0,0 l/m 14,2 km/h (3 Bft) SW 227 0 min 0,000 mm 0,0 UV-I 0 W/m 17,1 C 16,4 C 19,3 km/h (3 Bft) 100,00 %
31.07.2016 21:20 19,1 C 88 % 1012,2 hPa 0,0 l/m 11,3 km/h (2 Bft) S-SW 205 0 min 0,000 mm 0,0 UV-I 0 W/m 17,1 C 17,2 C 16,1 km/h (3 Bft) 100,00 %
31.07.2016 21:22 19,1 C 88 % 1012,2 hPa 0,0 l/m 15,5 km/h (3 Bft) SW 219 0 min 0,000 mm 0,0 UV-I 0 W/m 17,1 C 16,0 C 22,5 km/h (4 Bft) 100,00 %
31.07.2016 21:24 19,1 C 88 % 1012,1 hPa 0,0 l/m 13,5 km/h (3 Bft) SW 223 0 min 0,000 mm 0,0 UV-I 0 W/m 17,1 C 16,6 C 20,9 km/h (4 Bft) 100,00 %
31.07.2016 21:26 19,1 C 88 % 1012,2 hPa 0,0 l/m 14,0 km/h (3 Bft) W-SW 244 0 min 0,000 mm 0,0 UV-I 0 W/m 17,1 C 16,4 C 19,3 km/h (3 Bft) 100,00 %
31.07.2016 21:28 19,0 C 88 % 1012,2 hPa 0,0 l/m 12,1 km/h (2 Bft) W-SW 257 0 min 0,000 mm 0,0 UV-I 0 W/m 17,0 C 16,8 C 16,1 km/h (3 Bft) 100,00 %
31.07.2016 21:30 19,0 C 88 % 1012,2 hPa 0,0 l/m 13,9 km/h (3 Bft) S-SW 207 0 min 0,000 mm 0,0 UV-I 0 W/m 17,0 C 16,3 C 19,3 km/h (3 Bft) 100,00 %
31.07.2016 21:32 18,9 C 88 % 1012,3 hPa 0,0 l/m 13,4 km/h (3 Bft) W-SW 246 0 min 0,000 mm 0,0 UV-I 0 W/m 16,9 C 16,3 C 22,5 km/h (4 Bft) 100,00 %
31.07.2016 21:34 18,9 C 88 % 1012,3 hPa 0,0 l/m 11,5 km/h (2 Bft) W-SW 246 0 min 0,000 mm 0,0 UV-I 0 W/m 16,9 C 16,9 C 17,7 km/h (3 Bft) 98,00 %
31.07.2016 21:36 18,9 C 88 % 1012,4 hPa 0,0 l/m 14,5 km/h (3 Bft) SW 225 0 min 0,000 mm 0,0 UV-I 0 W/m 16,9 C 16,0 C 20,9 km/h (4 Bft) 100,00 %
31.07.2016 21:38 18,9 C 89 % 1012,4 hPa 0,0 l/m 15,4 km/h (3 Bft) SW 217 0 min 0,000 mm 0,0 UV-I 0 W/m 17,0 C 15,8 C 22,5 km/h (4 Bft) 97,56 %
31.07.2016 21:40 18,9 C 89 % 1012,4 hPa 0,0 l/m 12,7 km/h (3 Bft) W 259 0 min 0,000 mm 0,0 UV-I 0 W/m 17,0 C 16,6 C 24,1 km/h (4 Bft) 100,00 %
31.07.2016 21:42 18,9 C 89 % 1012,5 hPa 0,0 l/m 10,5 km/h (2 Bft) W-SW 237 0 min 0,000 mm 0,0 UV-I 0 W/m 17,0 C 17,3 C 17,7 km/h (3 Bft) 100,00 %
31.07.2016 21:44 18,9 C 89 % 1012,5 hPa 0,0 l/m 10,8 km/h (2 Bft) W-SW 253 0 min 0,000 mm 0,0 UV-I 0 W/m 17,0 C 17,1 C 19,3 km/h (3 Bft) 98,00 %
31.07.2016 21:46 18,9 C 89 % 1012,5 hPa 0,0 l/m 12,9 km/h (3 Bft) SW 216 0 min 0,000 mm 0,0 UV-I 0 W/m 17,0 C 16,5 C 16,1 km/h (3 Bft) 100,00 %
31.07.2016 21:48 18,9 C 89 % 1012,5 hPa 0,0 l/m 13,4 km/h (3 Bft) W-SW 238 0 min 0,000 mm 0,0 UV-I 0 W/m 17,0 C 16,3 C 22,5 km/h (4 Bft) 100,00 %
31.07.2016 21:50 18,9 C 89 % 1012,6 hPa 0,0 l/m 9,9 km/h (2 Bft) SW 217 0 min 0,000 mm 0,0 UV-I 0 W/m 17,0 C 17,5 C 16,1 km/h (3 Bft) 97,56 %
31.07.2016 21:52 18,9 C 89 % 1012,6 hPa 0,0 l/m 8,5 km/h (2 Bft) W-SW 254 0 min 0,000 mm 0,0 UV-I 0 W/m 17,0 C 18,0 C 12,9 km/h (3 Bft) 100,00 %
31.07.2016 21:54 18,8 C 89 % 1012,6 hPa 0,0 l/m 12,3 km/h (3 Bft) S 175 0 min 0,000 mm 0,0 UV-I 0 W/m 16,9 C 16,6 C 19,3 km/h (3 Bft) 100,00 %
31.07.2016 21:56 18,8 C 89 % 1012,6 hPa 0,0 l/m 8,3 km/h (2 Bft) SW 236 0 min 0,000 mm 0,0 UV-I 0 W/m 16,9 C 18,0 C 12,9 km/h (3 Bft) 100,00 %
31.07.2016 21:58 18,8 C 89 % 1012,7 hPa 0,0 l/m 11,3 km/h (2 Bft) W-SW 242 0 min 0,000 mm 0,0 UV-I 0 W/m 16,9 C 16,9 C 19,3 km/h (3 Bft) 98,00 %
31.07.2016 22:00 18,8 C 89 % 1012,7 hPa 0,0 l/m 10,5 km/h (2 Bft) W 281 0 min 0,000 mm 0,0 UV-I 0 W/m 16,9 C 17,1 C 16,1 km/h (3 Bft) 97,37 %
31.07.2016 22:02 18,8 C 89 % 1012,6 hPa 0,0 l/m 7,7 km/h (2 Bft) W-SW 247 0 min 0,026 mm 0,0 UV-I 0 W/m 16,9 C 18,2 C 11,3 km/h (2 Bft) 100,00 %
31.07.2016 22:04 18,8 C 89 % 1012,6 hPa 0,0 l/m 7,9 km/h (2 Bft) S-SW 207 0 min 0,000 mm 0,0 UV-I 0 W/m 16,9 C 18,1 C 14,5 km/h (3 Bft) 98,00 %
31.07.2016 22:06 18,8 C 89 % 1012,7 hPa 0,0 l/m 9,4 km/h (2 Bft) SW 217 0 min 0,000 mm 0,0 UV-I 0 W/m 16,9 C 17,5 C 14,5 km/h (3 Bft) 100,00 %
31.07.2016 22:08 18,7 C 89 % 1012,7 hPa 0,0 l/m 10,2 km/h (2 Bft) W-SW 244 0 min 0,000 mm 0,0 UV-I 0 W/m 16,8 C 17,1 C 14,5 km/h (3 Bft) 100,00 %
31.07.2016 22:10 18,7 C 89 % 1012,7 hPa 0,0 l/m 12,4 km/h (3 Bft) W-SW 243 0 min 0,000 mm 0,0 UV-I 0 W/m 16,8 C 16,4 C 19,3 km/h (3 Bft) 100,00 %
31.07.2016 22:12 18,7 C 89 % 1012,7 hPa 0,0 l/m 10,0 km/h (2 Bft) SW 220 0 min 0,000 mm 0,0 UV-I 0 W/m 16,8 C 17,2 C 16,1 km/h (3 Bft) 95,74 %
31.07.2016 22:14 18,7 C 89 % 1012,7 hPa 0,0 l/m 10,2 km/h (2 Bft) SW 219 0 min 0,000 mm 0,0 UV-I 0 W/m 16,8 C 17,1 C 14,5 km/h (3 Bft) 100,00 %
31.07.2016 22:16 18,7 C 89 % 1012,6 hPa 0,0 l/m 9,4 km/h (2 Bft) W-SW 238 0 min 0,000 mm 0,0 UV-I 0 W/m 16,8 C 17,4 C 14,5 km/h (3 Bft) 100,00 %
31.07.2016 22:18 18,7 C 88 % 1012,7 hPa 0,0 l/m 7,0 km/h (2 Bft) S-SW 197 0 min 0,000 mm 0,0 UV-I 0 W/m 16,7 C 18,4 C 11,3 km/h (2 Bft) 100,00 %
31.07.2016 22:20 18,7 C 88 % 1012,7 hPa 0,0 l/m 10,8 km/h (2 Bft) SW 225 0 min 0,000 mm 0,0 UV-I 0 W/m 16,7 C 16,9 C 16,1 km/h (3 Bft) 98,11 %
31.07.2016 22:22 18,7 C 88 % 1012,6 hPa 0,0 l/m 9,5 km/h (2 Bft) SW 224 0 min 0,000 mm 0,0 UV-I 0 W/m 16,7 C 17,4 C 16,1 km/h (3 Bft) 100,00 %
31.07.2016 22:24 18,7 C 88 % 1012,6 hPa 0,0 l/m 10,9 km/h (2 Bft) SW 234 0 min 0,000 mm 0,0 UV-I 0 W/m 16,7 C 16,9 C 16,1 km/h (3 Bft) 98,00 %
31.07.2016 22:26 18,7 C 89 % 1012,7 hPa 0,0 l/m 10,9 km/h (2 Bft) SW 222 0 min 0,000 mm 0,0 UV-I 0 W/m 16,8 C 16,9 C 17,7 km/h (3 Bft) 98,11 %
31.07.2016 22:28 18,7 C 88 % 1012,7 hPa 0,0 l/m 9,5 km/h (2 Bft) W-SW 254 0 min 0,000 mm 0,0 UV-I 0 W/m 16,7 C 17,4 C 14,5 km/h (3 Bft) 96,30 %
31.07.2016 22:30 18,7 C 88 % 1012,8 hPa 0,0 l/m 9,7 km/h (2 Bft) SW 223 0 min 0,000 mm 0,0 UV-I 0 W/m 16,7 C 17,3 C 17,7 km/h (3 Bft) 97,01 %
31.07.2016 22:32 18,7 C 88 % 1012,8 hPa 0,0 l/m 9,0 km/h (2 Bft) W-SW 252 0 min 0,000 mm 0,0 UV-I 0 W/m 16,7 C 17,6 C 16,1 km/h (3 Bft) 97,37 %
31.07.2016 22:34 18,7 C 88 % 1012,8 hPa 0,0 l/m 9,9 km/h (2 Bft) W-SW 245 0 min 0,000 mm 0,0 UV-I 0 W/m 16,7 C 17,2 C 16,1 km/h (3 Bft) 98,11 %
31.07.2016 22:36 18,7 C 88 % 1012,8 hPa 0,0 l/m 11,6 km/h (2 Bft) SW 227 0 min 0,000 mm 0,0 UV-I 0 W/m 16,7 C 16,7 C 16,1 km/h (3 Bft) 97,73 %
31.07.2016 22:38 18,7 C 88 % 1012,8 hPa 0,0 l/m 9,3 km/h (2 Bft) S-SO 155 0 min 0,000 mm 0,0 UV-I 0 W/m 16,7 C 17,5 C 16,1 km/h (3 Bft) 98,00 %
31.07.2016 22:40 18,6 C 88 % 1012,8 hPa 0,0 l/m 8,7 km/h (2 Bft) SW 227 0 min 0,000 mm 0,0 UV-I 0 W/m 16,6 C 17,6 C 12,9 km/h (3 Bft) 98,00 %
31.07.2016 22:42 18,6 C 88 % 1012,8 hPa 0,0 l/m 9,1 km/h (2 Bft) SW 214 0 min 0,000 mm 0,0 UV-I 0 W/m 16,6 C 17,4 C 17,7 km/h (3 Bft) 97,22 %
31.07.2016 22:44 18,6 C 88 % 1012,8 hPa 0,0 l/m 11,0 km/h (2 Bft) SW 229 0 min 0,000 mm 0,0 UV-I 0 W/m 16,6 C 16,7 C 16,1 km/h (3 Bft) 97,87 %
31.07.2016 22:46 18,6 C 88 % 1012,8 hPa 0,0 l/m 12,2 km/h (2 Bft) S-SW 207 0 min 0,000 mm 0,0 UV-I 0 W/m 16,6 C 16,4 C 17,7 km/h (3 Bft) 97,87 %
31.07.2016 22:48 18,6 C 88 % 1012,8 hPa 0,0 l/m 9,7 km/h (2 Bft) SW 236 0 min 0,000 mm 0,0 UV-I 0 W/m 16,6 C 17,2 C 16,1 km/h (3 Bft) 96,23 %
31.07.2016 22:50 18,6 C 89 % 1012,8 hPa 0,0 l/m 9,2 km/h (2 Bft) W-SW 240 0 min 0,000 mm 0,0 UV-I 0 W/m 16,7 C 17,4 C 12,9 km/h (3 Bft) 97,56 %
31.07.2016 22:52 18,5 C 89 % 1012,8 hPa 0,0 l/m 7,4 km/h (2 Bft) SW 223 0 min 0,000 mm 0,0 UV-I 0 W/m 16,7 C 18,0 C 9,7 km/h (2 Bft) 98,00 %
31.07.2016 22:54 18,5 C 89 % 1012,8 hPa 0,0 l/m 9,5 km/h (2 Bft) SW 234 0 min 0,000 mm 0,0 UV-I 0 W/m 16,7 C 17,2 C 14,5 km/h (3 Bft) 98,00 %
31.07.2016 22:56 18,4 C 89 % 1012,7 hPa 0,0 l/m 8,4 km/h (2 Bft) S-SW 202 0 min 0,000 mm 0,0 UV-I 0 W/m 16,6 C 17,5 C 12,9 km/h (3 Bft) 97,87 %
31.07.2016 22:58 18,4 C 89 % 1012,7 hPa 0,0 l/m 7,2 km/h (2 Bft) SW 230 0 min 0,000 mm 0,0 UV-I 0 W/m 16,6 C 18,0 C 14,5 km/h (3 Bft) 97,87 %
31.07.2016 23:00 18,3 C 89 % 1012,7 hPa 0,0 l/m 9,6 km/h (2 Bft) W-SW 249 0 min 0,000 mm 0,0 UV-I 0 W/m 16,5 C 16,9 C 12,9 km/h (3 Bft) 97,73 %
31.07.2016 23:02 18,3 C 89 % 1012,7 hPa 0,0 l/m 9,1 km/h (2 Bft) SW 234 0 min 0,025 mm 0,0 UV-I 0 W/m 16,5 C 17,1 C 14,5 km/h (3 Bft) 100,00 %
31.07.2016 23:04 18,3 C 89 % 1012,7 hPa 0,0 l/m 9,6 km/h (2 Bft) SW 226 0 min 0,000 mm 0,0 UV-I 0 W/m 16,5 C 16,9 C 12,9 km/h (3 Bft) 100,00 %
31.07.2016 23:06 18,3 C 89 % 1012,6 hPa 0,0 l/m 9,1 km/h (2 Bft) W-SW 244 0 min 0,000 mm 0,0 UV-I 0 W/m 16,5 C 17,1 C 11,3 km/h (2 Bft) 100,00 %
31.07.2016 23:08 18,3 C 89 % 1012,6 hPa 0,0 l/m 8,3 km/h (2 Bft) SW 217 0 min 0,000 mm 0,0 UV-I 0 W/m 16,5 C 17,4 C 14,5 km/h (3 Bft) 97,37 %
31.07.2016 23:10 18,2 C 89 % 1012,6 hPa 0,0 l/m 9,0 km/h (2 Bft) SW 223 0 min 0,000 mm 0,0 UV-I 0 W/m 16,4 C 17,0 C 12,9 km/h (3 Bft) 98,00 %
31.07.2016 23:12 18,2 C 89 % 1012,6 hPa 0,0 l/m 7,1 km/h (2 Bft) W-SW 249 0 min 0,000 mm 0,0 UV-I 0 W/m 16,4 C 17,9 C 12,9 km/h (3 Bft) 100,00 %
31.07.2016 23:14 18,2 C 89 % 1012,6 hPa 0,0 l/m 7,9 km/h (2 Bft) S-SW 212 0 min 0,000 mm 0,0 UV-I 0 W/m 16,4 C 17,5 C 12,9 km/h (3 Bft) 100,00 %
31.07.2016 23:16 18,2 C 89 % 1012,6 hPa 0,0 l/m 7,8 km/h (2 Bft) S-SW 213 0 min 0,000 mm 0,0 UV-I 0 W/m 16,4 C 17,6 C 12,9 km/h (3 Bft) 96,00 %
31.07.2016 23:18 18,2 C 89 % 1012,6 hPa 0,0 l/m 7,8 km/h (2 Bft) S-SW 209 0 min 0,000 mm 0,0 UV-I 0 W/m 16,4 C 17,6 C 12,9 km/h (3 Bft) 97,44 %
31.07.2016 23:20 18,2 C 89 % 1012,7 hPa 0,0 l/m 6,8 km/h (2 Bft) S-SW 192 0 min 0,000 mm 0,0 UV-I 0 W/m 16,4 C 18,0 C 11,3 km/h (2 Bft) 100,00 %
31.07.2016 23:22 18,1 C 89 % 1012,6 hPa 0,0 l/m 5,5 km/h (1 Bft) S-SW 205 0 min 0,000 mm 0,0 UV-I 0 W/m 16,3 C 18,1 C 8,0 km/h (2 Bft) 100,00 %
31.07.2016 23:24 18,1 C 89 % 1012,6 hPa 0,0 l/m 6,6 km/h (2 Bft) W-SW 250 0 min 0,000 mm 0,0 UV-I 0 W/m 16,3 C 18,0 C 9,7 km/h (2 Bft) 100,00 %
31.07.2016 23:26 18,1 C 89 % 1012,7 hPa 0,0 l/m 7,7 km/h (2 Bft) SW 234 0 min 0,000 mm 0,0 UV-I 0 W/m 16,3 C 17,5 C 11,3 km/h (2 Bft) 100,00 %
31.07.2016 23:28 18,1 C 89 % 1012,6 hPa 0,0 l/m 6,3 km/h (2 Bft) W-SW 238 0 min 0,000 mm 0,0 UV-I 0 W/m 16,3 C 18,1 C 9,7 km/h (2 Bft) 100,00 %
31.07.2016 23:30 18,0 C 90 % 1012,6 hPa 0,0 l/m 8,1 km/h (2 Bft) SW 223 0 min 0,000 mm 0,0 UV-I 0 W/m 16,3 C 17,2 C 12,9 km/h (3 Bft) 100,00 %
31.07.2016 23:32 18,0 C 90 % 1012,6 hPa 0,0 l/m 7,6 km/h (2 Bft) W-SW 238 0 min 0,000 mm 0,0 UV-I 0 W/m 16,3 C 17,4 C 9,7 km/h (2 Bft) 100,00 %
31.07.2016 23:34 17,9 C 90 % 1012,5 hPa 0,0 l/m 8,3 km/h (2 Bft) SW 225 0 min 0,000 mm 0,0 UV-I 0 W/m 16,2 C 17,0 C 11,3 km/h (2 Bft) 100,00 %
31.07.2016 23:36 17,9 C 90 % 1012,5 hPa 0,0 l/m 6,9 km/h (2 Bft) SW 227 0 min 0,000 mm 0,0 UV-I 0 W/m 16,2 C 17,7 C 11,3 km/h (2 Bft) 100,00 %
31.07.2016 23:38 17,9 C 90 % 1012,5 hPa 0,0 l/m 5,8 km/h (2 Bft) W-SW 242 0 min 0,000 mm 0,0 UV-I 0 W/m 16,2 C 17,9 C 9,7 km/h (2 Bft) 97,87 %
31.07.2016 23:40 17,9 C 90 % 1012,6 hPa 0,0 l/m 7,1 km/h (2 Bft) SW 225 0 min 0,000 mm 0,0 UV-I 0 W/m 16,2 C 17,6 C 9,7 km/h (2 Bft) 100,00 %
31.07.2016 23:42 17,9 C 91 % 1012,6 hPa 0,0 l/m 7,8 km/h (2 Bft) SW 225 0 min 0,000 mm 0,0 UV-I 0 W/m 16,4 C 17,2 C 14,5 km/h (3 Bft) 100,00 %
31.07.2016 23:44 17,9 C 90 % 1012,6 hPa 0,0 l/m 7,3 km/h (2 Bft) SW 234 0 min 0,000 mm 0,0 UV-I 0 W/m 16,2 C 17,5 C 14,5 km/h (3 Bft) 100,00 %
31.07.2016 23:46 17,9 C 90 % 1012,6 hPa 0,0 l/m 5,6 km/h (1 Bft) W-SW 248 0 min 0,000 mm 0,0 UV-I 0 W/m 16,2 C 17,9 C 9,7 km/h (2 Bft) 100,00 %
31.07.2016 23:48 17,9 C 90 % 1012,6 hPa 0,0 l/m 7,8 km/h (2 Bft) W-SW 238 0 min 0,000 mm 0,0 UV-I 0 W/m 16,2 C 17,2 C 11,3 km/h (2 Bft) 100,00 %
31.07.2016 23:50 17,9 C 90 % 1012,6 hPa 0,0 l/m 5,9 km/h (2 Bft) SW 215 0 min 0,000 mm 0,0 UV-I 0 W/m 16,2 C 17,9 C 9,7 km/h (2 Bft) 100,00 %
31.07.2016 23:52 17,9 C 90 % 1012,6 hPa 0,0 l/m 7,1 km/h (2 Bft) W-SW 244 0 min 0,000 mm 0,0 UV-I 0 W/m 16,2 C 17,6 C 11,3 km/h (2 Bft) 100,00 %
31.07.2016 23:54 18,0 C 90 % 1012,6 hPa 0,0 l/m 5,7 km/h (1 Bft) SW 226 0 min 0,000 mm 0,0 UV-I 0 W/m 16,3 C 18,0 C 9,7 km/h (2 Bft) 97,87 %
31.07.2016 23:56 18,0 C 90 % 1012,7 hPa 0,0 l/m 7,6 km/h (2 Bft) SW 221 0 min 0,000 mm 0,0 UV-I 0 W/m 16,3 C 17,4 C 11,3 km/h (2 Bft) 100,00 %
31.07.2016 23:58 18,0 C 90 % 1012,8 hPa 0,0 l/m 7,3 km/h (2 Bft) SW 227 0 min 0,000 mm 0,0 UV-I 0 W/m 16,3 C 17,6 C 12,9 km/h (3 Bft) 100,00 %
_ Min-Zeit 05:50 12:28 08:20 - 00:00 - - - - - - 05:48 21:38 01:18 08:50
Minimum _ 17,3 C 50 % 1009,3 hPa - 0,0 km/h (0 Bft) - - - - - - 15,9 C 15,8 C 0,0 km/h (0 Bft) 92,11 %
_ Max-Zeit 12:16 06:14 22:30 16:16 13:10 - - 07:00 13:02 13:10 13:38 11:06 12:16 13:10 00:00
Maximum _ 28,2 C 94 % 1012,8 hPa 0,2 l/m 21,0 km/h
W-SW (4 Bft)
- - 2 min 0,610 mm 6,6 UV-I 990 W/m 19,2 C 28,2 C 35,4 km/h
W (5 Bft)
100,00 %
Durchschnitt _ 21,2 C 80 % 1010,6 hPa #1,4 l/m 5,9 km/h (2 Bft) W-SW - #6:56 h #3,556 mm 3,1 UV-I 323 W/m 17,4 C 20,7 C 10,0 km/h (2 Bft) 98,70 %